Wetterdaten: Mittwoch, 20.07.2016
Datum Zeit Temp. A. Feuchte A. Luftdruck Regen Wind Richtung Richtung Sonnenschein ET UV Solar Taupunkt Windchill Windben Empfang
20.07.2016 00:00 18,3 C 86 % 1017,6 hPa 0,0 l/m 0,0 km/h (0 Bft) SO 132 0 min 0,000 mm 0,0 UV-I 0 W/m 15,9 C 18,3 C 0,0 km/h (0 Bft) 95,74 %
20.07.2016 00:02 18,2 C 86 % 1017,6 hPa 0,0 l/m 0,0 km/h (0 Bft) SO 132 0 min 0,000 mm 0,0 UV-I 0 W/m 15,8 C 18,2 C 0,0 km/h (0 Bft) 97,67 %
20.07.2016 00:04 18,2 C 86 % 1017,6 hPa 0,0 l/m 0,0 km/h (0 Bft) SO 132 0 min 0,000 mm 0,0 UV-I 0 W/m 15,8 C 18,2 C 0,0 km/h (0 Bft) 95,74 %
20.07.2016 00:06 18,2 C 86 % 1017,6 hPa 0,0 l/m 0,0 km/h (0 Bft) SO 132 0 min 0,000 mm 0,0 UV-I 0 W/m 15,8 C 18,2 C 0,0 km/h (0 Bft) 95,74 %
20.07.2016 00:08 18,2 C 86 % 1017,6 hPa 0,0 l/m 0,0 km/h (0 Bft) SO 132 0 min 0,000 mm 0,0 UV-I 0 W/m 15,8 C 18,2 C 0,0 km/h (0 Bft) 94,74 %
20.07.2016 00:10 18,2 C 86 % 1017,5 hPa 0,0 l/m 1,9 km/h (1 Bft) SO 132 0 min 0,000 mm 0,0 UV-I 0 W/m 15,8 C 18,2 C 3,2 km/h (1 Bft) 97,92 %
20.07.2016 00:12 18,1 C 86 % 1017,5 hPa 0,0 l/m 3,3 km/h (1 Bft) SO 132 0 min 0,000 mm 0,0 UV-I 0 W/m 15,7 C 18,1 C 4,8 km/h (1 Bft) 97,87 %
20.07.2016 00:14 18,1 C 86 % 1017,5 hPa 0,0 l/m 3,1 km/h (1 Bft) SO 132 0 min 0,000 mm 0,0 UV-I 0 W/m 15,7 C 18,1 C 4,8 km/h (1 Bft) 97,87 %
20.07.2016 00:16 18,0 C 87 % 1017,5 hPa 0,0 l/m 3,7 km/h (1 Bft) SO 132 0 min 0,000 mm 0,0 UV-I 0 W/m 15,8 C 18,0 C 4,8 km/h (1 Bft) 95,74 %
20.07.2016 00:18 17,9 C 87 % 1017,5 hPa 0,0 l/m 5,3 km/h (1 Bft) S 182 0 min 0,000 mm 0,0 UV-I 0 W/m 15,7 C 17,9 C 6,4 km/h (2 Bft) 95,74 %
20.07.2016 00:20 17,8 C 87 % 1017,5 hPa 0,0 l/m 5,1 km/h (1 Bft) S 188 0 min 0,000 mm 0,0 UV-I 0 W/m 15,6 C 17,8 C 6,4 km/h (2 Bft) 95,74 %
20.07.2016 00:22 17,8 C 87 % 1017,4 hPa 0,0 l/m 4,5 km/h (1 Bft) S 190 0 min 0,000 mm 0,0 UV-I 0 W/m 15,6 C 17,8 C 6,4 km/h (2 Bft) 98,00 %
20.07.2016 00:24 17,8 C 87 % 1017,4 hPa 0,0 l/m 3,8 km/h (1 Bft) S 180 0 min 0,000 mm 0,0 UV-I 0 W/m 15,6 C 17,8 C 6,4 km/h (2 Bft) 97,87 %
20.07.2016 00:26 17,9 C 87 % 1017,4 hPa 0,0 l/m 3,6 km/h (1 Bft) S 177 0 min 0,000 mm 0,0 UV-I 0 W/m 15,7 C 17,9 C 6,4 km/h (2 Bft) 100,00 %
20.07.2016 00:28 17,9 C 86 % 1017,4 hPa 0,0 l/m 4,0 km/h (1 Bft) S-SO 167 0 min 0,000 mm 0,0 UV-I 0 W/m 15,5 C 17,9 C 8,0 km/h (2 Bft) 100,00 %
20.07.2016 00:30 17,9 C 86 % 1017,4 hPa 0,0 l/m 1,1 km/h (1 Bft) S-SO 167 0 min 0,000 mm 0,0 UV-I 0 W/m 15,5 C 17,9 C 1,6 km/h (1 Bft) 98,00 %
20.07.2016 00:32 17,9 C 86 % 1017,4 hPa 0,0 l/m 0,9 km/h (0 Bft) S-SO 167 0 min 0,000 mm 0,0 UV-I 0 W/m 15,5 C 17,9 C 1,6 km/h (1 Bft) 97,87 %
20.07.2016 00:34 18,1 C 86 % 1017,4 hPa 0,0 l/m 0,3 km/h (0 Bft) S-SO 167 0 min 0,000 mm 0,0 UV-I 0 W/m 15,7 C 18,1 C 1,6 km/h (1 Bft) 100,00 %
20.07.2016 00:36 18,1 C 86 % 1017,4 hPa 0,0 l/m 0,1 km/h (0 Bft) S-SO 167 0 min 0,000 mm 0,0 UV-I 0 W/m 15,7 C 18,1 C 1,6 km/h (1 Bft) 100,00 %
20.07.2016 00:38 18,1 C 86 % 1017,4 hPa 0,0 l/m 0,0 km/h (0 Bft) S-SO 167 0 min 0,000 mm 0,0 UV-I 0 W/m 15,7 C 18,1 C 0,0 km/h (0 Bft) 100,00 %
20.07.2016 00:40 18,0 C 85 % 1017,4 hPa 0,0 l/m 0,0 km/h (0 Bft) S-SO 167 0 min 0,000 mm 0,0 UV-I 0 W/m 15,4 C 18,0 C 1,6 km/h (1 Bft) 100,00 %
20.07.2016 00:42 17,8 C 87 % 1017,4 hPa 0,0 l/m 0,2 km/h (0 Bft) S-SO 167 0 min 0,000 mm 0,0 UV-I 0 W/m 15,6 C 17,8 C 1,6 km/h (1 Bft) 97,87 %
20.07.2016 00:44 17,7 C 86 % 1017,4 hPa 0,0 l/m 0,7 km/h (0 Bft) S-SO 167 0 min 0,000 mm 0,0 UV-I 0 W/m 15,3 C 17,7 C 1,6 km/h (1 Bft) 100,00 %
20.07.2016 00:46 17,8 C 86 % 1017,4 hPa 0,0 l/m 0,5 km/h (0 Bft) S-SO 167 0 min 0,000 mm 0,0 UV-I 0 W/m 15,4 C 17,8 C 1,6 km/h (1 Bft) 97,87 %
20.07.2016 00:48 17,8 C 86 % 1017,4 hPa 0,0 l/m 0,4 km/h (0 Bft) S-SO 167 0 min 0,000 mm 0,0 UV-I 0 W/m 15,4 C 17,8 C 1,6 km/h (1 Bft) 97,87 %
20.07.2016 00:50 17,9 C 85 % 1017,5 hPa 0,0 l/m 0,6 km/h (0 Bft) S-SO 167 0 min 0,000 mm 0,0 UV-I 0 W/m 15,3 C 17,9 C 1,6 km/h (1 Bft) 97,87 %
20.07.2016 00:52 18,0 C 84 % 1017,5 hPa 0,0 l/m 1,5 km/h (1 Bft) S-SO 167 0 min 0,000 mm 0,0 UV-I 0 W/m 15,3 C 18,0 C 4,8 km/h (1 Bft) 97,87 %
20.07.2016 00:54 18,1 C 84 % 1017,5 hPa 0,0 l/m 1,9 km/h (1 Bft) S-SO 167 0 min 0,000 mm 0,0 UV-I 0 W/m 15,4 C 18,1 C 4,8 km/h (1 Bft) 100,00 %
20.07.2016 00:56 18,0 C 85 % 1017,5 hPa 0,0 l/m 1,8 km/h (1 Bft) S-SO 167 0 min 0,000 mm 0,0 UV-I 0 W/m 15,4 C 18,0 C 4,8 km/h (1 Bft) 96,23 %
20.07.2016 00:58 17,9 C 85 % 1017,5 hPa 0,0 l/m 1,1 km/h (1 Bft) S-SO 167 0 min 0,000 mm 0,0 UV-I 0 W/m 15,3 C 17,9 C 1,6 km/h (1 Bft) 100,00 %
20.07.2016 01:00 17,9 C 84 % 1017,4 hPa 0,0 l/m 4,2 km/h (1 Bft) S-SO 167 0 min 0,000 mm 0,0 UV-I 0 W/m 15,2 C 17,9 C 6,4 km/h (2 Bft) 97,87 %
20.07.2016 01:02 17,9 C 84 % 1017,4 hPa 0,0 l/m 5,0 km/h (1 Bft) S-SO 167 0 min 0,000 mm 0,0 UV-I 0 W/m 15,2 C 17,9 C 6,4 km/h (2 Bft) 97,87 %
20.07.2016 01:04 17,9 C 84 % 1017,4 hPa 0,0 l/m 6,1 km/h (2 Bft) S-SO 168 0 min 0,000 mm 0,0 UV-I 0 W/m 15,2 C 17,9 C 8,0 km/h (2 Bft) 96,00 %
20.07.2016 01:06 17,9 C 84 % 1017,4 hPa 0,0 l/m 3,5 km/h (1 Bft) S-SO 168 0 min 0,000 mm 0,0 UV-I 0 W/m 15,2 C 17,9 C 6,4 km/h (2 Bft) 95,74 %
20.07.2016 01:08 17,9 C 85 % 1017,4 hPa 0,0 l/m 0,9 km/h (0 Bft) S-SO 168 0 min 0,000 mm 0,0 UV-I 0 W/m 15,3 C 17,9 C 3,2 km/h (1 Bft) 97,37 %
20.07.2016 01:10 17,8 C 84 % 1017,5 hPa 0,0 l/m 0,0 km/h (0 Bft) S-SO 168 0 min 0,000 mm 0,0 UV-I 0 W/m 15,1 C 17,8 C 1,6 km/h (1 Bft) 97,87 %
20.07.2016 01:12 17,6 C 85 % 1017,4 hPa 0,0 l/m 0,0 km/h (0 Bft) S-SO 168 0 min 0,000 mm 0,0 UV-I 0 W/m 15,0 C 17,6 C 0,0 km/h (0 Bft) 97,87 %
20.07.2016 01:14 17,4 C 86 % 1017,5 hPa 0,0 l/m 0,0 km/h (0 Bft) S-SO 168 0 min 0,000 mm 0,0 UV-I 0 W/m 15,0 C 17,4 C 0,0 km/h (0 Bft) 100,00 %
20.07.2016 01:16 17,3 C 87 % 1017,5 hPa 0,0 l/m 0,0 km/h (0 Bft) S-SO 168 0 min 0,000 mm 0,0 UV-I 0 W/m 15,1 C 17,3 C 1,6 km/h (1 Bft) 93,62 %
20.07.2016 01:18 17,1 C 88 % 1017,5 hPa 0,0 l/m 0,0 km/h (0 Bft) S-SO 168 0 min 0,000 mm 0,0 UV-I 0 W/m 15,1 C 17,1 C 0,0 km/h (0 Bft) 97,87 %
20.07.2016 01:20 16,9 C 89 % 1017,5 hPa 0,0 l/m 0,0 km/h (0 Bft) S-SO 168 0 min 0,000 mm 0,0 UV-I 0 W/m 15,1 C 16,9 C 0,0 km/h (0 Bft) 97,87 %
20.07.2016 01:22 16,8 C 89 % 1017,5 hPa 0,0 l/m 2,3 km/h (1 Bft) S-SO 168 0 min 0,000 mm 0,0 UV-I 0 W/m 15,0 C 16,8 C 3,2 km/h (1 Bft) 100,00 %
20.07.2016 01:24 16,8 C 90 % 1017,5 hPa 0,0 l/m 3,5 km/h (1 Bft) S-SO 168 0 min 0,000 mm 0,0 UV-I 0 W/m 15,1 C 16,8 C 6,4 km/h (2 Bft) 100,00 %
20.07.2016 01:26 16,7 C 90 % 1017,5 hPa 0,0 l/m 3,6 km/h (1 Bft) S-SO 168 0 min 0,000 mm 0,0 UV-I 0 W/m 15,0 C 16,7 C 6,4 km/h (2 Bft) 95,74 %
20.07.2016 01:28 16,6 C 90 % 1017,5 hPa 0,0 l/m 2,3 km/h (1 Bft) S-SO 168 0 min 0,000 mm 0,0 UV-I 0 W/m 15,0 C 16,6 C 3,2 km/h (1 Bft) 100,00 %
20.07.2016 01:30 16,6 C 90 % 1017,5 hPa 0,0 l/m 0,6 km/h (0 Bft) S-SO 168 0 min 0,000 mm 0,0 UV-I 0 W/m 15,0 C 16,6 C 1,6 km/h (1 Bft) 97,87 %
20.07.2016 01:32 16,6 C 91 % 1017,5 hPa 0,0 l/m 0,0 km/h (0 Bft) S-SO 168 0 min 0,000 mm 0,0 UV-I 0 W/m 15,1 C 16,6 C 0,0 km/h (0 Bft) 100,00 %
20.07.2016 01:34 16,5 C 90 % 1017,6 hPa 0,0 l/m 0,0 km/h (0 Bft) S-SO 168 0 min 0,000 mm 0,0 UV-I 0 W/m 14,9 C 16,5 C 0,0 km/h (0 Bft) 97,87 %
20.07.2016 01:36 16,5 C 91 % 1017,5 hPa 0,0 l/m 0,0 km/h (0 Bft) S-SO 168 0 min 0,000 mm 0,0 UV-I 0 W/m 15,0 C 16,5 C 0,0 km/h (0 Bft) 97,92 %
20.07.2016 01:38 16,6 C 91 % 1017,6 hPa 0,0 l/m 0,0 km/h (0 Bft) S-SO 168 0 min 0,000 mm 0,0 UV-I 0 W/m 15,1 C 16,6 C 0,0 km/h (0 Bft) 100,00 %
20.07.2016 01:40 16,6 C 90 % 1017,5 hPa 0,0 l/m 0,3 km/h (0 Bft) S-SO 168 0 min 0,000 mm 0,0 UV-I 0 W/m 15,0 C 16,6 C 1,6 km/h (1 Bft) 100,00 %
20.07.2016 01:42 16,6 C 90 % 1017,6 hPa 0,0 l/m 1,9 km/h (1 Bft) S-SO 168 0 min 0,000 mm 0,0 UV-I 0 W/m 15,0 C 16,6 C 3,2 km/h (1 Bft) 100,00 %
20.07.2016 01:44 16,6 C 90 % 1017,6 hPa 0,0 l/m 2,6 km/h (1 Bft) S-SO 161 0 min 0,000 mm 0,0 UV-I 0 W/m 15,0 C 16,6 C 3,2 km/h (1 Bft) 100,00 %
20.07.2016 01:46 16,6 C 90 % 1017,6 hPa 0,0 l/m 3,6 km/h (1 Bft) O-SO 103 0 min 0,000 mm 0,0 UV-I 0 W/m 15,0 C 16,6 C 4,8 km/h (1 Bft) 100,00 %
20.07.2016 01:48 16,6 C 90 % 1017,6 hPa 0,0 l/m 2,4 km/h (1 Bft) O-SO 103 0 min 0,000 mm 0,0 UV-I 0 W/m 15,0 C 16,6 C 3,2 km/h (1 Bft) 96,00 %
20.07.2016 01:50 16,7 C 90 % 1017,6 hPa 0,0 l/m 1,4 km/h (1 Bft) O-SO 103 0 min 0,000 mm 0,0 UV-I 0 W/m 15,0 C 16,7 C 3,2 km/h (1 Bft) 97,87 %
20.07.2016 01:52 16,7 C 90 % 1017,6 hPa 0,0 l/m 0,2 km/h (0 Bft) O-SO 103 0 min 0,000 mm 0,0 UV-I 0 W/m 15,0 C 16,7 C 1,6 km/h (1 Bft) 97,87 %
20.07.2016 01:54 16,6 C 90 % 1017,6 hPa 0,0 l/m 0,8 km/h (0 Bft) O-SO 103 0 min 0,000 mm 0,0 UV-I 0 W/m 15,0 C 16,6 C 3,2 km/h (1 Bft) 97,87 %
20.07.2016 01:56 16,6 C 90 % 1017,6 hPa 0,0 l/m 0,5 km/h (0 Bft) O-SO 103 0 min 0,000 mm 0,0 UV-I 0 W/m 15,0 C 16,6 C 1,6 km/h (1 Bft) 97,87 %
20.07.2016 01:58 16,6 C 90 % 1017,6 hPa 0,0 l/m 0,7 km/h (0 Bft) O-SO 103 0 min 0,000 mm 0,0 UV-I 0 W/m 15,0 C 16,6 C 1,6 km/h (1 Bft) 95,74 %
20.07.2016 02:00 16,6 C 90 % 1017,6 hPa 0,0 l/m 0,0 km/h (0 Bft) O-SO 103 0 min 0,000 mm 0,0 UV-I 0 W/m 15,0 C 16,6 C 0,0 km/h (0 Bft) 97,87 %
20.07.2016 02:02 16,6 C 90 % 1017,6 hPa 0,0 l/m 0,0 km/h (0 Bft) O-SO 103 0 min 0,000 mm 0,0 UV-I 0 W/m 15,0 C 16,6 C 0,0 km/h (0 Bft) 98,00 %
20.07.2016 02:04 16,5 C 90 % 1017,6 hPa 0,0 l/m 0,0 km/h (0 Bft) O-SO 103 0 min 0,000 mm 0,0 UV-I 0 W/m 14,9 C 16,5 C 0,0 km/h (0 Bft) 95,74 %
20.07.2016 02:06 16,5 C 90 % 1017,6 hPa 0,0 l/m 0,0 km/h (0 Bft) O-SO 103 0 min 0,000 mm 0,0 UV-I 0 W/m 14,9 C 16,5 C 0,0 km/h (0 Bft) 97,37 %
20.07.2016 02:08 16,4 C 90 % 1017,6 hPa 0,0 l/m 1,4 km/h (1 Bft) O-SO 103 0 min 0,000 mm 0,0 UV-I 0 W/m 14,8 C 16,4 C 3,2 km/h (1 Bft) 97,87 %
20.07.2016 02:10 16,3 C 90 % 1017,5 hPa 0,0 l/m 1,4 km/h (1 Bft) O-SO 103 0 min 0,000 mm 0,0 UV-I 0 W/m 14,7 C 16,3 C 3,2 km/h (1 Bft) 95,83 %
20.07.2016 02:12 16,3 C 91 % 1017,5 hPa 0,0 l/m 0,1 km/h (0 Bft) O-SO 103 0 min 0,000 mm 0,0 UV-I 0 W/m 14,8 C 16,3 C 1,6 km/h (1 Bft) 97,87 %
20.07.2016 02:14 16,2 C 90 % 1017,5 hPa 0,0 l/m 0,0 km/h (0 Bft) O-SO 103 0 min 0,000 mm 0,0 UV-I 0 W/m 14,6 C 16,2 C 0,0 km/h (0 Bft) 97,87 %
20.07.2016 02:16 16,1 C 91 % 1017,5 hPa 0,0 l/m 0,4 km/h (0 Bft) O-SO 103 0 min 0,000 mm 0,0 UV-I 0 W/m 14,6 C 16,1 C 1,6 km/h (1 Bft) 96,00 %
20.07.2016 02:18 16,1 C 91 % 1017,5 hPa 0,0 l/m 1,8 km/h (1 Bft) O-SO 103 0 min 0,000 mm 0,0 UV-I 0 W/m 14,6 C 16,1 C 3,2 km/h (1 Bft) 95,74 %
20.07.2016 02:20 16,0 C 91 % 1017,5 hPa 0,0 l/m 2,4 km/h (1 Bft) O-SO 103 0 min 0,000 mm 0,0 UV-I 0 W/m 14,5 C 16,0 C 3,2 km/h (1 Bft) 97,87 %
20.07.2016 02:22 16,0 C 91 % 1017,5 hPa 0,0 l/m 3,1 km/h (1 Bft) O-SO 103 0 min 0,000 mm 0,0 UV-I 0 W/m 14,5 C 16,0 C 4,8 km/h (1 Bft) 97,87 %
20.07.2016 02:24 15,9 C 91 % 1017,5 hPa 0,0 l/m 3,6 km/h (1 Bft) O-SO 103 0 min 0,000 mm 0,0 UV-I 0 W/m 14,4 C 15,9 C 4,8 km/h (1 Bft) 97,87 %
20.07.2016 02:26 15,9 C 92 % 1017,5 hPa 0,0 l/m 2,2 km/h (1 Bft) O-SO 103 0 min 0,000 mm 0,0 UV-I 0 W/m 14,6 C 15,9 C 3,2 km/h (1 Bft) 100,00 %
20.07.2016 02:28 15,9 C 92 % 1017,5 hPa 0,0 l/m 0,6 km/h (0 Bft) O-SO 103 0 min 0,000 mm 0,0 UV-I 0 W/m 14,6 C 15,9 C 1,6 km/h (1 Bft) 100,00 %
20.07.2016 02:30 16,0 C 92 % 1017,5 hPa 0,0 l/m 0,3 km/h (0 Bft) O-SO 103 0 min 0,000 mm 0,0 UV-I 0 W/m 14,7 C 16,0 C 3,2 km/h (1 Bft) 97,87 %
20.07.2016 02:32 15,9 C 91 % 1017,5 hPa 0,0 l/m 1,3 km/h (1 Bft) O-SO 103 0 min 0,000 mm 0,0 UV-I 0 W/m 14,4 C 15,9 C 3,2 km/h (1 Bft) 97,87 %
20.07.2016 02:34 15,9 C 91 % 1017,5 hPa 0,0 l/m 0,3 km/h (0 Bft) O-SO 103 0 min 0,000 mm 0,0 UV-I 0 W/m 14,4 C 15,9 C 1,6 km/h (1 Bft) 97,56 %
20.07.2016 02:36 15,9 C 91 % 1017,5 hPa 0,0 l/m 1,2 km/h (1 Bft) O-SO 103 0 min 0,000 mm 0,0 UV-I 0 W/m 14,4 C 15,9 C 1,6 km/h (1 Bft) 100,00 %
20.07.2016 02:38 16,0 C 91 % 1017,5 hPa 0,0 l/m 2,3 km/h (1 Bft) O-SO 103 0 min 0,000 mm 0,0 UV-I 0 W/m 14,5 C 16,0 C 3,2 km/h (1 Bft) 100,00 %
20.07.2016 02:40 16,1 C 91 % 1017,4 hPa 0,0 l/m 1,2 km/h (1 Bft) O-SO 103 0 min 0,000 mm 0,0 UV-I 0 W/m 14,6 C 16,1 C 3,2 km/h (1 Bft) 100,00 %
20.07.2016 02:42 16,0 C 90 % 1017,4 hPa 0,0 l/m 0,2 km/h (0 Bft) O-SO 103 0 min 0,000 mm 0,0 UV-I 0 W/m 14,4 C 16,0 C 1,6 km/h (1 Bft) 100,00 %
20.07.2016 02:44 15,9 C 91 % 1017,4 hPa 0,0 l/m 0,6 km/h (0 Bft) O-SO 103 0 min 0,000 mm 0,0 UV-I 0 W/m 14,4 C 15,9 C 1,6 km/h (1 Bft) 100,00 %
20.07.2016 02:46 15,9 C 91 % 1017,3 hPa 0,0 l/m 0,0 km/h (0 Bft) O-SO 103 0 min 0,000 mm 0,0 UV-I 0 W/m 14,4 C 15,9 C 1,6 km/h (1 Bft) 97,87 %
20.07.2016 02:48 15,9 C 91 % 1017,3 hPa 0,0 l/m 0,0 km/h (0 Bft) O-SO 103 0 min 0,000 mm 0,0 UV-I 0 W/m 14,4 C 15,9 C 0,0 km/h (0 Bft) 97,87 %
20.07.2016 02:50 15,9 C 91 % 1017,3 hPa 0,0 l/m 0,0 km/h (0 Bft) O-SO 103 0 min 0,000 mm 0,0 UV-I 0 W/m 14,4 C 15,9 C 0,0 km/h (0 Bft) 95,74 %
20.07.2016 02:52 15,9 C 91 % 1017,3 hPa 0,0 l/m 0,0 km/h (0 Bft) O-SO 103 0 min 0,000 mm 0,0 UV-I 0 W/m 14,4 C 15,9 C 0,0 km/h (0 Bft) 95,83 %
20.07.2016 02:54 15,9 C 91 % 1017,3 hPa 0,0 l/m 0,0 km/h (0 Bft) O-SO 103 0 min 0,000 mm 0,0 UV-I 0 W/m 14,4 C 15,9 C 1,6 km/h (1 Bft) 100,00 %
20.07.2016 02:56 15,9 C 91 % 1017,3 hPa 0,0 l/m 1,0 km/h (0 Bft) O-SO 103 0 min 0,000 mm 0,0 UV-I 0 W/m 14,4 C 15,9 C 1,6 km/h (1 Bft) 100,00 %
20.07.2016 02:58 15,8 C 91 % 1017,3 hPa 0,0 l/m 0,1 km/h (0 Bft) O-SO 103 0 min 0,000 mm 0,0 UV-I 0 W/m 14,3 C 15,8 C 1,6 km/h (1 Bft) 100,00 %
20.07.2016 03:00 15,8 C 91 % 1017,3 hPa 0,0 l/m 0,6 km/h (0 Bft) O-SO 103 0 min 0,000 mm 0,0 UV-I 0 W/m 14,3 C 15,8 C 1,6 km/h (1 Bft) 100,00 %
20.07.2016 03:02 15,8 C 91 % 1017,3 hPa 0,0 l/m 0,4 km/h (0 Bft) O-SO 103 0 min 0,000 mm 0,0 UV-I 0 W/m 14,3 C 15,8 C 1,6 km/h (1 Bft) 100,00 %
20.07.2016 03:04 15,8 C 91 % 1017,3 hPa 0,0 l/m 0,2 km/h (0 Bft) O-SO 103 0 min 0,000 mm 0,0 UV-I 0 W/m 14,3 C 15,8 C 1,6 km/h (1 Bft) 100,00 %
20.07.2016 03:06 15,8 C 91 % 1017,3 hPa 0,0 l/m 0,0 km/h (0 Bft) O-SO 103 0 min 0,000 mm 0,0 UV-I 0 W/m 14,3 C 15,8 C 0,0 km/h (0 Bft) 95,74 %
20.07.2016 03:08 15,8 C 91 % 1017,3 hPa 0,0 l/m 0,7 km/h (0 Bft) O-SO 103 0 min 0,000 mm 0,0 UV-I 0 W/m 14,3 C 15,8 C 1,6 km/h (1 Bft) 95,74 %
20.07.2016 03:10 15,8 C 91 % 1017,3 hPa 0,0 l/m 0,7 km/h (0 Bft) O-SO 103 0 min 0,000 mm 0,0 UV-I 0 W/m 14,3 C 15,8 C 1,6 km/h (1 Bft) 100,00 %
20.07.2016 03:12 15,8 C 91 % 1017,3 hPa 0,0 l/m 0,0 km/h (0 Bft) O-SO 103 0 min 0,000 mm 0,0 UV-I 0 W/m 14,3 C 15,8 C 0,0 km/h (0 Bft) 97,87 %
20.07.2016 03:14 15,7 C 92 % 1017,3 hPa 0,0 l/m 0,0 km/h (0 Bft) O-SO 103 0 min 0,000 mm 0,0 UV-I 0 W/m 14,4 C 15,7 C 0,0 km/h (0 Bft) 100,00 %
20.07.2016 03:16 15,8 C 92 % 1017,3 hPa 0,0 l/m 0,0 km/h (0 Bft) O-SO 103 0 min 0,000 mm 0,0 UV-I 0 W/m 14,5 C 15,8 C 0,0 km/h (0 Bft) 100,00 %
20.07.2016 03:18 15,8 C 91 % 1017,3 hPa 0,0 l/m 0,0 km/h (0 Bft) O-SO 103 0 min 0,000 mm 0,0 UV-I 0 W/m 14,3 C 15,8 C 0,0 km/h (0 Bft) 91,43 %
20.07.2016 03:20 15,8 C 92 % 1017,3 hPa 0,0 l/m 0,0 km/h (0 Bft) O-SO 103 0 min 0,000 mm 0,0 UV-I 0 W/m 14,5 C 15,8 C 1,6 km/h (1 Bft) 100,00 %
20.07.2016 03:22 15,7 C 92 % 1017,3 hPa 0,0 l/m 0,4 km/h (0 Bft) O-SO 103 0 min 0,000 mm 0,0 UV-I 0 W/m 14,4 C 15,7 C 3,2 km/h (1 Bft) 100,00 %
20.07.2016 03:24 15,7 C 92 % 1017,2 hPa 0,0 l/m 2,0 km/h (1 Bft) O-SO 103 0 min 0,000 mm 0,0 UV-I 0 W/m 14,4 C 15,7 C 3,2 km/h (1 Bft) 93,62 %
20.07.2016 03:26 15,7 C 92 % 1017,3 hPa 0,0 l/m 1,8 km/h (1 Bft) O-SO 103 0 min 0,000 mm 0,0 UV-I 0 W/m 14,4 C 15,7 C 3,2 km/h (1 Bft) 100,00 %
20.07.2016 03:28 15,6 C 92 % 1017,3 hPa 0,0 l/m 2,0 km/h (1 Bft) O-SO 103 0 min 0,000 mm 0,0 UV-I 0 W/m 14,3 C 15,6 C 3,2 km/h (1 Bft) 100,00 %
20.07.2016 03:30 15,6 C 92 % 1017,2 hPa 0,0 l/m 1,3 km/h (1 Bft) O-SO 103 0 min 0,000 mm 0,0 UV-I 0 W/m 14,3 C 15,6 C 1,6 km/h (1 Bft) 97,87 %
20.07.2016 03:32 15,6 C 92 % 1017,3 hPa 0,0 l/m 1,6 km/h (1 Bft) O-SO 103 0 min 0,000 mm 0,0 UV-I 0 W/m 14,3 C 15,6 C 3,2 km/h (1 Bft) 100,00 %
20.07.2016 03:34 15,5 C 92 % 1017,3 hPa 0,0 l/m 2,4 km/h (1 Bft) O-SO 103 0 min 0,000 mm 0,0 UV-I 0 W/m 14,2 C 15,5 C 3,2 km/h (1 Bft) 100,00 %
20.07.2016 03:36 15,4 C 92 % 1017,3 hPa 0,0 l/m 2,7 km/h (1 Bft) O-SO 103 0 min 0,000 mm 0,0 UV-I 0 W/m 14,1 C 15,4 C 3,2 km/h (1 Bft) 95,74 %
20.07.2016 03:38 15,4 C 93 % 1017,3 hPa 0,0 l/m 2,0 km/h (1 Bft) O-SO 103 0 min 0,000 mm 0,0 UV-I 0 W/m 14,3 C 15,4 C 3,2 km/h (1 Bft) 97,87 %
20.07.2016 03:40 15,4 C 93 % 1017,3 hPa 0,0 l/m 1,1 km/h (1 Bft) O-SO 103 0 min 0,000 mm 0,0 UV-I 0 W/m 14,3 C 15,4 C 1,6 km/h (1 Bft) 100,00 %
20.07.2016 03:42 15,4 C 92 % 1017,3 hPa 0,0 l/m 1,2 km/h (1 Bft) O-SO 103 0 min 0,000 mm 0,0 UV-I 0 W/m 14,1 C 15,4 C 3,2 km/h (1 Bft) 97,87 %
20.07.2016 03:44 15,4 C 93 % 1017,3 hPa 0,0 l/m 1,1 km/h (1 Bft) O-SO 103 0 min 0,000 mm 0,0 UV-I 0 W/m 14,3 C 15,4 C 3,2 km/h (1 Bft) 97,87 %
20.07.2016 03:46 15,6 C 93 % 1017,3 hPa 0,0 l/m 2,5 km/h (1 Bft) O-SO 103 0 min 0,000 mm 0,0 UV-I 0 W/m 14,5 C 15,6 C 3,2 km/h (1 Bft) 100,00 %
20.07.2016 03:48 15,6 C 92 % 1017,3 hPa 0,0 l/m 0,3 km/h (0 Bft) O-SO 103 0 min 0,000 mm 0,0 UV-I 0 W/m 14,3 C 15,6 C 1,6 km/h (1 Bft) 97,87 %
20.07.2016 03:50 15,6 C 92 % 1017,3 hPa 0,0 l/m 0,0 km/h (0 Bft) O-SO 103 0 min 0,000 mm 0,0 UV-I 0 W/m 14,3 C 15,6 C 0,0 km/h (0 Bft) 95,74 %
20.07.2016 03:52 15,6 C 92 % 1017,3 hPa 0,0 l/m 0,9 km/h (0 Bft) O-SO 103 0 min 0,000 mm 0,0 UV-I 0 W/m 14,3 C 15,6 C 1,6 km/h (1 Bft) 97,87 %
20.07.2016 03:54 15,6 C 92 % 1017,3 hPa 0,0 l/m 1,3 km/h (1 Bft) O-SO 103 0 min 0,000 mm 0,0 UV-I 0 W/m 14,3 C 15,6 C 1,6 km/h (1 Bft) 97,87 %
20.07.2016 03:56 15,5 C 92 % 1017,3 hPa 0,0 l/m 1,0 km/h (0 Bft) O-SO 103 0 min 0,000 mm 0,0 UV-I 0 W/m 14,2 C 15,5 C 1,6 km/h (1 Bft) 97,87 %
20.07.2016 03:58 15,5 C 92 % 1017,3 hPa 0,0 l/m 0,0 km/h (0 Bft) O-SO 103 0 min 0,000 mm 0,0 UV-I 0 W/m 14,2 C 15,5 C 1,6 km/h (1 Bft) 95,74 %
20.07.2016 04:00 15,4 C 92 % 1017,3 hPa 0,0 l/m 0,0 km/h (0 Bft) O-SO 103 0 min 0,000 mm 0,0 UV-I 0 W/m 14,1 C 15,4 C 0,0 km/h (0 Bft) 97,87 %
20.07.2016 04:02 15,4 C 92 % 1017,3 hPa 0,0 l/m 0,0 km/h (0 Bft) O-SO 103 0 min 0,000 mm 0,0 UV-I 0 W/m 14,1 C 15,4 C 0,0 km/h (0 Bft) 93,75 %
20.07.2016 04:04 15,4 C 91 % 1017,3 hPa 0,0 l/m 0,0 km/h (0 Bft) O-SO 103 0 min 0,000 mm 0,0 UV-I 0 W/m 13,9 C 15,4 C 0,0 km/h (0 Bft) 97,87 %
20.07.2016 04:06 15,4 C 92 % 1017,3 hPa 0,0 l/m 0,6 km/h (0 Bft) O-SO 103 0 min 0,000 mm 0,0 UV-I 0 W/m 14,1 C 15,4 C 3,2 km/h (1 Bft) 100,00 %
20.07.2016 04:08 15,4 C 92 % 1017,3 hPa 0,0 l/m 1,7 km/h (1 Bft) O-SO 103 0 min 0,000 mm 0,0 UV-I 0 W/m 14,1 C 15,4 C 3,2 km/h (1 Bft) 96,77 %
20.07.2016 04:10 15,4 C 92 % 1017,3 hPa 0,0 l/m 0,9 km/h (0 Bft) O-SO 103 0 min 0,000 mm 0,0 UV-I 0 W/m 14,1 C 15,4 C 1,6 km/h (1 Bft) 97,87 %
20.07.2016 04:12 15,4 C 92 % 1017,3 hPa 0,0 l/m 0,0 km/h (0 Bft) O-SO 103 0 min 0,000 mm 0,0 UV-I 0 W/m 14,1 C 15,4 C 0,0 km/h (0 Bft) 97,87 %
20.07.2016 04:14 15,3 C 92 % 1017,3 hPa 0,0 l/m 0,0 km/h (0 Bft) O-SO 103 0 min 0,000 mm 0,0 UV-I 0 W/m 14,0 C 15,3 C 0,0 km/h (0 Bft) 95,74 %
20.07.2016 04:16 15,3 C 92 % 1017,3 hPa 0,0 l/m 0,0 km/h (0 Bft) O-SO 103 0 min 0,000 mm 0,0 UV-I 0 W/m 14,0 C 15,3 C 0,0 km/h (0 Bft) 97,87 %
20.07.2016 04:18 15,3 C 92 % 1017,3 hPa 0,0 l/m 0,0 km/h (0 Bft) O-SO 103 0 min 0,000 mm 0,0 UV-I 0 W/m 14,0 C 15,3 C 0,0 km/h (0 Bft) 93,62 %
20.07.2016 04:20 15,3 C 92 % 1017,3 hPa 0,0 l/m 0,0 km/h (0 Bft) O-SO 103 0 min 0,000 mm 0,0 UV-I 0 W/m 14,0 C 15,3 C 0,0 km/h (0 Bft) 96,00 %
20.07.2016 04:22 15,3 C 92 % 1017,3 hPa 0,0 l/m 0,0 km/h (0 Bft) O-SO 103 0 min 0,000 mm 0,0 UV-I 0 W/m 14,0 C 15,3 C 0,0 km/h (0 Bft) 97,87 %
20.07.2016 04:24 15,3 C 92 % 1017,3 hPa 0,0 l/m 0,0 km/h (0 Bft) O-SO 103 0 min 0,000 mm 0,0 UV-I 0 W/m 14,0 C 15,3 C 0,0 km/h (0 Bft) 97,87 %
20.07.2016 04:26 15,3 C 92 % 1017,3 hPa 0,0 l/m 0,0 km/h (0 Bft) O-SO 103 0 min 0,000 mm 0,0 UV-I 0 W/m 14,0 C 15,3 C 0,0 km/h (0 Bft) 97,87 %
20.07.2016 04:28 15,2 C 92 % 1017,3 hPa 0,0 l/m 0,0 km/h (0 Bft) O-SO 103 0 min 0,000 mm 0,0 UV-I 0 W/m 13,9 C 15,2 C 0,0 km/h (0 Bft) 100,00 %
20.07.2016 04:30 15,1 C 92 % 1017,3 hPa 0,0 l/m 1,7 km/h (1 Bft) O-SO 103 0 min 0,000 mm 0,0 UV-I 0 W/m 13,8 C 15,1 C 3,2 km/h (1 Bft) 97,87 %
20.07.2016 04:32 15,1 C 92 % 1017,3 hPa 0,0 l/m 1,6 km/h (1 Bft) O-SO 103 0 min 0,000 mm 0,0 UV-I 0 W/m 13,8 C 15,1 C 3,2 km/h (1 Bft) 97,87 %
20.07.2016 04:34 15,0 C 93 % 1017,3 hPa 0,0 l/m 0,5 km/h (0 Bft) O-SO 103 0 min 0,000 mm 0,0 UV-I 0 W/m 13,9 C 15,0 C 1,6 km/h (1 Bft) 95,74 %
20.07.2016 04:36 14,9 C 93 % 1017,3 hPa 0,0 l/m 0,0 km/h (0 Bft) O-SO 103 0 min 0,000 mm 0,0 UV-I 0 W/m 13,8 C 14,9 C 1,6 km/h (1 Bft) 97,87 %
20.07.2016 04:38 14,9 C 93 % 1017,3 hPa 0,0 l/m 0,0 km/h (0 Bft) O-SO 103 0 min 0,000 mm 0,0 UV-I 0 W/m 13,8 C 14,9 C 0,0 km/h (0 Bft) 100,00 %
20.07.2016 04:40 14,9 C 93 % 1017,3 hPa 0,0 l/m 0,0 km/h (0 Bft) O-SO 103 0 min 0,000 mm 0,0 UV-I 0 W/m 13,8 C 14,9 C 1,6 km/h (1 Bft) 100,00 %
20.07.2016 04:42 14,8 C 93 % 1017,3 hPa 0,0 l/m 0,5 km/h (0 Bft) O-SO 103 0 min 0,000 mm 0,0 UV-I 0 W/m 13,7 C 14,8 C 1,6 km/h (1 Bft) 100,00 %
20.07.2016 04:44 14,8 C 93 % 1017,3 hPa 0,0 l/m 0,0 km/h (0 Bft) O-SO 103 0 min 0,000 mm 0,0 UV-I 0 W/m 13,7 C 14,8 C 0,0 km/h (0 Bft) 100,00 %
20.07.2016 04:46 14,8 C 93 % 1017,3 hPa 0,0 l/m 0,0 km/h (0 Bft) O-SO 103 0 min 0,000 mm 0,0 UV-I 0 W/m 13,7 C 14,8 C 0,0 km/h (0 Bft) 97,87 %
20.07.2016 04:48 14,8 C 93 % 1017,4 hPa 0,0 l/m 0,0 km/h (0 Bft) O-SO 103 0 min 0,000 mm 0,0 UV-I 0 W/m 13,7 C 14,8 C 0,0 km/h (0 Bft) 100,00 %
20.07.2016 04:50 14,9 C 93 % 1017,4 hPa 0,0 l/m 0,8 km/h (0 Bft) O-SO 103 0 min 0,000 mm 0,0 UV-I 0 W/m 13,8 C 14,9 C 1,6 km/h (1 Bft) 97,92 %
20.07.2016 04:52 14,9 C 93 % 1017,4 hPa 0,0 l/m 1,0 km/h (0 Bft) O-SO 103 0 min 0,000 mm 0,0 UV-I 0 W/m 13,8 C 14,9 C 1,6 km/h (1 Bft) 100,00 %
20.07.2016 04:54 14,9 C 93 % 1017,4 hPa 0,0 l/m 0,7 km/h (0 Bft) O-SO 103 0 min 0,000 mm 0,0 UV-I 0 W/m 13,8 C 14,9 C 1,6 km/h (1 Bft) 100,00 %
20.07.2016 04:56 14,8 C 93 % 1017,4 hPa 0,0 l/m 0,7 km/h (0 Bft) O-SO 103 0 min 0,000 mm 0,0 UV-I 0 W/m 13,7 C 14,8 C 1,6 km/h (1 Bft) 97,87 %
20.07.2016 04:58 14,8 C 93 % 1017,4 hPa 0,0 l/m 0,0 km/h (0 Bft) O-SO 103 0 min 0,000 mm 0,0 UV-I 0 W/m 13,7 C 14,8 C 0,0 km/h (0 Bft) 100,00 %
20.07.2016 05:00 14,8 C 93 % 1017,4 hPa 0,0 l/m 0,0 km/h (0 Bft) O-SO 103 0 min 0,000 mm 0,0 UV-I 0 W/m 13,7 C 14,8 C 0,0 km/h (0 Bft) 100,00 %
20.07.2016 05:02 14,8 C 94 % 1017,3 hPa 0,0 l/m 0,0 km/h (0 Bft) O-SO 103 0 min 0,000 mm 0,0 UV-I 0 W/m 13,8 C 14,8 C 0,0 km/h (0 Bft) 100,00 %
20.07.2016 05:04 14,8 C 93 % 1017,3 hPa 0,0 l/m 0,0 km/h (0 Bft) O-SO 103 0 min 0,000 mm 0,0 UV-I 0 W/m 13,7 C 14,8 C 0,0 km/h (0 Bft) 100,00 %
20.07.2016 05:06 14,8 C 93 % 1017,3 hPa 0,0 l/m 0,0 km/h (0 Bft) O-SO 103 0 min 0,000 mm 0,0 UV-I 0 W/m 13,7 C 14,8 C 0,0 km/h (0 Bft) 100,00 %
20.07.2016 05:08 14,7 C 93 % 1017,4 hPa 0,0 l/m 2,3 km/h (1 Bft) O-SO 103 0 min 0,000 mm 0,0 UV-I 0 W/m 13,6 C 14,7 C 3,2 km/h (1 Bft) 98,00 %
20.07.2016 05:10 14,7 C 93 % 1017,3 hPa 0,0 l/m 2,3 km/h (1 Bft) O-SO 103 0 min 0,000 mm 0,0 UV-I 0 W/m 13,6 C 14,7 C 3,2 km/h (1 Bft) 100,00 %
20.07.2016 05:12 14,7 C 93 % 1017,3 hPa 0,0 l/m 1,6 km/h (1 Bft) O-SO 103 0 min 0,000 mm 0,0 UV-I 0 W/m 13,6 C 14,7 C 3,2 km/h (1 Bft) 100,00 %
20.07.2016 05:14 14,7 C 93 % 1017,4 hPa 0,0 l/m 1,0 km/h (0 Bft) O-SO 103 0 min 0,000 mm 0,0 UV-I 0 W/m 13,6 C 14,7 C 1,6 km/h (1 Bft) 97,87 %
20.07.2016 05:16 14,7 C 93 % 1017,3 hPa 0,0 l/m 1,0 km/h (0 Bft) O-SO 103 0 min 0,000 mm 0,0 UV-I 0 W/m 13,6 C 14,7 C 1,6 km/h (1 Bft) 97,87 %
20.07.2016 05:18 14,7 C 94 % 1017,4 hPa 0,0 l/m 1,2 km/h (1 Bft) O-SO 103 0 min 0,000 mm 0,0 UV-I 0 W/m 13,7 C 14,7 C 1,6 km/h (1 Bft) 100,00 %
20.07.2016 05:20 14,7 C 94 % 1017,3 hPa 0,0 l/m 0,1 km/h (0 Bft) O-SO 103 0 min 0,000 mm 0,0 UV-I 0 W/m 13,7 C 14,7 C 1,6 km/h (1 Bft) 100,00 %
20.07.2016 05:22 14,7 C 94 % 1017,3 hPa 0,0 l/m 0,0 km/h (0 Bft) O-SO 103 0 min 0,000 mm 0,0 UV-I 0 W/m 13,7 C 14,7 C 0,0 km/h (0 Bft) 100,00 %
20.07.2016 05:24 14,7 C 93 % 1017,4 hPa 0,0 l/m 1,2 km/h (1 Bft) O-SO 103 0 min 0,000 mm 0,0 UV-I 4 W/m 13,6 C 14,7 C 3,2 km/h (1 Bft) 97,87 %
20.07.2016 05:26 14,7 C 93 % 1017,3 hPa 0,0 l/m 2,0 km/h (1 Bft) O-SO 103 0 min 0,000 mm 0,0 UV-I 5 W/m 13,6 C 14,7 C 3,2 km/h (1 Bft) 97,87 %
20.07.2016 05:28 14,7 C 94 % 1017,3 hPa 0,0 l/m 1,1 km/h (1 Bft) O-SO 103 0 min 0,000 mm 0,0 UV-I 5 W/m 13,7 C 14,7 C 3,2 km/h (1 Bft) 95,74 %
20.07.2016 05:30 14,7 C 93 % 1017,3 hPa 0,0 l/m 1,1 km/h (1 Bft) O-SO 103 0 min 0,000 mm 0,0 UV-I 5 W/m 13,6 C 14,7 C 3,2 km/h (1 Bft) 100,00 %
20.07.2016 05:32 14,7 C 93 % 1017,3 hPa 0,0 l/m 1,5 km/h (1 Bft) O-SO 103 0 min 0,000 mm 0,0 UV-I 7 W/m 13,6 C 14,7 C 3,2 km/h (1 Bft) 100,00 %
20.07.2016 05:34 14,7 C 93 % 1017,4 hPa 0,0 l/m 2,0 km/h (1 Bft) O-SO 103 0 min 0,000 mm 0,0 UV-I 7 W/m 13,6 C 14,7 C 3,2 km/h (1 Bft) 100,00 %
20.07.2016 05:36 14,7 C 93 % 1017,4 hPa 0,0 l/m 1,8 km/h (1 Bft) O-SO 103 0 min 0,000 mm 0,0 UV-I 7 W/m 13,6 C 14,7 C 3,2 km/h (1 Bft) 97,87 %
20.07.2016 05:38 14,7 C 93 % 1017,4 hPa 0,0 l/m 0,7 km/h (0 Bft) O-SO 103 0 min 0,000 mm 0,0 UV-I 9 W/m 13,6 C 14,7 C 1,6 km/h (1 Bft) 97,87 %
20.07.2016 05:40 14,7 C 93 % 1017,4 hPa 0,0 l/m 0,0 km/h (0 Bft) O-SO 103 0 min 0,000 mm 0,0 UV-I 9 W/m 13,6 C 14,7 C 0,0 km/h (0 Bft) 97,87 %
20.07.2016 05:42 14,8 C 93 % 1017,4 hPa 0,0 l/m 0,3 km/h (0 Bft) O-SO 103 0 min 0,000 mm 0,0 UV-I 11 W/m 13,7 C 14,8 C 1,6 km/h (1 Bft) 93,62 %
20.07.2016 05:44 14,8 C 94 % 1017,4 hPa 0,0 l/m 0,5 km/h (0 Bft) O-SO 103 0 min 0,000 mm 0,0 UV-I 11 W/m 13,8 C 14,8 C 1,6 km/h (1 Bft) 97,87 %
20.07.2016 05:46 14,8 C 93 % 1017,4 hPa 0,0 l/m 0,4 km/h (0 Bft) O-SO 103 0 min 0,000 mm 0,0 UV-I 12 W/m 13,7 C 14,8 C 1,6 km/h (1 Bft) 100,00 %
20.07.2016 05:48 14,8 C 93 % 1017,4 hPa 0,0 l/m 0,5 km/h (0 Bft) O-SO 103 0 min 0,000 mm 0,0 UV-I 12 W/m 13,7 C 14,8 C 1,6 km/h (1 Bft) 100,00 %
20.07.2016 05:50 14,8 C 93 % 1017,4 hPa 0,0 l/m 0,0 km/h (0 Bft) O-SO 103 0 min 0,000 mm 0,0 UV-I 14 W/m 13,7 C 14,8 C 0,0 km/h (0 Bft) 97,22 %
20.07.2016 05:52 14,8 C 94 % 1017,4 hPa 0,0 l/m 0,0 km/h (0 Bft) O-SO 103 0 min 0,000 mm 0,0 UV-I 15 W/m 13,8 C 14,8 C 0,0 km/h (0 Bft) 98,00 %
20.07.2016 05:54 14,8 C 93 % 1017,5 hPa 0,0 l/m 0,0 km/h (0 Bft) O-SO 103 0 min 0,000 mm 0,0 UV-I 16 W/m 13,7 C 14,8 C 0,0 km/h (0 Bft) 97,87 %
20.07.2016 05:56 14,8 C 93 % 1017,5 hPa 0,0 l/m 0,2 km/h (0 Bft) O-SO 103 0 min 0,000 mm 0,0 UV-I 17 W/m 13,7 C 14,8 C 1,6 km/h (1 Bft) 97,87 %
20.07.2016 05:58 14,8 C 93 % 1017,4 hPa 0,0 l/m 0,2 km/h (0 Bft) O-SO 103 0 min 0,000 mm 0,0 UV-I 18 W/m 13,7 C 14,8 C 1,6 km/h (1 Bft) 98,00 %
20.07.2016 06:00 14,8 C 93 % 1017,5 hPa 0,0 l/m 0,0 km/h (0 Bft) O-SO 103 0 min 0,000 mm 0,0 UV-I 19 W/m 13,7 C 14,8 C 0,0 km/h (0 Bft) 95,83 %
20.07.2016 06:02 14,8 C 93 % 1017,5 hPa 0,0 l/m 0,0 km/h (0 Bft) O-SO 103 0 min 0,000 mm 0,0 UV-I 19 W/m 13,7 C 14,8 C 0,0 km/h (0 Bft) 97,87 %
20.07.2016 06:04 14,8 C 94 % 1017,4 hPa 0,0 l/m 0,0 km/h (0 Bft) O-SO 103 0 min 0,000 mm 0,0 UV-I 21 W/m 13,8 C 14,8 C 0,0 km/h (0 Bft) 95,74 %
20.07.2016 06:06 14,8 C 94 % 1017,5 hPa 0,0 l/m 0,0 km/h (0 Bft) O-SO 103 0 min 0,000 mm 0,0 UV-I 21 W/m 13,8 C 14,8 C 0,0 km/h (0 Bft) 97,87 %
20.07.2016 06:08 14,8 C 94 % 1017,5 hPa 0,0 l/m 0,0 km/h (0 Bft) O-SO 103 0 min 0,000 mm 0,0 UV-I 23 W/m 13,8 C 14,8 C 0,0 km/h (0 Bft) 97,87 %
20.07.2016 06:10 14,8 C 94 % 1017,5 hPa 0,0 l/m 0,0 km/h (0 Bft) O-SO 103 0 min 0,000 mm 0,0 UV-I 23 W/m 13,8 C 14,8 C 0,0 km/h (0 Bft) 97,92 %
20.07.2016 06:12 14,8 C 94 % 1017,5 hPa 0,0 l/m 0,0 km/h (0 Bft) O-SO 103 0 min 0,000 mm 0,0 UV-I 24 W/m 13,8 C 14,8 C 0,0 km/h (0 Bft) 97,92 %
20.07.2016 06:14 14,8 C 94 % 1017,5 hPa 0,0 l/m 0,0 km/h (0 Bft) O-SO 103 0 min 0,000 mm 0,0 UV-I 25 W/m 13,8 C 14,8 C 0,0 km/h (0 Bft) 97,87 %
20.07.2016 06:16 14,8 C 94 % 1017,5 hPa 0,0 l/m 0,0 km/h (0 Bft) O-SO 103 0 min 0,000 mm 0,0 UV-I 25 W/m 13,8 C 14,8 C 0,0 km/h (0 Bft) 97,14 %
20.07.2016 06:18 14,8 C 94 % 1017,5 hPa 0,0 l/m 0,0 km/h (0 Bft) O-SO 103 0 min 0,000 mm 0,0 UV-I 26 W/m 13,8 C 14,8 C 0,0 km/h (0 Bft) 98,11 %
20.07.2016 06:20 14,8 C 94 % 1017,5 hPa 0,0 l/m 0,0 km/h (0 Bft) O-SO 103 0 min 0,000 mm 0,0 UV-I 26 W/m 13,8 C 14,8 C 0,0 km/h (0 Bft) 95,74 %
20.07.2016 06:22 14,8 C 94 % 1017,4 hPa 0,0 l/m 0,0 km/h (0 Bft) O-SO 103 0 min 0,000 mm 0,0 UV-I 26 W/m 13,8 C 14,8 C 0,0 km/h (0 Bft) 95,74 %
20.07.2016 06:24 14,9 C 94 % 1017,4 hPa 0,0 l/m 0,0 km/h (0 Bft) O-SO 103 0 min 0,000 mm 0,0 UV-I 28 W/m 13,9 C 14,9 C 0,0 km/h (0 Bft) 100,00 %
20.07.2016 06:26 14,9 C 94 % 1017,4 hPa 0,0 l/m 0,0 km/h (0 Bft) O-SO 103 0 min 0,000 mm 0,0 UV-I 28 W/m 13,9 C 14,9 C 0,0 km/h (0 Bft) 100,00 %
20.07.2016 06:28 15,1 C 94 % 1017,4 hPa 0,0 l/m 0,0 km/h (0 Bft) O-SO 103 0 min 0,000 mm 0,0 UV-I 28 W/m 14,1 C 15,1 C 0,0 km/h (0 Bft) 100,00 %
20.07.2016 06:30 15,2 C 94 % 1017,4 hPa 0,0 l/m 0,0 km/h (0 Bft) O-SO 103 0 min 0,000 mm 0,0 UV-I 30 W/m 14,2 C 15,2 C 0,0 km/h (0 Bft) 100,00 %
20.07.2016 06:32 15,3 C 94 % 1017,4 hPa 0,0 l/m 0,0 km/h (0 Bft) O-SO 103 0 min 0,000 mm 0,0 UV-I 30 W/m 14,3 C 15,3 C 0,0 km/h (0 Bft) 97,87 %
20.07.2016 06:34 15,4 C 93 % 1017,4 hPa 0,0 l/m 0,0 km/h (0 Bft) O-SO 103 0 min 0,000 mm 0,0 UV-I 30 W/m 14,3 C 15,4 C 0,0 km/h (0 Bft) 100,00 %
20.07.2016 06:36 15,5 C 93 % 1017,4 hPa 0,0 l/m 0,0 km/h (0 Bft) O-SO 103 0 min 0,000 mm 0,0 UV-I 32 W/m 14,4 C 15,5 C 0,0 km/h (0 Bft) 100,00 %
20.07.2016 06:38 15,6 C 93 % 1017,4 hPa 0,0 l/m 0,0 km/h (0 Bft) O-SO 103 0 min 0,000 mm 0,0 UV-I 32 W/m 14,5 C 15,6 C 0,0 km/h (0 Bft) 100,00 %
20.07.2016 06:40 15,7 C 93 % 1017,5 hPa 0,0 l/m 0,0 km/h (0 Bft) O-SO 103 0 min 0,000 mm 0,0 UV-I 32 W/m 14,6 C 15,7 C 0,0 km/h (0 Bft) 100,00 %
20.07.2016 06:42 15,7 C 92 % 1017,5 hPa 0,0 l/m 0,0 km/h (0 Bft) O-SO 103 0 min 0,000 mm 0,0 UV-I 33 W/m 14,4 C 15,7 C 0,0 km/h (0 Bft) 100,00 %
20.07.2016 06:44 15,8 C 93 % 1017,4 hPa 0,0 l/m 0,0 km/h (0 Bft) O-SO 103 0 min 0,000 mm 0,0 UV-I 33 W/m 14,7 C 15,8 C 0,0 km/h (0 Bft) 100,00 %
20.07.2016 06:46 15,9 C 92 % 1017,5 hPa 0,0 l/m 0,0 km/h (0 Bft) O-SO 103 0 min 0,000 mm 0,0 UV-I 50 W/m 14,6 C 15,9 C 0,0 km/h (0 Bft) 100,00 %
20.07.2016 06:48 15,9 C 92 % 1017,5 hPa 0,0 l/m 0,0 km/h (0 Bft) O-SO 103 0 min 0,000 mm 0,0 UV-I 98 W/m 14,6 C 15,9 C 0,0 km/h (0 Bft) 100,00 %
20.07.2016 06:50 15,9 C 92 % 1017,5 hPa 0,0 l/m 0,0 km/h (0 Bft) O-SO 103 0 min 0,000 mm 0,0 UV-I 110 W/m 14,6 C 15,9 C 0,0 km/h (0 Bft) 100,00 %
20.07.2016 06:52 16,1 C 92 % 1017,5 hPa 0,0 l/m 0,0 km/h (0 Bft) O-SO 103 0 min 0,000 mm 0,0 UV-I 115 W/m 14,8 C 16,1 C 0,0 km/h (0 Bft) 96,00 %
20.07.2016 06:54 16,2 C 93 % 1017,5 hPa 0,0 l/m 0,0 km/h (0 Bft) O-SO 103 2 min 0,000 mm 0,0 UV-I 119 W/m 15,1 C 16,2 C 0,0 km/h (0 Bft) 100,00 %
20.07.2016 06:56 16,2 C 93 % 1017,5 hPa 0,0 l/m 0,0 km/h (0 Bft) O-SO 103 2 min 0,000 mm 0,0 UV-I 125 W/m 15,1 C 16,2 C 0,0 km/h (0 Bft) 100,00 %
20.07.2016 06:58 16,3 C 93 % 1017,5 hPa 0,0 l/m 0,0 km/h (0 Bft) O-SO 103 2 min 0,000 mm 0,0 UV-I 131 W/m 15,2 C 16,3 C 0,0 km/h (0 Bft) 98,11 %
20.07.2016 07:00 16,4 C 93 % 1017,5 hPa 0,0 l/m 0,1 km/h (0 Bft) O-SO 103 2 min 0,025 mm 0,0 UV-I 136 W/m 15,3 C 16,4 C 1,6 km/h (1 Bft) 100,00 %
20.07.2016 07:02 16,6 C 93 % 1017,6 hPa 0,0 l/m 0,1 km/h (0 Bft) O-SO 103 2 min 0,000 mm 0,0 UV-I 142 W/m 15,5 C 16,6 C 1,6 km/h (1 Bft) 100,00 %
20.07.2016 07:04 16,7 C 92 % 1017,5 hPa 0,0 l/m 0,0 km/h (0 Bft) O-SO 103 2 min 0,000 mm 0,0 UV-I 146 W/m 15,4 C 16,7 C 0,0 km/h (0 Bft) 100,00 %
20.07.2016 07:06 16,8 C 92 % 1017,5 hPa 0,0 l/m 0,0 km/h (0 Bft) O-SO 103 2 min 0,000 mm 0,0 UV-I 152 W/m 15,5 C 16,8 C 1,6 km/h (1 Bft) 97,87 %
20.07.2016 07:08 16,9 C 92 % 1017,5 hPa 0,0 l/m 0,2 km/h (0 Bft) O-SO 103 2 min 0,000 mm 0,0 UV-I 158 W/m 15,6 C 16,9 C 1,6 km/h (1 Bft) 100,00 %
20.07.2016 07:10 16,9 C 91 % 1017,5 hPa 0,0 l/m 0,1 km/h (0 Bft) O 96 2 min 0,000 mm 0,0 UV-I 163 W/m 15,4 C 16,9 C 1,6 km/h (1 Bft) 100,00 %
20.07.2016 07:12 17,1 C 92 % 1017,5 hPa 0,0 l/m 0,2 km/h (0 Bft) O 96 2 min 0,000 mm 0,0 UV-I 170 W/m 15,8 C 17,1 C 1,6 km/h (1 Bft) 100,00 %
20.07.2016 07:14 17,2 C 92 % 1017,5 hPa 0,0 l/m 0,4 km/h (0 Bft) O 96 2 min 0,000 mm 0,0 UV-I 176 W/m 15,9 C 17,2 C 1,6 km/h (1 Bft) 97,87 %
20.07.2016 07:16 17,2 C 91 % 1017,5 hPa 0,0 l/m 0,2 km/h (0 Bft) O 96 2 min 0,000 mm 0,0 UV-I 181 W/m 15,7 C 17,2 C 1,6 km/h (1 Bft) 100,00 %
20.07.2016 07:18 17,3 C 92 % 1017,5 hPa 0,0 l/m 0,2 km/h (0 Bft) O 96 2 min 0,000 mm 0,2 UV-I 188 W/m 16,0 C 17,3 C 1,6 km/h (1 Bft) 95,74 %
20.07.2016 07:20 17,3 C 91 % 1017,5 hPa 0,0 l/m 0,2 km/h (0 Bft) O 96 2 min 0,000 mm 0,5 UV-I 193 W/m 15,8 C 17,3 C 1,6 km/h (1 Bft) 97,87 %
20.07.2016 07:22 17,5 C 91 % 1017,5 hPa 0,0 l/m 0,0 km/h (0 Bft) O 96 2 min 0,000 mm 0,5 UV-I 200 W/m 16,0 C 17,5 C 1,6 km/h (1 Bft) 100,00 %
20.07.2016 07:24 17,6 C 90 % 1017,5 hPa 0,0 l/m 0,2 km/h (0 Bft) O 96 2 min 0,000 mm 0,5 UV-I 205 W/m 15,9 C 17,6 C 1,6 km/h (1 Bft) 100,00 %
20.07.2016 07:26 17,6 C 90 % 1017,5 hPa 0,0 l/m 0,0 km/h (0 Bft) O 96 2 min 0,000 mm 0,5 UV-I 205 W/m 15,9 C 17,6 C 0,0 km/h (0 Bft) 97,92 %
20.07.2016 07:28 17,7 C 89 % 1017,6 hPa 0,0 l/m 0,4 km/h (0 Bft) O 96 2 min 0,000 mm 0,6 UV-I 201 W/m 15,9 C 17,7 C 1,6 km/h (1 Bft) 95,74 %
20.07.2016 07:30 17,8 C 89 % 1017,5 hPa 0,0 l/m 0,6 km/h (0 Bft) O 95 2 min 0,000 mm 0,6 UV-I 198 W/m 16,0 C 17,8 C 3,2 km/h (1 Bft) 100,00 %
20.07.2016 07:32 17,8 C 89 % 1017,5 hPa 0,0 l/m 0,2 km/h (0 Bft) O 95 2 min 0,000 mm 0,6 UV-I 194 W/m 16,0 C 17,8 C 1,6 km/h (1 Bft) 100,00 %
20.07.2016 07:34 17,9 C 89 % 1017,5 hPa 0,0 l/m 0,1 km/h (0 Bft) O 95 2 min 0,000 mm 0,6 UV-I 196 W/m 16,1 C 17,9 C 1,6 km/h (1 Bft) 100,00 %
20.07.2016 07:36 18,0 C 89 % 1017,5 hPa 0,0 l/m 0,2 km/h (0 Bft) O 95 2 min 0,000 mm 0,7 UV-I 201 W/m 16,2 C 18,0 C 1,6 km/h (1 Bft) 97,87 %
20.07.2016 07:38 18,2 C 90 % 1017,5 hPa 0,0 l/m 0,6 km/h (0 Bft) O 95 2 min 0,000 mm 0,7 UV-I 207 W/m 16,5 C 18,2 C 1,6 km/h (1 Bft) 100,00 %
20.07.2016 07:40 18,3 C 90 % 1017,5 hPa 0,0 l/m 0,4 km/h (0 Bft) O 95 2 min 0,000 mm 0,7 UV-I 217 W/m 16,6 C 18,3 C 1,6 km/h (1 Bft) 98,11 %
20.07.2016 07:42 18,3 C 88 % 1017,5 hPa 0,0 l/m 0,5 km/h (0 Bft) O 95 2 min 0,000 mm 0,7 UV-I 233 W/m 16,3 C 18,3 C 1,6 km/h (1 Bft) 97,87 %
20.07.2016 07:44 18,4 C 86 % 1017,5 hPa 0,0 l/m 1,3 km/h (1 Bft) O 95 2 min 0,000 mm 0,8 UV-I 247 W/m 16,0 C 18,4 C 4,8 km/h (1 Bft) 100,00 %
20.07.2016 07:46 18,4 C 87 % 1017,5 hPa 0,0 l/m 1,5 km/h (1 Bft) O 94 2 min 0,000 mm 0,8 UV-I 260 W/m 16,2 C 18,4 C 3,2 km/h (1 Bft) 97,87 %
20.07.2016 07:48 18,5 C 85 % 1017,4 hPa 0,0 l/m 0,9 km/h (0 Bft) O 94 2 min 0,000 mm 0,8 UV-I 268 W/m 15,9 C 18,5 C 3,2 km/h (1 Bft) 100,00 %
20.07.2016 07:50 18,6 C 85 % 1017,5 hPa 0,0 l/m 1,0 km/h (0 Bft) O 94 2 min 0,000 mm 0,9 UV-I 274 W/m 16,0 C 18,6 C 3,2 km/h (1 Bft) 100,00 %
20.07.2016 07:52 18,6 C 85 % 1017,4 hPa 0,0 l/m 0,7 km/h (0 Bft) O 94 2 min 0,000 mm 0,9 UV-I 279 W/m 16,0 C 18,6 C 1,6 km/h (1 Bft) 95,74 %
20.07.2016 07:54 18,7 C 86 % 1017,4 hPa 0,0 l/m 1,7 km/h (1 Bft) O 94 2 min 0,000 mm 0,9 UV-I 286 W/m 16,3 C 18,7 C 3,2 km/h (1 Bft) 100,00 %
20.07.2016 07:56 18,7 C 86 % 1017,4 hPa 0,0 l/m 1,1 km/h (1 Bft) O 94 2 min 0,000 mm 0,9 UV-I 290 W/m 16,3 C 18,7 C 1,6 km/h (1 Bft) 100,00 %
20.07.2016 07:58 18,7 C 85 % 1017,4 hPa 0,0 l/m 1,0 km/h (0 Bft) O 94 2 min 0,000 mm 1,0 UV-I 297 W/m 16,1 C 18,7 C 3,2 km/h (1 Bft) 97,87 %
20.07.2016 08:00 18,8 C 87 % 1017,4 hPa 0,0 l/m 2,5 km/h (1 Bft) O 91 2 min 0,127 mm 1,0 UV-I 302 W/m 16,6 C 18,8 C 4,8 km/h (1 Bft) 97,87 %
20.07.2016 08:02 18,9 C 87 % 1017,3 hPa 0,0 l/m 0,5 km/h (0 Bft) O 91 2 min 0,000 mm 1,0 UV-I 310 W/m 16,7 C 18,9 C 3,2 km/h (1 Bft) 95,74 %
20.07.2016 08:04 19,0 C 86 % 1017,3 hPa 0,0 l/m 0,9 km/h (0 Bft) O 89 2 min 0,000 mm 1,1 UV-I 316 W/m 16,6 C 19,0 C 3,2 km/h (1 Bft) 95,74 %
20.07.2016 08:06 19,1 C 86 % 1017,3 hPa 0,0 l/m 0,3 km/h (0 Bft) O 89 2 min 0,000 mm 1,1 UV-I 323 W/m 16,7 C 19,1 C 1,6 km/h (1 Bft) 97,92 %
20.07.2016 08:08 19,2 C 85 % 1017,3 hPa 0,0 l/m 1,6 km/h (1 Bft) O-NO 65 2 min 0,000 mm 1,1 UV-I 330 W/m 16,6 C 19,2 C 3,2 km/h (1 Bft) 97,87 %
20.07.2016 08:10 19,2 C 86 % 1017,3 hPa 0,0 l/m 4,6 km/h (1 Bft) NO 42 2 min 0,000 mm 1,2 UV-I 337 W/m 16,8 C 19,2 C 8,0 km/h (2 Bft) 97,87 %
20.07.2016 08:12 19,2 C 85 % 1017,2 hPa 0,0 l/m 1,7 km/h (1 Bft) NO 42 2 min 0,000 mm 1,2 UV-I 342 W/m 16,6 C 19,2 C 3,2 km/h (1 Bft) 95,74 %
20.07.2016 08:14 19,3 C 84 % 1017,2 hPa 0,0 l/m 2,4 km/h (1 Bft) NO 40 2 min 0,000 mm 1,2 UV-I 345 W/m 16,5 C 19,3 C 4,8 km/h (1 Bft) 95,74 %
20.07.2016 08:16 19,3 C 84 % 1017,2 hPa 0,0 l/m 0,8 km/h (0 Bft) NO 40 2 min 0,000 mm 1,3 UV-I 350 W/m 16,5 C 19,3 C 3,2 km/h (1 Bft) 97,87 %
20.07.2016 08:18 19,4 C 85 % 1017,3 hPa 0,0 l/m 2,2 km/h (1 Bft) N-NO 26 2 min 0,000 mm 1,3 UV-I 355 W/m 16,8 C 19,4 C 6,4 km/h (2 Bft) 95,74 %
20.07.2016 08:20 19,4 C 84 % 1017,3 hPa 0,0 l/m 1,5 km/h (1 Bft) N-NO 24 2 min 0,000 mm 1,3 UV-I 363 W/m 16,6 C 19,4 C 3,2 km/h (1 Bft) 95,74 %
20.07.2016 08:22 19,6 C 85 % 1017,3 hPa 0,0 l/m 3,2 km/h (1 Bft) N-NO 30 2 min 0,000 mm 1,4 UV-I 368 W/m 17,0 C 19,6 C 9,7 km/h (2 Bft) 97,92 %
20.07.2016 08:24 19,7 C 84 % 1017,3 hPa 0,0 l/m 1,9 km/h (1 Bft) N 360 2 min 0,000 mm 1,4 UV-I 373 W/m 16,9 C 19,7 C 4,8 km/h (1 Bft) 95,74 %
20.07.2016 08:26 19,7 C 83 % 1017,3 hPa 0,0 l/m 4,3 km/h (1 Bft) O-NO 61 2 min 0,000 mm 1,4 UV-I 381 W/m 16,7 C 19,7 C 6,4 km/h (2 Bft) 93,62 %
20.07.2016 08:28 19,6 C 84 % 1017,3 hPa 0,0 l/m 2,0 km/h (1 Bft) NO 47 2 min 0,000 mm 1,5 UV-I 383 W/m 16,8 C 19,6 C 3,2 km/h (1 Bft) 95,74 %
20.07.2016 08:30 19,7 C 83 % 1017,3 hPa 0,0 l/m 0,8 km/h (0 Bft) NO 44 2 min 0,000 mm 1,5 UV-I 387 W/m 16,7 C 19,7 C 1,6 km/h (1 Bft) 98,00 %
20.07.2016 08:32 19,7 C 83 % 1017,3 hPa 0,0 l/m 0,7 km/h (0 Bft) NO 44 2 min 0,000 mm 1,5 UV-I 393 W/m 16,7 C 19,7 C 1,6 km/h (1 Bft) 100,00 %
20.07.2016 08:34 19,8 C 85 % 1017,3 hPa 0,0 l/m 0,8 km/h (0 Bft) N 5 2 min 0,000 mm 1,6 UV-I 401 W/m 17,2 C 19,8 C 3,2 km/h (1 Bft) 98,00 %
20.07.2016 08:36 19,9 C 84 % 1017,3 hPa 0,0 l/m 3,2 km/h (1 Bft) N-NO 22 2 min 0,000 mm 1,6 UV-I 407 W/m 17,1 C 19,9 C 8,0 km/h (2 Bft) 100,00 %
20.07.2016 08:38 20,1 C 82 % 1017,2 hPa 0,0 l/m 4,3 km/h (1 Bft) NO 34 2 min 0,000 mm 1,7 UV-I 414 W/m 16,9 C 20,1 C 8,0 km/h (2 Bft) 97,87 %
20.07.2016 08:40 20,2 C 83 % 1017,3 hPa 0,0 l/m 4,0 km/h (1 Bft) NO 38 2 min 0,000 mm 1,7 UV-I 421 W/m 17,2 C 20,2 C 6,4 km/h (2 Bft) 97,87 %
20.07.2016 08:42 20,3 C 82 % 1017,2 hPa 0,0 l/m 3,4 km/h (1 Bft) NO 36 2 min 0,000 mm 1,8 UV-I 426 W/m 17,1 C 20,3 C 4,8 km/h (1 Bft) 97,92 %
20.07.2016 08:44 20,5 C 82 % 1017,2 hPa 0,0 l/m 5,4 km/h (1 Bft) NO 44 2 min 0,000 mm 1,8 UV-I 431 W/m 17,3 C 20,5 C 9,7 km/h (2 Bft) 100,00 %
20.07.2016 08:46 20,5 C 78 % 1017,2 hPa 0,0 l/m 3,5 km/h (1 Bft) NO 46 2 min 0,000 mm 1,9 UV-I 437 W/m 16,5 C 20,5 C 9,7 km/h (2 Bft) 100,00 %
20.07.2016 08:48 20,6 C 78 % 1017,2 hPa 0,0 l/m 2,0 km/h (1 Bft) NO 43 2 min 0,000 mm 1,9 UV-I 442 W/m 16,6 C 20,6 C 6,4 km/h (2 Bft) 100,00 %
20.07.2016 08:50 20,7 C 79 % 1017,2 hPa 0,0 l/m 5,4 km/h (1 Bft) N-NO 33 2 min 0,000 mm 2,0 UV-I 448 W/m 16,9 C 20,7 C 8,0 km/h (2 Bft) 100,00 %
20.07.2016 08:52 20,7 C 78 % 1017,2 hPa 0,0 l/m 6,8 km/h (2 Bft) NO 34 2 min 0,000 mm 2,0 UV-I 453 W/m 16,7 C 20,5 C 9,7 km/h (2 Bft) 97,87 %
20.07.2016 08:54 20,8 C 79 % 1017,2 hPa 0,0 l/m 4,8 km/h (1 Bft) NO 36 2 min 0,000 mm 2,1 UV-I 455 W/m 17,0 C 20,8 C 8,0 km/h (2 Bft) 100,00 %
20.07.2016 08:56 20,8 C 79 % 1017,2 hPa 0,0 l/m 4,2 km/h (1 Bft) NO 44 2 min 0,000 mm 2,1 UV-I 457 W/m 17,0 C 20,8 C 6,4 km/h (2 Bft) 100,00 %
20.07.2016 08:58 20,9 C 80 % 1017,2 hPa 0,0 l/m 4,9 km/h (1 Bft) NO 44 2 min 0,000 mm 2,2 UV-I 456 W/m 17,3 C 20,9 C 8,0 km/h (2 Bft) 100,00 %
20.07.2016 09:00 21,0 C 79 % 1017,1 hPa 0,0 l/m 4,1 km/h (1 Bft) NO 43 2 min 0,229 mm 2,2 UV-I 455 W/m 17,2 C 21,0 C 8,0 km/h (2 Bft) 100,00 %
20.07.2016 09:02 21,2 C 78 % 1017,1 hPa 0,0 l/m 4,5 km/h (1 Bft) N-NO 33 2 min 0,000 mm 2,2 UV-I 451 W/m 17,2 C 21,2 C 8,0 km/h (2 Bft) 100,00 %
20.07.2016 09:04 21,3 C 78 % 1017,2 hPa 0,0 l/m 6,6 km/h (2 Bft) O-NO 60 2 min 0,000 mm 2,3 UV-I 445 W/m 17,3 C 21,2 C 11,3 km/h (2 Bft) 100,00 %
20.07.2016 09:06 21,2 C 77 % 1017,2 hPa 0,0 l/m 5,2 km/h (1 Bft) NO 37 2 min 0,000 mm 2,3 UV-I 439 W/m 17,0 C 21,2 C 8,0 km/h (2 Bft) 100,00 %
20.07.2016 09:08 21,1 C 77 % 1017,2 hPa 0,0 l/m 5,4 km/h (1 Bft) NO 50 2 min 0,000 mm 2,4 UV-I 434 W/m 16,9 C 21,1 C 8,0 km/h (2 Bft) 97,87 %
20.07.2016 09:10 21,1 C 75 % 1017,2 hPa 0,0 l/m 4,5 km/h (1 Bft) NO 45 2 min 0,000 mm 2,4 UV-I 427 W/m 16,5 C 21,1 C 6,4 km/h (2 Bft) 97,87 %
20.07.2016 09:12 21,2 C 78 % 1017,1 hPa 0,0 l/m 5,0 km/h (1 Bft) N-NO 17 2 min 0,000 mm 2,5 UV-I 424 W/m 17,2 C 21,2 C 8,0 km/h (2 Bft) 100,00 %
20.07.2016 09:14 21,3 C 76 % 1017,1 hPa 0,0 l/m 3,5 km/h (1 Bft) N 9 2 min 0,000 mm 2,5 UV-I 421 W/m 16,9 C 21,3 C 8,0 km/h (2 Bft) 97,87 %
20.07.2016 09:16 21,4 C 77 % 1017,1 hPa 0,0 l/m 1,6 km/h (1 Bft) NO 34 2 min 0,000 mm 2,6 UV-I 417 W/m 17,2 C 21,4 C 4,8 km/h (1 Bft) 98,00 %
20.07.2016 09:18 21,5 C 75 % 1017,1 hPa 0,0 l/m 4,7 km/h (1 Bft) O-NO 62 2 min 0,000 mm 2,6 UV-I 415 W/m 16,9 C 21,5 C 8,0 km/h (2 Bft) 100,00 %
20.07.2016 09:20 21,4 C 75 % 1017,1 hPa 0,0 l/m 2,3 km/h (1 Bft) NO 55 2 min 0,000 mm 2,7 UV-I 416 W/m 16,8 C 21,4 C 4,8 km/h (1 Bft) 97,87 %
20.07.2016 09:22 21,4 C 76 % 1017,1 hPa 0,0 l/m 4,1 km/h (1 Bft) NO 36 2 min 0,000 mm 2,7 UV-I 419 W/m 17,0 C 21,4 C 8,0 km/h (2 Bft) 100,00 %
20.07.2016 09:24 21,6 C 75 % 1017,1 hPa 0,0 l/m 6,1 km/h (2 Bft) O 90 2 min 0,000 mm 2,8 UV-I 424 W/m 17,0 C 21,6 C 12,9 km/h (3 Bft) 98,00 %
20.07.2016 09:26 21,5 C 74 % 1017,1 hPa 0,0 l/m 5,2 km/h (1 Bft) O-NO 57 2 min 0,000 mm 2,8 UV-I 432 W/m 16,7 C 21,5 C 9,7 km/h (2 Bft) 100,00 %
20.07.2016 09:28 21,6 C 74 % 1017,1 hPa 0,0 l/m 5,6 km/h (1 Bft) O-NO 72 2 min 0,000 mm 2,9 UV-I 442 W/m 16,8 C 21,6 C 8,0 km/h (2 Bft) 100,00 %
20.07.2016 09:30 21,6 C 75 % 1017,1 hPa 0,0 l/m 2,7 km/h (1 Bft) N-NO 25 2 min 0,000 mm 2,9 UV-I 456 W/m 17,0 C 21,6 C 8,0 km/h (2 Bft) 100,00 %
20.07.2016 09:32 21,8 C 76 % 1017,1 hPa 0,0 l/m 6,4 km/h (2 Bft) NO 52 2 min 0,000 mm 3,0 UV-I 470 W/m 17,4 C 21,8 C 14,5 km/h (3 Bft) 98,00 %
20.07.2016 09:34 21,8 C 74 % 1017,1 hPa 0,0 l/m 5,9 km/h (2 Bft) NO 44 2 min 0,000 mm 3,1 UV-I 487 W/m 17,0 C 21,8 C 9,7 km/h (2 Bft) 100,00 %
20.07.2016 09:36 21,9 C 73 % 1017,1 hPa 0,0 l/m 5,5 km/h (1 Bft) NO 47 2 min 0,000 mm 3,1 UV-I 502 W/m 16,8 C 21,9 C 8,0 km/h (2 Bft) 100,00 %
20.07.2016 09:38 22,0 C 73 % 1017,1 hPa 0,0 l/m 3,8 km/h (1 Bft) NO 46 2 min 0,000 mm 3,1 UV-I 522 W/m 16,9 C 22,0 C 6,4 km/h (2 Bft) 95,74 %
20.07.2016 09:40 22,0 C 73 % 1017,0 hPa 0,0 l/m 4,6 km/h (1 Bft) O-NO 67 2 min 0,000 mm 3,2 UV-I 538 W/m 16,9 C 22,0 C 9,7 km/h (2 Bft) 97,87 %
20.07.2016 09:42 22,1 C 73 % 1017,1 hPa 0,0 l/m 7,2 km/h (2 Bft) O 79 2 min 0,000 mm 3,3 UV-I 556 W/m 17,0 C 21,8 C 11,3 km/h (2 Bft) 100,00 %
20.07.2016 09:44 22,0 C 72 % 1017,1 hPa 0,0 l/m 4,7 km/h (1 Bft) O-NO 76 2 min 0,000 mm 3,3 UV-I 571 W/m 16,7 C 22,0 C 9,7 km/h (2 Bft) 100,00 %
20.07.2016 09:46 21,9 C 74 % 1017,1 hPa 0,0 l/m 5,0 km/h (1 Bft) NO 36 2 min 0,000 mm 3,3 UV-I 583 W/m 17,0 C 21,9 C 8,0 km/h (2 Bft) 97,87 %
20.07.2016 09:48 22,0 C 73 % 1017,1 hPa 0,0 l/m 5,0 km/h (1 Bft) NO 43 2 min 0,000 mm 3,4 UV-I 593 W/m 16,9 C 22,0 C 9,7 km/h (2 Bft) 100,00 %
20.07.2016 09:50 22,2 C 73 % 1017,1 hPa 0,0 l/m 6,6 km/h (2 Bft) N-NO 33 2 min 0,000 mm 3,5 UV-I 602 W/m 17,1 C 22,1 C 11,3 km/h (2 Bft) 100,00 %
20.07.2016 09:52 22,3 C 73 % 1017,1 hPa 0,0 l/m 6,5 km/h (2 Bft) O-NO 64 2 min 0,000 mm 3,5 UV-I 608 W/m 17,2 C 22,3 C 11,3 km/h (2 Bft) 100,00 %
20.07.2016 09:54 22,3 C 72 % 1017,0 hPa 0,0 l/m 7,2 km/h (2 Bft) NO 38 2 min 0,000 mm 3,6 UV-I 612 W/m 17,0 C 22,0 C 11,3 km/h (2 Bft) 97,87 %
20.07.2016 09:56 22,3 C 73 % 1017,0 hPa 0,0 l/m 6,0 km/h (2 Bft) N-NO 30 2 min 0,000 mm 3,6 UV-I 616 W/m 17,2 C 22,3 C 11,3 km/h (2 Bft) 97,87 %
20.07.2016 09:58 22,6 C 73 % 1017,1 hPa 0,0 l/m 5,5 km/h (1 Bft) NO 35 2 min 0,000 mm 3,7 UV-I 620 W/m 17,5 C 22,6 C 9,7 km/h (2 Bft) 97,87 %
20.07.2016 10:00 22,6 C 72 % 1017,0 hPa 0,0 l/m 2,9 km/h (1 Bft) N-NO 15 2 min 0,305 mm 3,8 UV-I 625 W/m 17,3 C 22,6 C 6,4 km/h (2 Bft) 97,87 %
20.07.2016 10:02 22,7 C 71 % 1017,0 hPa 0,0 l/m 3,3 km/h (1 Bft) NO 46 2 min 0,000 mm 3,8 UV-I 631 W/m 17,2 C 22,7 C 6,4 km/h (2 Bft) 94,44 %
20.07.2016 10:04 22,8 C 73 % 1017,0 hPa 0,0 l/m 3,8 km/h (1 Bft) NO 51 2 min 0,000 mm 3,9 UV-I 635 W/m 17,7 C 22,8 C 8,0 km/h (2 Bft) 98,00 %
20.07.2016 10:06 22,9 C 72 % 1017,0 hPa 0,0 l/m 5,6 km/h (1 Bft) NO 40 2 min 0,000 mm 3,9 UV-I 639 W/m 17,6 C 22,9 C 9,7 km/h (2 Bft) 93,62 %
20.07.2016 10:08 22,9 C 70 % 1017,0 hPa 0,0 l/m 5,0 km/h (1 Bft) NO 42 2 min 0,000 mm 4,0 UV-I 644 W/m 17,1 C 22,9 C 9,7 km/h (2 Bft) 95,74 %
20.07.2016 10:10 23,0 C 71 % 1017,0 hPa 0,0 l/m 8,2 km/h (2 Bft) NO 39 2 min 0,000 mm 4,0 UV-I 648 W/m 17,4 C 22,4 C 12,9 km/h (3 Bft) 97,87 %
20.07.2016 10:12 23,0 C 70 % 1017,0 hPa 0,0 l/m 5,5 km/h (1 Bft) N-NO 25 2 min 0,000 mm 4,1 UV-I 652 W/m 17,2 C 23,0 C 9,7 km/h (2 Bft) 97,87 %
20.07.2016 10:14 22,9 C 71 % 1016,9 hPa 0,0 l/m 3,3 km/h (1 Bft) NO 34 2 min 0,000 mm 4,2 UV-I 656 W/m 17,4 C 22,9 C 6,4 km/h (2 Bft) 94,00 %
20.07.2016 10:16 22,9 C 72 % 1016,9 hPa 0,0 l/m 4,4 km/h (1 Bft) NO 42 2 min 0,000 mm 4,2 UV-I 661 W/m 17,6 C 22,9 C 6,4 km/h (2 Bft) 98,00 %
20.07.2016 10:18 23,1 C 72 % 1016,9 hPa 0,0 l/m 7,5 km/h (2 Bft) O-NO 67 2 min 0,000 mm 4,3 UV-I 664 W/m 17,8 C 22,8 C 12,9 km/h (3 Bft) 97,87 %
20.07.2016 10:20 23,3 C 71 % 1017,0 hPa 0,0 l/m 8,4 km/h (2 Bft) O-NO 61 2 min 0,000 mm 4,3 UV-I 668 W/m 17,7 C 22,7 C 14,5 km/h (3 Bft) 93,62 %
20.07.2016 10:22 23,3 C 71 % 1016,9 hPa 0,0 l/m 7,3 km/h (2 Bft) NO 46 2 min 0,000 mm 4,4 UV-I 673 W/m 17,7 C 23,0 C 12,9 km/h (3 Bft) 100,00 %
20.07.2016 10:24 23,1 C 70 % 1017,0 hPa 0,0 l/m 2,0 km/h (1 Bft) SO 130 2 min 0,000 mm 4,4 UV-I 679 W/m 17,3 C 23,1 C 6,4 km/h (2 Bft) 94,00 %
20.07.2016 10:26 23,1 C 72 % 1016,9 hPa 0,0 l/m 4,6 km/h (1 Bft) O-NO 66 2 min 0,000 mm 4,5 UV-I 682 W/m 17,8 C 23,1 C 8,0 km/h (2 Bft) 97,87 %
20.07.2016 10:28 23,1 C 72 % 1016,9 hPa 0,0 l/m 5,6 km/h (1 Bft) N-NO 32 2 min 0,000 mm 4,5 UV-I 684 W/m 17,8 C 23,1 C 9,7 km/h (2 Bft) 98,00 %
20.07.2016 10:30 23,4 C 71 % 1016,9 hPa 0,0 l/m 7,7 km/h (2 Bft) N-NO 17 2 min 0,000 mm 4,6 UV-I 689 W/m 17,8 C 23,0 C 12,9 km/h (3 Bft) 100,00 %
20.07.2016 10:32 23,5 C 70 % 1016,9 hPa 0,0 l/m 6,4 km/h (2 Bft) O-NO 71 2 min 0,000 mm 4,7 UV-I 694 W/m 17,7 C 23,5 C 12,9 km/h (3 Bft) 97,87 %
20.07.2016 10:34 23,5 C 70 % 1016,8 hPa 0,0 l/m 8,1 km/h (2 Bft) N-NO 17 2 min 0,000 mm 4,7 UV-I 700 W/m 17,7 C 23,0 C 14,5 km/h (3 Bft) 97,87 %
20.07.2016 10:36 23,6 C 70 % 1016,8 hPa 0,0 l/m 3,8 km/h (1 Bft) N-NO 22 2 min 0,000 mm 4,8 UV-I 704 W/m 17,8 C 23,6 C 6,4 km/h (2 Bft) 100,00 %
20.07.2016 10:38 23,5 C 68 % 1016,8 hPa 0,0 l/m 3,7 km/h (1 Bft) NO 47 2 min 0,000 mm 4,9 UV-I 708 W/m 17,2 C 23,5 C 8,0 km/h (2 Bft) 100,00 %
20.07.2016 10:40 23,6 C 72 % 1016,7 hPa 0,0 l/m 4,2 km/h (1 Bft) N-NO 21 2 min 0,000 mm 4,9 UV-I 711 W/m 18,2 C 23,6 C 11,3 km/h (2 Bft) 100,00 %
20.07.2016 10:42 23,8 C 69 % 1016,7 hPa 0,0 l/m 5,6 km/h (1 Bft) N 9 2 min 0,000 mm 4,9 UV-I 715 W/m 17,8 C 23,8 C 9,7 km/h (2 Bft) 100,00 %
20.07.2016 10:44 23,9 C 68 % 1016,8 hPa 0,0 l/m 5,5 km/h (1 Bft) O-NO 76 2 min 0,000 mm 5,0 UV-I 719 W/m 17,6 C 23,9 C 8,0 km/h (2 Bft) 100,00 %
20.07.2016 10:46 24,0 C 68 % 1016,7 hPa 0,0 l/m 7,0 km/h (2 Bft) NO 41 2 min 0,000 mm 5,1 UV-I 723 W/m 17,7 C 23,8 C 9,7 km/h (2 Bft) 100,00 %
20.07.2016 10:48 24,1 C 65 % 1016,7 hPa 0,0 l/m 5,6 km/h (1 Bft) O 83 2 min 0,000 mm 5,1 UV-I 726 W/m 17,1 C 24,1 C 9,7 km/h (2 Bft) 95,74 %
20.07.2016 10:50 24,0 C 68 % 1016,7 hPa 0,0 l/m 4,4 km/h (1 Bft) NO 34 2 min 0,000 mm 5,2 UV-I 730 W/m 17,7 C 24,0 C 9,7 km/h (2 Bft) 97,87 %
20.07.2016 10:52 24,2 C 68 % 1016,7 hPa 0,0 l/m 8,0 km/h (2 Bft) N-NO 32 2 min 0,000 mm 5,2 UV-I 735 W/m 17,9 C 23,8 C 12,9 km/h (3 Bft) 100,00 %
20.07.2016 10:54 24,3 C 67 % 1016,7 hPa 0,0 l/m 9,4 km/h (2 Bft) NO 43 2 min 0,000 mm 5,3 UV-I 738 W/m 17,8 C 23,5 C 14,5 km/h (3 Bft) 100,00 %
20.07.2016 10:56 24,3 C 67 % 1016,6 hPa 0,0 l/m 2,2 km/h (1 Bft) N-NO 16 2 min 0,000 mm 5,3 UV-I 741 W/m 17,8 C 24,3 C 6,4 km/h (2 Bft) 100,00 %
20.07.2016 10:58 24,5 C 66 % 1016,6 hPa 0,0 l/m 4,7 km/h (1 Bft) NO 35 2 min 0,000 mm 5,4 UV-I 744 W/m 17,7 C 24,5 C 9,7 km/h (2 Bft) 95,74 %
20.07.2016 11:00 24,5 C 65 % 1016,7 hPa 0,0 l/m 8,6 km/h (2 Bft) O 79 2 min 0,457 mm 5,4 UV-I 747 W/m 17,5 C 23,9 C 14,5 km/h (3 Bft) 95,74 %
20.07.2016 11:02 24,3 C 65 % 1016,6 hPa 0,0 l/m 6,7 km/h (2 Bft) O-SO 121 2 min 0,000 mm 5,5 UV-I 749 W/m 17,3 C 24,2 C 9,7 km/h (2 Bft) 100,00 %
20.07.2016 11:04 24,2 C 66 % 1016,6 hPa 0,0 l/m 6,3 km/h (2 Bft) O-NO 65 2 min 0,000 mm 5,5 UV-I 754 W/m 17,4 C 24,2 C 11,3 km/h (2 Bft) 97,87 %
20.07.2016 11:06 24,1 C 66 % 1016,7 hPa 0,0 l/m 2,3 km/h (1 Bft) O 82 2 min 0,000 mm 5,5 UV-I 758 W/m 17,3 C 24,1 C 8,0 km/h (2 Bft) 97,87 %
20.07.2016 11:08 24,2 C 66 % 1016,6 hPa 0,0 l/m 4,6 km/h (1 Bft) NO 55 2 min 0,000 mm 5,6 UV-I 759 W/m 17,4 C 24,2 C 11,3 km/h (2 Bft) 100,00 %
20.07.2016 11:10 24,3 C 64 % 1016,6 hPa 0,0 l/m 4,2 km/h (1 Bft) NO 47 2 min 0,000 mm 5,6 UV-I 761 W/m 17,0 C 24,3 C 9,7 km/h (2 Bft) 93,62 %
20.07.2016 11:12 24,4 C 64 % 1016,6 hPa 0,0 l/m 7,8 km/h (2 Bft) O-NO 78 2 min 0,000 mm 5,7 UV-I 765 W/m 17,1 C 24,0 C 14,5 km/h (3 Bft) 100,00 %
20.07.2016 11:14 24,4 C 64 % 1016,6 hPa 0,0 l/m 7,0 km/h (2 Bft) O-NO 78 2 min 0,000 mm 5,8 UV-I 771 W/m 17,1 C 24,2 C 12,9 km/h (3 Bft) 100,00 %
20.07.2016 11:16 24,4 C 65 % 1016,6 hPa 0,0 l/m 6,8 km/h (2 Bft) NO 48 2 min 0,000 mm 5,8 UV-I 777 W/m 17,4 C 24,3 C 12,9 km/h (3 Bft) 100,00 %
20.07.2016 11:18 24,6 C 65 % 1016,6 hPa 0,0 l/m 8,5 km/h (2 Bft) O-NO 61 2 min 0,000 mm 5,8 UV-I 776 W/m 17,6 C 24,1 C 12,9 km/h (3 Bft) 100,00 %
20.07.2016 11:20 24,8 C 63 % 1016,6 hPa 0,0 l/m 10,4 km/h (2 Bft) O-NO 69 2 min 0,000 mm 5,9 UV-I 780 W/m 17,3 C 23,9 C 16,1 km/h (3 Bft) 100,00 %
20.07.2016 11:22 24,8 C 64 % 1016,6 hPa 0,0 l/m 6,5 km/h (2 Bft) NO 42 2 min 0,000 mm 5,9 UV-I 781 W/m 17,5 C 24,8 C 11,3 km/h (2 Bft) 100,00 %
20.07.2016 11:24 24,9 C 65 % 1016,6 hPa 0,0 l/m 4,5 km/h (1 Bft) O-NO 61 2 min 0,000 mm 6,0 UV-I 785 W/m 17,9 C 24,9 C 14,5 km/h (3 Bft) 100,00 %
20.07.2016 11:26 25,2 C 61 % 1016,6 hPa 0,0 l/m 7,5 km/h (2 Bft) O 82 2 min 0,000 mm 6,1 UV-I 789 W/m 17,1 C 24,9 C 16,1 km/h (3 Bft) 100,00 %
20.07.2016 11:28 25,1 C 63 % 1016,6 hPa 0,0 l/m 4,8 km/h (1 Bft) O-NO 58 2 min 0,000 mm 6,1 UV-I 792 W/m 17,5 C 25,1 C 11,3 km/h (2 Bft) 100,00 %
20.07.2016 11:30 25,1 C 61 % 1016,5 hPa 0,0 l/m 3,7 km/h (1 Bft) N-NO 19 2 min 0,000 mm 6,1 UV-I 793 W/m 17,0 C 25,1 C 8,0 km/h (2 Bft) 100,00 %
20.07.2016 11:32 25,2 C 61 % 1016,5 hPa 0,0 l/m 9,0 km/h (2 Bft) NO 36 2 min 0,000 mm 6,1 UV-I 794 W/m 17,1 C 24,6 C 14,5 km/h (3 Bft) 100,00 %
20.07.2016 11:34 25,3 C 62 % 1016,5 hPa 0,0 l/m 6,4 km/h (2 Bft) N-NO 27 2 min 0,000 mm 6,2 UV-I 800 W/m 17,5 C 25,3 C 14,5 km/h (3 Bft) 100,00 %
20.07.2016 11:36 25,5 C 58 % 1016,5 hPa 0,0 l/m 4,6 km/h (1 Bft) NO 46 2 min 0,000 mm 6,3 UV-I 803 W/m 16,6 C 25,5 C 8,0 km/h (2 Bft) 100,00 %
20.07.2016 11:38 25,5 C 62 % 1016,6 hPa 0,0 l/m 7,1 km/h (2 Bft) O 98 2 min 0,000 mm 6,3 UV-I 806 W/m 17,7 C 25,3 C 11,3 km/h (2 Bft) 95,74 %
20.07.2016 11:40 25,6 C 61 % 1016,5 hPa 0,0 l/m 7,5 km/h (2 Bft) NO 51 2 min 0,000 mm 6,3 UV-I 805 W/m 17,5 C 25,3 C 11,3 km/h (2 Bft) 100,00 %
20.07.2016 11:42 25,6 C 60 % 1016,5 hPa 0,0 l/m 8,8 km/h (2 Bft) O-NO 60 2 min 0,000 mm 5,8 UV-I 803 W/m 17,2 C 25,1 C 12,9 km/h (3 Bft) 100,00 %
20.07.2016 11:44 25,6 C 58 % 1016,5 hPa 0,0 l/m 8,3 km/h (2 Bft) O-NO 66 2 min 0,000 mm 6,3 UV-I 813 W/m 16,7 C 25,2 C 14,5 km/h (3 Bft) 100,00 %
20.07.2016 11:46 25,4 C 56 % 1016,5 hPa 0,0 l/m 3,3 km/h (1 Bft) O-NO 60 2 min 0,000 mm 6,5 UV-I 817 W/m 16,0 C 25,4 C 6,4 km/h (2 Bft) 100,00 %
20.07.2016 11:48 25,7 C 59 % 1016,5 hPa 0,0 l/m 9,3 km/h (2 Bft) NO 39 2 min 0,000 mm 6,6 UV-I 819 W/m 17,1 C 25,1 C 16,1 km/h (3 Bft) 100,00 %
20.07.2016 11:50 25,7 C 59 % 1016,5 hPa 0,0 l/m 5,9 km/h (2 Bft) O-NO 71 2 min 0,000 mm 6,5 UV-I 819 W/m 17,1 C 25,7 C 11,3 km/h (2 Bft) 95,74 %
20.07.2016 11:52 25,6 C 58 % 1016,5 hPa 0,0 l/m 5,4 km/h (1 Bft) O 82 2 min 0,000 mm 6,6 UV-I 820 W/m 16,7 C 25,6 C 8,0 km/h (2 Bft) 95,74 %
20.07.2016 11:54 25,6 C 61 % 1016,5 hPa 0,0 l/m 6,0 km/h (2 Bft) N-NO 30 2 min 0,000 mm 6,6 UV-I 821 W/m 17,5 C 25,6 C 11,3 km/h (2 Bft) 97,87 %
20.07.2016 11:56 25,8 C 56 % 1016,4 hPa 0,0 l/m 6,6 km/h (2 Bft) N 11 2 min 0,000 mm 6,7 UV-I 825 W/m 16,3 C 25,8 C 14,5 km/h (3 Bft) 97,87 %
20.07.2016 11:58 25,9 C 59 % 1016,4 hPa 0,0 l/m 6,6 km/h (2 Bft) NO 46 2 min 0,000 mm 6,7 UV-I 829 W/m 17,3 C 25,9 C 14,5 km/h (3 Bft) 97,92 %
20.07.2016 12:00 26,1 C 55 % 1016,4 hPa 0,0 l/m 11,2 km/h (2 Bft) NO 44 2 min 0,000 mm 6,7 UV-I 831 W/m 16,3 C 25,2 C 14,5 km/h (3 Bft) 97,87 %
20.07.2016 12:02 26,2 C 56 % 1016,4 hPa 0,0 l/m 6,9 km/h (2 Bft) NO 35 2 min 0,533 mm 6,8 UV-I 832 W/m 16,7 C 26,1 C 14,5 km/h (3 Bft) 94,34 %
20.07.2016 12:04 26,3 C 54 % 1016,5 hPa 0,0 l/m 8,9 km/h (2 Bft) O-NO 75 2 min 0,000 mm 6,8 UV-I 833 W/m 16,2 C 25,8 C 14,5 km/h (3 Bft) 95,74 %
20.07.2016 12:06 26,2 C 54 % 1016,4 hPa 0,0 l/m 7,9 km/h (2 Bft) O-NO 77 2 min 0,000 mm 6,8 UV-I 836 W/m 16,1 C 25,9 C 16,1 km/h (3 Bft) 93,62 %
20.07.2016 12:08 26,1 C 53 % 1016,5 hPa 0,0 l/m 11,9 km/h (2 Bft) O-NO 78 2 min 0,000 mm 6,8 UV-I 838 W/m 15,8 C 25,1 C 20,9 km/h (4 Bft) 97,87 %
20.07.2016 12:10 25,9 C 53 % 1016,4 hPa 0,0 l/m 9,0 km/h (2 Bft) O-NO 70 2 min 0,000 mm 6,9 UV-I 842 W/m 15,6 C 25,3 C 12,9 km/h (3 Bft) 94,29 %
20.07.2016 12:12 25,9 C 56 % 1016,4 hPa 0,0 l/m 5,6 km/h (1 Bft) O 86 2 min 0,000 mm 6,9 UV-I 845 W/m 16,4 C 25,9 C 11,3 km/h (2 Bft) 98,00 %
20.07.2016 12:14 25,7 C 53 % 1016,3 hPa 0,0 l/m 3,8 km/h (1 Bft) W 275 2 min 0,000 mm 6,9 UV-I 844 W/m 15,4 C 25,7 C 6,4 km/h (2 Bft) 97,87 %
20.07.2016 12:16 25,7 C 54 % 1016,3 hPa 0,0 l/m 4,7 km/h (1 Bft) S-SO 156 2 min 0,000 mm 6,9 UV-I 842 W/m 15,7 C 25,7 C 9,7 km/h (2 Bft) 95,74 %
20.07.2016 12:18 26,1 C 63 % 1016,4 hPa 0,0 l/m 4,7 km/h (1 Bft) O-NO 76 2 min 0,000 mm 6,9 UV-I 842 W/m 18,5 C 26,1 C 12,9 km/h (3 Bft) 97,87 %
20.07.2016 12:20 26,2 C 54 % 1016,4 hPa 0,0 l/m 9,3 km/h (2 Bft) O-NO 73 2 min 0,000 mm 7,0 UV-I 846 W/m 16,1 C 25,6 C 14,5 km/h (3 Bft) 97,87 %
20.07.2016 12:22 26,3 C 58 % 1016,3 hPa 0,0 l/m 7,5 km/h (2 Bft) NO 41 2 min 0,000 mm 7,0 UV-I 847 W/m 17,4 C 26,1 C 12,9 km/h (3 Bft) 95,74 %
20.07.2016 12:24 26,6 C 56 % 1016,3 hPa 0,0 l/m 7,3 km/h (2 Bft) NO 43 2 min 0,000 mm 7,1 UV-I 851 W/m 17,1 C 26,4 C 14,5 km/h (3 Bft) 100,00 %
20.07.2016 12:26 26,4 C 54 % 1016,3 hPa 0,0 l/m 3,3 km/h (1 Bft) NO 38 2 min 0,000 mm 7,1 UV-I 853 W/m 16,3 C 26,4 C 6,4 km/h (2 Bft) 97,87 %
20.07.2016 12:28 26,4 C 57 % 1016,3 hPa 0,0 l/m 4,4 km/h (1 Bft) N-NO 24 2 min 0,000 mm 7,1 UV-I 853 W/m 17,2 C 26,4 C 12,9 km/h (3 Bft) 100,00 %
20.07.2016 12:30 26,7 C 55 % 1016,3 hPa 0,0 l/m 8,6 km/h (2 Bft) NO 46 2 min 0,000 mm 7,1 UV-I 853 W/m 16,9 C 26,3 C 14,5 km/h (3 Bft) 97,87 %
20.07.2016 12:32 26,7 C 55 % 1016,2 hPa 0,0 l/m 6,5 km/h (2 Bft) NO 50 2 min 0,000 mm 7,1 UV-I 852 W/m 16,9 C 26,7 C 12,9 km/h (3 Bft) 97,87 %
20.07.2016 12:34 26,5 C 55 % 1016,2 hPa 0,0 l/m 4,6 km/h (1 Bft) O-NO 59 2 min 0,000 mm 7,1 UV-I 851 W/m 16,7 C 26,5 C 14,5 km/h (3 Bft) 98,00 %
20.07.2016 12:36 26,4 C 56 % 1016,3 hPa 0,0 l/m 4,2 km/h (1 Bft) SO 139 2 min 0,000 mm 7,1 UV-I 852 W/m 16,9 C 26,4 C 12,9 km/h (3 Bft) 97,87 %
20.07.2016 12:38 26,6 C 52 % 1016,3 hPa 0,0 l/m 9,5 km/h (2 Bft) NO 52 2 min 0,000 mm 7,2 UV-I 856 W/m 15,9 C 26,0 C 17,7 km/h (3 Bft) 97,87 %
20.07.2016 12:40 26,6 C 53 % 1016,3 hPa 0,0 l/m 7,9 km/h (2 Bft) NO 47 2 min 0,000 mm 7,2 UV-I 862 W/m 16,2 C 26,3 C 11,3 km/h (2 Bft) 100,00 %
20.07.2016 12:42 26,5 C 54 % 1016,3 hPa 0,0 l/m 7,3 km/h (2 Bft) NO 53 2 min 0,000 mm 7,3 UV-I 867 W/m 16,4 C 26,3 C 12,9 km/h (3 Bft) 97,87 %
20.07.2016 12:44 26,5 C 52 % 1016,3 hPa 0,0 l/m 4,5 km/h (1 Bft) O-NO 61 2 min 0,000 mm 7,3 UV-I 868 W/m 15,8 C 26,5 C 6,4 km/h (2 Bft) 100,00 %
20.07.2016 12:46 26,7 C 53 % 1016,3 hPa 0,0 l/m 5,4 km/h (1 Bft) SO 130 2 min 0,000 mm 7,3 UV-I 868 W/m 16,3 C 26,7 C 9,7 km/h (2 Bft) 95,74 %
20.07.2016 12:48 26,7 C 50 % 1016,3 hPa 0,0 l/m 4,3 km/h (1 Bft) S-SO 150 2 min 0,000 mm 7,4 UV-I 872 W/m 15,4 C 26,7 C 6,4 km/h (2 Bft) 100,00 %
20.07.2016 12:50 26,6 C 50 % 1016,2 hPa 0,0 l/m 2,6 km/h (1 Bft) S 172 2 min 0,000 mm 7,4 UV-I 876 W/m 15,3 C 26,6 C 6,4 km/h (2 Bft) 100,00 %
20.07.2016 12:52 26,4 C 49 % 1016,3 hPa 0,0 l/m 3,7 km/h (1 Bft) S 176 2 min 0,000 mm 7,4 UV-I 870 W/m 14,8 C 26,4 C 8,0 km/h (2 Bft) 97,87 %
20.07.2016 12:54 26,3 C 49 % 1016,2 hPa 0,0 l/m 3,0 km/h (1 Bft) S-SO 163 2 min 0,000 mm 7,3 UV-I 866 W/m 14,7 C 26,3 C 8,0 km/h (2 Bft) 100,00 %
20.07.2016 12:56 26,1 C 50 % 1016,2 hPa 0,0 l/m 2,0 km/h (1 Bft) S-SO 163 2 min 0,000 mm 7,2 UV-I 860 W/m 14,8 C 26,1 C 3,2 km/h (1 Bft) 97,87 %
20.07.2016 12:58 26,3 C 57 % 1016,2 hPa 0,0 l/m 4,7 km/h (1 Bft) O-NO 74 2 min 0,000 mm 7,3 UV-I 863 W/m 17,1 C 26,3 C 11,3 km/h (2 Bft) 100,00 %
20.07.2016 13:00 26,6 C 54 % 1016,2 hPa 0,0 l/m 6,9 km/h (2 Bft) SO 135 2 min 0,585 mm 7,4 UV-I 867 W/m 16,5 C 26,5 C 12,9 km/h (3 Bft) 97,87 %
20.07.2016 13:02 26,7 C 54 % 1016,1 hPa 0,0 l/m 6,0 km/h (2 Bft) NO 42 2 min 0,000 mm 7,4 UV-I 869 W/m 16,6 C 26,7 C 11,3 km/h (2 Bft) 97,37 %
20.07.2016 13:04 26,9 C 53 % 1016,1 hPa 0,0 l/m 6,2 km/h (2 Bft) O-NO 76 2 min 0,000 mm 7,3 UV-I 864 W/m 16,5 C 26,9 C 14,5 km/h (3 Bft) 95,74 %
20.07.2016 13:06 26,9 C 53 % 1016,1 hPa 0,0 l/m 8,6 km/h (2 Bft) O-NO 69 2 min 0,000 mm 7,2 UV-I 861 W/m 16,5 C 26,5 C 12,9 km/h (3 Bft) 100,00 %
20.07.2016 13:08 26,8 C 49 % 1016,1 hPa 0,0 l/m 4,2 km/h (1 Bft) NO 46 2 min 0,000 mm 7,1 UV-I 854 W/m 15,2 C 26,8 C 8,0 km/h (2 Bft) 100,00 %
20.07.2016 13:10 26,8 C 54 % 1016,1 hPa 0,0 l/m 4,9 km/h (1 Bft) N-NO 28 2 min 0,000 mm 7,1 UV-I 856 W/m 16,7 C 26,8 C 8,0 km/h (2 Bft) 100,00 %
20.07.2016 13:12 26,7 C 49 % 1016,1 hPa 0,0 l/m 1,1 km/h (1 Bft) N-NO 28 2 min 0,000 mm 7,3 UV-I 869 W/m 15,1 C 26,7 C 3,2 km/h (1 Bft) 100,00 %
20.07.2016 13:14 26,7 C 51 % 1016,1 hPa 0,0 l/m 5,0 km/h (1 Bft) N-NO 30 2 min 0,000 mm 7,5 UV-I 879 W/m 15,7 C 26,7 C 9,7 km/h (2 Bft) 100,00 %
20.07.2016 13:16 26,7 C 49 % 1016,1 hPa 0,0 l/m 2,1 km/h (1 Bft) N-NO 28 2 min 0,000 mm 7,4 UV-I 876 W/m 15,1 C 26,7 C 8,0 km/h (2 Bft) 100,00 %
20.07.2016 13:18 26,6 C 50 % 1016,0 hPa 0,0 l/m 3,7 km/h (1 Bft) W-SW 249 2 min 0,000 mm 7,4 UV-I 875 W/m 15,3 C 26,6 C 4,8 km/h (1 Bft) 100,00 %
20.07.2016 13:20 26,7 C 56 % 1016,0 hPa 0,0 l/m 3,3 km/h (1 Bft) NW 325 2 min 0,000 mm 7,4 UV-I 878 W/m 17,2 C 26,7 C 4,8 km/h (1 Bft) 95,83 %
20.07.2016 13:22 27,0 C 52 % 1016,0 hPa 0,0 l/m 2,9 km/h (1 Bft) N-NW 336 2 min 0,000 mm 7,5 UV-I 880 W/m 16,3 C 27,0 C 6,4 km/h (2 Bft) 97,87 %
20.07.2016 13:24 27,0 C 50 % 1016,0 hPa 0,0 l/m 3,2 km/h (1 Bft) W-NW 296 2 min 0,000 mm 7,5 UV-I 879 W/m 15,7 C 27,0 C 6,4 km/h (2 Bft) 100,00 %
20.07.2016 13:26 26,9 C 49 % 1016,0 hPa 0,0 l/m 3,1 km/h (1 Bft) W 275 2 min 0,000 mm 7,5 UV-I 881 W/m 15,3 C 26,9 C 6,4 km/h (2 Bft) 97,37 %
20.07.2016 13:28 26,8 C 49 % 1015,9 hPa 0,0 l/m 3,0 km/h (1 Bft) W 267 2 min 0,000 mm 7,5 UV-I 884 W/m 15,2 C 26,8 C 4,8 km/h (1 Bft) 100,00 %
20.07.2016 13:30 26,8 C 50 % 1015,9 hPa 0,0 l/m 4,0 km/h (1 Bft) W-NW 298 2 min 0,000 mm 7,6 UV-I 887 W/m 15,5 C 26,8 C 6,4 km/h (2 Bft) 100,00 %
20.07.2016 13:32 26,8 C 47 % 1015,9 hPa 0,0 l/m 3,9 km/h (1 Bft) W 274 2 min 0,000 mm 7,5 UV-I 887 W/m 14,5 C 26,8 C 9,7 km/h (2 Bft) 100,00 %
20.07.2016 13:34 26,9 C 47 % 1015,8 hPa 0,0 l/m 4,7 km/h (1 Bft) W-NW 291 2 min 0,000 mm 7,5 UV-I 886 W/m 14,6 C 26,9 C 9,7 km/h (2 Bft) 100,00 %
20.07.2016 13:36 26,9 C 45 % 1015,8 hPa 0,0 l/m 0,3 km/h (0 Bft) W-NW 290 2 min 0,000 mm 7,5 UV-I 883 W/m 13,9 C 26,9 C 1,6 km/h (1 Bft) 100,00 %
20.07.2016 13:38 26,9 C 45 % 1015,8 hPa 0,0 l/m 4,6 km/h (1 Bft) SW 232 2 min 0,000 mm 7,5 UV-I 881 W/m 13,9 C 26,9 C 8,0 km/h (2 Bft) 95,74 %
20.07.2016 13:40 27,0 C 46 % 1015,8 hPa 0,0 l/m 4,2 km/h (1 Bft) W-SW 238 2 min 0,000 mm 7,4 UV-I 877 W/m 14,4 C 27,0 C 6,4 km/h (2 Bft) 100,00 %
20.07.2016 13:42 27,1 C 46 % 1015,8 hPa 0,0 l/m 5,2 km/h (1 Bft) S-SW 192 2 min 0,000 mm 7,4 UV-I 876 W/m 14,5 C 27,1 C 8,0 km/h (2 Bft) 100,00 %
20.07.2016 13:44 27,2 C 48 % 1015,7 hPa 0,0 l/m 4,5 km/h (1 Bft) S-SW 203 2 min 0,000 mm 7,3 UV-I 873 W/m 15,2 C 27,2 C 9,7 km/h (2 Bft) 95,74 %
20.07.2016 13:46 27,4 C 47 % 1015,7 hPa 0,0 l/m 4,4 km/h (1 Bft) W 279 2 min 0,000 mm 7,2 UV-I 868 W/m 15,1 C 27,4 C 8,0 km/h (2 Bft) 95,74 %
20.07.2016 13:48 27,4 C 47 % 1015,7 hPa 0,0 l/m 4,1 km/h (1 Bft) W 259 2 min 0,000 mm 7,3 UV-I 874 W/m 15,1 C 27,4 C 9,7 km/h (2 Bft) 97,37 %
20.07.2016 13:50 27,6 C 50 % 1015,6 hPa 0,0 l/m 2,2 km/h (1 Bft) N-NW 345 2 min 0,000 mm 7,4 UV-I 877 W/m 16,2 C 27,6 C 4,8 km/h (1 Bft) 95,74 %
20.07.2016 13:52 27,9 C 49 % 1015,6 hPa 0,0 l/m 3,6 km/h (1 Bft) N-NW 344 2 min 0,000 mm 7,4 UV-I 877 W/m 16,2 C 27,9 C 6,4 km/h (2 Bft) 96,00 %
20.07.2016 13:54 27,8 C 45 % 1015,6 hPa 0,0 l/m 1,9 km/h (1 Bft) NO 40 2 min 0,000 mm 7,3 UV-I 877 W/m 14,8 C 27,8 C 4,8 km/h (1 Bft) 97,87 %
20.07.2016 13:56 27,7 C 44 % 1015,6 hPa 0,0 l/m 4,4 km/h (1 Bft) N-NW 342 2 min 0,000 mm 6,9 UV-I 872 W/m 14,3 C 27,7 C 8,0 km/h (2 Bft) 93,75 %
20.07.2016 13:58 27,8 C 45 % 1015,6 hPa 0,0 l/m 4,2 km/h (1 Bft) N-NW 346 2 min 0,000 mm 7,3 UV-I 871 W/m 14,8 C 27,8 C 11,3 km/h (2 Bft) 95,74 %
20.07.2016 14:00 27,7 C 42 % 1015,6 hPa 0,0 l/m 4,0 km/h (1 Bft) N-NW 338 2 min 0,584 mm 7,2 UV-I 870 W/m 13,6 C 27,7 C 8,0 km/h (2 Bft) 95,74 %
20.07.2016 14:02 27,8 C 43 % 1015,6 hPa 0,0 l/m 1,0 km/h (0 Bft) NW 304 2 min 0,000 mm 7,2 UV-I 868 W/m 14,1 C 27,8 C 3,2 km/h (1 Bft) 97,87 %
20.07.2016 14:04 28,1 C 44 % 1015,6 hPa 0,0 l/m 2,2 km/h (1 Bft) NW 322 2 min 0,000 mm 7,1 UV-I 865 W/m 14,7 C 28,1 C 3,2 km/h (1 Bft) 95,74 %
20.07.2016 14:06 28,2 C 45 % 1015,6 hPa 0,0 l/m 3,0 km/h (1 Bft) NW 308 2 min 0,000 mm 7,1 UV-I 864 W/m 15,1 C 28,2 C 4,8 km/h (1 Bft) 95,74 %
20.07.2016 14:08 28,3 C 43 % 1015,6 hPa 0,0 l/m 3,2 km/h (1 Bft) N-NW 332 2 min 0,000 mm 7,0 UV-I 863 W/m 14,5 C 28,3 C 8,0 km/h (2 Bft) 94,74 %
20.07.2016 14:10 28,3 C 46 % 1015,6 hPa 0,0 l/m 3,9 km/h (1 Bft) N 5 2 min 0,000 mm 7,0 UV-I 862 W/m 15,6 C 28,3 C 6,4 km/h (2 Bft) 96,08 %
20.07.2016 14:12 28,2 C 42 % 1015,5 hPa 0,0 l/m 3,0 km/h (1 Bft) N-NO 12 2 min 0,000 mm 7,0 UV-I 858 W/m 14,0 C 28,2 C 8,0 km/h (2 Bft) 97,92 %
20.07.2016 14:14 28,1 C 40 % 1015,5 hPa 0,0 l/m 1,6 km/h (1 Bft) N-NW 344 2 min 0,000 mm 6,9 UV-I 857 W/m 13,2 C 28,1 C 3,2 km/h (1 Bft) 98,00 %
20.07.2016 14:16 27,9 C 41 % 1015,5 hPa 0,0 l/m 2,1 km/h (1 Bft) W-NW 298 2 min 0,000 mm 6,9 UV-I 850 W/m 13,4 C 27,9 C 3,2 km/h (1 Bft) 97,87 %
20.07.2016 14:18 27,8 C 41 % 1015,5 hPa 0,0 l/m 1,6 km/h (1 Bft) SO 141 2 min 0,000 mm 6,8 UV-I 845 W/m 13,3 C 27,8 C 4,8 km/h (1 Bft) 97,87 %
20.07.2016 14:20 27,8 C 44 % 1015,4 hPa 0,0 l/m 1,8 km/h (1 Bft) SW 222 2 min 0,000 mm 6,7 UV-I 842 W/m 14,4 C 27,8 C 4,8 km/h (1 Bft) 100,00 %
20.07.2016 14:22 28,1 C 45 % 1015,4 hPa 0,0 l/m 0,7 km/h (0 Bft) O-NO 58 2 min 0,000 mm 6,7 UV-I 846 W/m 15,0 C 28,1 C 4,8 km/h (1 Bft) 100,00 %
20.07.2016 14:24 28,4 C 43 % 1015,4 hPa 0,0 l/m 4,6 km/h (1 Bft) N 5 2 min 0,000 mm 6,7 UV-I 845 W/m 14,6 C 28,4 C 9,7 km/h (2 Bft) 100,00 %
20.07.2016 14:26 28,4 C 40 % 1015,4 hPa 0,0 l/m 3,9 km/h (1 Bft) N 11 2 min 0,000 mm 6,7 UV-I 847 W/m 13,5 C 28,4 C 6,4 km/h (2 Bft) 97,87 %
20.07.2016 14:28 28,2 C 42 % 1015,4 hPa 0,0 l/m 4,8 km/h (1 Bft) N 11 2 min 0,000 mm 6,7 UV-I 847 W/m 14,0 C 28,2 C 6,4 km/h (2 Bft) 100,00 %
20.07.2016 14:30 28,2 C 44 % 1015,3 hPa 0,0 l/m 4,4 km/h (1 Bft) N-NO 27 2 min 0,000 mm 6,7 UV-I 844 W/m 14,8 C 28,2 C 9,7 km/h (2 Bft) 100,00 %
20.07.2016 14:32 28,2 C 43 % 1015,3 hPa 0,0 l/m 7,6 km/h (2 Bft) N-NO 22 2 min 0,000 mm 6,6 UV-I 840 W/m 14,4 C 28,0 C 12,9 km/h (3 Bft) 100,00 %
20.07.2016 14:34 28,3 C 41 % 1015,3 hPa 0,0 l/m 6,8 km/h (2 Bft) N-NO 30 2 min 0,000 mm 6,6 UV-I 838 W/m 13,8 C 28,2 C 11,3 km/h (2 Bft) 100,00 %
20.07.2016 14:36 28,3 C 41 % 1015,2 hPa 0,0 l/m 2,7 km/h (1 Bft) N-NO 31 2 min 0,000 mm 6,5 UV-I 831 W/m 13,8 C 28,3 C 6,4 km/h (2 Bft) 100,00 %
20.07.2016 14:38 28,4 C 41 % 1015,2 hPa 0,0 l/m 4,2 km/h (1 Bft) NO 39 2 min 0,000 mm 6,2 UV-I 787 W/m 13,9 C 28,4 C 9,7 km/h (2 Bft) 100,00 %
20.07.2016 14:40 28,2 C 40 % 1015,2 hPa 0,0 l/m 5,3 km/h (1 Bft) O 88 2 min 0,000 mm 6,3 UV-I 823 W/m 13,3 C 28,2 C 9,7 km/h (2 Bft) 100,00 %
20.07.2016 14:42 28,1 C 41 % 1015,2 hPa 0,0 l/m 2,8 km/h (1 Bft) NO 38 2 min 0,000 mm 6,2 UV-I 805 W/m 13,6 C 28,1 C 4,8 km/h (1 Bft) 100,00 %
20.07.2016 14:44 28,2 C 42 % 1015,1 hPa 0,0 l/m 4,1 km/h (1 Bft) N-NW 339 2 min 0,000 mm 6,1 UV-I 806 W/m 14,0 C 28,2 C 8,0 km/h (2 Bft) 95,74 %
20.07.2016 14:46 28,2 C 42 % 1015,1 hPa 0,0 l/m 4,3 km/h (1 Bft) NW 324 2 min 0,000 mm 6,2 UV-I 815 W/m 14,0 C 28,2 C 8,0 km/h (2 Bft) 97,87 %
20.07.2016 14:48 28,3 C 44 % 1015,1 hPa 0,0 l/m 3,8 km/h (1 Bft) N-NW 345 2 min 0,000 mm 6,2 UV-I 816 W/m 14,9 C 28,3 C 6,4 km/h (2 Bft) 97,87 %
20.07.2016 14:50 28,6 C 41 % 1015,1 hPa 0,0 l/m 5,3 km/h (1 Bft) N 10 2 min 0,000 mm 6,1 UV-I 815 W/m 14,0 C 28,6 C 9,7 km/h (2 Bft) 97,87 %
20.07.2016 14:52 28,8 C 44 % 1015,0 hPa 0,0 l/m 2,9 km/h (1 Bft) N 351 2 min 0,000 mm 6,0 UV-I 809 W/m 15,3 C 28,8 C 8,0 km/h (2 Bft) 97,87 %
20.07.2016 14:54 28,9 C 43 % 1015,0 hPa 0,0 l/m 3,1 km/h (1 Bft) N-NO 19 2 min 0,000 mm 6,0 UV-I 802 W/m 15,0 C 28,9 C 8,0 km/h (2 Bft) 100,00 %
20.07.2016 14:56 28,8 C 39 % 1015,0 hPa 0,0 l/m 2,9 km/h (1 Bft) NW 323 2 min 0,000 mm 5,8 UV-I 791 W/m 13,4 C 28,8 C 4,8 km/h (1 Bft) 98,00 %
20.07.2016 14:58 28,6 C 41 % 1015,0 hPa 0,0 l/m 3,9 km/h (1 Bft) N 5 2 min 0,000 mm 5,7 UV-I 784 W/m 14,0 C 28,6 C 8,0 km/h (2 Bft) 100,00 %
20.07.2016 15:00 28,3 C 44 % 1015,0 hPa 0,0 l/m 3,6 km/h (1 Bft) N-NW 335 2 min 0,584 mm 5,7 UV-I 784 W/m 14,9 C 28,3 C 8,0 km/h (2 Bft) 100,00 %
20.07.2016 15:02 28,4 C 41 % 1015,0 hPa 0,0 l/m 2,4 km/h (1 Bft) NO 38 2 min 0,000 mm 5,7 UV-I 790 W/m 13,9 C 28,4 C 4,8 km/h (1 Bft) 100,00 %
20.07.2016 15:04 28,3 C 40 % 1014,9 hPa 0,0 l/m 4,0 km/h (1 Bft) O-NO 61 2 min 0,000 mm 5,8 UV-I 795 W/m 13,4 C 28,3 C 6,4 km/h (2 Bft) 100,00 %
20.07.2016 15:06 28,4 C 44 % 1014,9 hPa 0,0 l/m 5,7 km/h (1 Bft) O 83 2 min 0,000 mm 5,9 UV-I 804 W/m 14,9 C 28,4 C 8,0 km/h (2 Bft) 100,00 %
20.07.2016 15:08 28,4 C 41 % 1014,9 hPa 0,0 l/m 5,9 km/h (2 Bft) O-NO 65 2 min 0,000 mm 5,8 UV-I 800 W/m 13,9 C 28,4 C 11,3 km/h (2 Bft) 97,87 %
20.07.2016 15:10 28,4 C 39 % 1014,9 hPa 0,0 l/m 7,7 km/h (2 Bft) O 99 2 min 0,000 mm 5,8 UV-I 798 W/m 13,1 C 28,2 C 12,9 km/h (3 Bft) 100,00 %
20.07.2016 15:12 28,4 C 42 % 1014,9 hPa 0,0 l/m 5,7 km/h (1 Bft) O 80 2 min 0,000 mm 5,8 UV-I 800 W/m 14,2 C 28,4 C 9,7 km/h (2 Bft) 97,87 %
20.07.2016 15:14 28,4 C 42 % 1014,9 hPa 0,0 l/m 4,9 km/h (1 Bft) O 82 2 min 0,000 mm 5,6 UV-I 788 W/m 14,2 C 28,4 C 8,0 km/h (2 Bft) 100,00 %
20.07.2016 15:16 28,4 C 40 % 1014,9 hPa 0,0 l/m 4,0 km/h (1 Bft) N-NO 32 2 min 0,000 mm 5,5 UV-I 779 W/m 13,5 C 28,4 C 6,4 km/h (2 Bft) 100,00 %
20.07.2016 15:18 28,6 C 44 % 1014,9 hPa 0,0 l/m 7,3 km/h (2 Bft) O-NO 57 2 min 0,000 mm 5,4 UV-I 769 W/m 15,1 C 28,5 C 9,7 km/h (2 Bft) 97,92 %
20.07.2016 15:20 28,7 C 43 % 1014,8 hPa 0,0 l/m 4,8 km/h (1 Bft) NO 40 2 min 0,000 mm 5,2 UV-I 761 W/m 14,9 C 28,7 C 6,4 km/h (2 Bft) 100,00 %
20.07.2016 15:22 28,7 C 41 % 1014,8 hPa 0,0 l/m 2,5 km/h (1 Bft) NO 52 2 min 0,000 mm 5,3 UV-I 760 W/m 14,1 C 28,7 C 4,8 km/h (1 Bft) 100,00 %
20.07.2016 15:24 28,7 C 42 % 1014,8 hPa 0,0 l/m 2,8 km/h (1 Bft) O-NO 59 2 min 0,000 mm 5,3 UV-I 763 W/m 14,5 C 28,7 C 4,8 km/h (1 Bft) 100,00 %
20.07.2016 15:26 28,7 C 45 % 1014,8 hPa 0,0 l/m 5,3 km/h (1 Bft) NO 34 2 min 0,000 mm 5,2 UV-I 763 W/m 15,6 C 28,7 C 8,0 km/h (2 Bft) 97,87 %
20.07.2016 15:28 28,9 C 41 % 1014,8 hPa 0,0 l/m 2,9 km/h (1 Bft) N-NO 18 2 min 0,000 mm 5,2 UV-I 761 W/m 14,3 C 28,9 C 4,8 km/h (1 Bft) 100,00 %
20.07.2016 15:30 29,1 C 45 % 1014,8 hPa 0,0 l/m 4,4 km/h (1 Bft) W-NW 298 2 min 0,000 mm 5,2 UV-I 760 W/m 15,9 C 29,1 C 6,4 km/h (2 Bft) 100,00 %
20.07.2016 15:32 29,1 C 38 % 1014,8 hPa 0,0 l/m 3,7 km/h (1 Bft) O-SO 103 2 min 0,000 mm 5,1 UV-I 759 W/m 13,3 C 29,1 C 6,4 km/h (2 Bft) 100,00 %
20.07.2016 15:34 29,1 C 40 % 1014,7 hPa 0,0 l/m 6,3 km/h (2 Bft) O-NO 59 2 min 0,000 mm 5,0 UV-I 753 W/m 14,1 C 29,1 C 11,3 km/h (2 Bft) 100,00 %
20.07.2016 15:36 29,1 C 40 % 1014,7 hPa 0,0 l/m 6,0 km/h (2 Bft) NO 37 2 min 0,000 mm 4,9 UV-I 749 W/m 14,1 C 29,1 C 9,7 km/h (2 Bft) 98,00 %
20.07.2016 15:38 29,1 C 42 % 1014,7 hPa 0,0 l/m 8,0 km/h (2 Bft) N-NO 23 2 min 0,000 mm 4,9 UV-I 745 W/m 14,9 C 28,9 C 11,3 km/h (2 Bft) 95,74 %
20.07.2016 15:40 29,2 C 40 % 1014,7 hPa 0,0 l/m 4,5 km/h (1 Bft) N 11 2 min 0,000 mm 4,9 UV-I 741 W/m 14,2 C 29,2 C 12,9 km/h (3 Bft) 97,87 %
20.07.2016 15:42 28,8 C 39 % 1014,6 hPa 0,0 l/m 4,0 km/h (1 Bft) N-NO 13 2 min 0,000 mm 4,8 UV-I 733 W/m 13,4 C 28,8 C 8,0 km/h (2 Bft) 98,00 %
20.07.2016 15:44 28,7 C 38 % 1014,6 hPa 0,0 l/m 3,4 km/h (1 Bft) SO 124 2 min 0,000 mm 4,7 UV-I 727 W/m 13,0 C 28,7 C 8,0 km/h (2 Bft) 97,87 %
20.07.2016 15:46 28,6 C 38 % 1014,6 hPa 0,0 l/m 3,8 km/h (1 Bft) S 187 2 min 0,000 mm 4,7 UV-I 728 W/m 12,9 C 28,6 C 8,0 km/h (2 Bft) 97,87 %
20.07.2016 15:48 28,4 C 38 % 1014,6 hPa 0,0 l/m 4,1 km/h (1 Bft) S-SW 193 2 min 0,000 mm 4,7 UV-I 729 W/m 12,7 C 28,4 C 6,4 km/h (2 Bft) 95,74 %
20.07.2016 15:50 28,3 C 39 % 1014,6 hPa 0,0 l/m 1,7 km/h (1 Bft) S-SW 193 2 min 0,000 mm 3,6 UV-I 725 W/m 13,0 C 28,3 C 4,8 km/h (1 Bft) 95,74 %
20.07.2016 15:52 28,4 C 39 % 1014,5 hPa 0,0 l/m 2,4 km/h (1 Bft) O-NO 71 2 min 0,000 mm 4,6 UV-I 719 W/m 13,1 C 28,4 C 6,4 km/h (2 Bft) 97,87 %
20.07.2016 15:54 28,5 C 38 % 1014,5 hPa 0,0 l/m 2,9 km/h (1 Bft) S-SO 163 2 min 0,000 mm 4,5 UV-I 707 W/m 12,8 C 28,5 C 6,4 km/h (2 Bft) 93,62 %
20.07.2016 15:56 28,4 C 39 % 1014,5 hPa 0,0 l/m 1,3 km/h (1 Bft) S-SO 162 2 min 0,000 mm 4,4 UV-I 701 W/m 13,1 C 28,4 C 3,2 km/h (1 Bft) 95,74 %
20.07.2016 15:58 28,6 C 40 % 1014,5 hPa 0,0 l/m 3,0 km/h (1 Bft) O-SO 113 2 min 0,000 mm 4,4 UV-I 707 W/m 13,7 C 28,6 C 4,8 km/h (1 Bft) 95,83 %
20.07.2016 16:00 28,8 C 38 % 1014,5 hPa 0,0 l/m 5,5 km/h (1 Bft) O-NO 71 2 min 0,533 mm 4,3 UV-I 702 W/m 13,0 C 28,8 C 11,3 km/h (2 Bft) 97,87 %
20.07.2016 16:02 29,0 C 38 % 1014,5 hPa 0,0 l/m 6,5 km/h (2 Bft) O-NO 60 2 min 0,000 mm 4,2 UV-I 695 W/m 13,2 C 29,0 C 8,0 km/h (2 Bft) 97,14 %
20.07.2016 16:04 28,8 C 35 % 1014,5 hPa 0,0 l/m 3,9 km/h (1 Bft) O 80 2 min 0,000 mm 4,2 UV-I 692 W/m 11,8 C 28,8 C 6,4 km/h (2 Bft) 97,87 %
20.07.2016 16:06 28,8 C 37 % 1014,5 hPa 0,0 l/m 1,9 km/h (1 Bft) S-SW 204 2 min 0,000 mm 4,1 UV-I 691 W/m 12,6 C 28,8 C 3,2 km/h (1 Bft) 93,62 %
20.07.2016 16:08 28,8 C 36 % 1014,4 hPa 0,0 l/m 4,9 km/h (1 Bft) O-NO 68 2 min 0,000 mm 4,1 UV-I 685 W/m 12,2 C 28,8 C 9,7 km/h (2 Bft) 100,00 %
20.07.2016 16:10 28,9 C 37 % 1014,4 hPa 0,0 l/m 4,4 km/h (1 Bft) N-NO 24 2 min 0,000 mm 3,9 UV-I 669 W/m 12,7 C 28,9 C 8,0 km/h (2 Bft) 100,00 %
20.07.2016 16:12 29,3 C 41 % 1014,5 hPa 0,0 l/m 2,1 km/h (1 Bft) N-NW 331 2 min 0,000 mm 3,9 UV-I 670 W/m 14,7 C 29,3 C 4,8 km/h (1 Bft) 100,00 %
20.07.2016 16:14 29,4 C 40 % 1014,4 hPa 0,0 l/m 3,8 km/h (1 Bft) N 360 2 min 0,000 mm 3,9 UV-I 667 W/m 14,4 C 29,4 C 12,9 km/h (3 Bft) 97,87 %
20.07.2016 16:16 29,2 C 39 % 1014,4 hPa 0,0 l/m 4,1 km/h (1 Bft) N 10 2 min 0,000 mm 3,8 UV-I 661 W/m 13,8 C 29,2 C 11,3 km/h (2 Bft) 100,00 %
20.07.2016 16:18 29,2 C 42 % 1014,4 hPa 0,0 l/m 3,2 km/h (1 Bft) N-NW 336 2 min 0,000 mm 3,8 UV-I 659 W/m 14,9 C 29,2 C 6,4 km/h (2 Bft) 97,87 %
20.07.2016 16:20 29,4 C 39 % 1014,4 hPa 0,0 l/m 2,2 km/h (1 Bft) N-NW 331 2 min 0,000 mm 3,7 UV-I 656 W/m 14,0 C 29,4 C 3,2 km/h (1 Bft) 97,87 %
20.07.2016 16:22 29,6 C 38 % 1014,4 hPa 0,0 l/m 1,5 km/h (1 Bft) N-NW 341 2 min 0,000 mm 3,7 UV-I 656 W/m 13,8 C 29,6 C 3,2 km/h (1 Bft) 100,00 %
20.07.2016 16:24 29,6 C 39 % 1014,4 hPa 0,0 l/m 5,3 km/h (1 Bft) N-NW 344 2 min 0,000 mm 3,7 UV-I 657 W/m 14,2 C 29,6 C 12,9 km/h (3 Bft) 100,00 %
20.07.2016 16:26 29,6 C 43 % 1014,4 hPa 0,0 l/m 3,6 km/h (1 Bft) N 11 2 min 0,000 mm 3,6 UV-I 656 W/m 15,7 C 29,6 C 6,4 km/h (2 Bft) 95,74 %
20.07.2016 16:28 29,5 C 39 % 1014,4 hPa 0,0 l/m 5,3 km/h (1 Bft) NO 54 2 min 0,000 mm 3,5 UV-I 645 W/m 14,1 C 29,5 C 8,0 km/h (2 Bft) 100,00 %
20.07.2016 16:30 29,3 C 37 % 1014,4 hPa 0,0 l/m 5,2 km/h (1 Bft) N 5 2 min 0,000 mm 3,4 UV-I 636 W/m 13,1 C 29,3 C 6,4 km/h (2 Bft) 97,87 %
20.07.2016 16:32 29,3 C 39 % 1014,4 hPa 0,0 l/m 5,6 km/h (1 Bft) NO 43 2 min 0,000 mm 3,4 UV-I 631 W/m 13,9 C 29,3 C 9,7 km/h (2 Bft) 97,87 %
20.07.2016 16:34 29,2 C 36 % 1014,4 hPa 0,0 l/m 2,5 km/h (1 Bft) NO 52 2 min 0,000 mm 3,4 UV-I 628 W/m 12,6 C 29,2 C 4,8 km/h (1 Bft) 100,00 %
20.07.2016 16:36 29,2 C 36 % 1014,4 hPa 0,0 l/m 1,5 km/h (1 Bft) NW 318 2 min 0,000 mm 3,2 UV-I 619 W/m 12,6 C 29,2 C 3,2 km/h (1 Bft) 100,00 %
20.07.2016 16:38 29,2 C 39 % 1014,3 hPa 0,0 l/m 1,9 km/h (1 Bft) N-NW 329 2 min 0,000 mm 3,2 UV-I 614 W/m 13,8 C 29,2 C 4,8 km/h (1 Bft) 100,00 %
20.07.2016 16:40 29,2 C 38 % 1014,4 hPa 0,0 l/m 3,4 km/h (1 Bft) NO 39 2 min 0,000 mm 2,7 UV-I 608 W/m 13,4 C 29,2 C 8,0 km/h (2 Bft) 100,00 %
20.07.2016 16:42 29,4 C 40 % 1014,3 hPa 0,0 l/m 1,9 km/h (1 Bft) NW 324 2 min 0,000 mm 3,0 UV-I 601 W/m 14,4 C 29,4 C 4,8 km/h (1 Bft) 100,00 %
20.07.2016 16:44 29,4 C 38 % 1014,3 hPa 0,0 l/m 2,2 km/h (1 Bft) N 9 2 min 0,000 mm 3,0 UV-I 598 W/m 13,6 C 29,4 C 3,2 km/h (1 Bft) 100,00 %
20.07.2016 16:46 29,5 C 40 % 1014,3 hPa 0,0 l/m 1,2 km/h (1 Bft) N 355 2 min 0,000 mm 3,0 UV-I 599 W/m 14,5 C 29,5 C 3,2 km/h (1 Bft) 100,00 %
20.07.2016 16:48 29,5 C 39 % 1014,3 hPa 0,0 l/m 2,0 km/h (1 Bft) NW 315 2 min 0,000 mm 2,9 UV-I 591 W/m 14,1 C 29,5 C 4,8 km/h (1 Bft) 100,00 %
20.07.2016 16:50 29,4 C 40 % 1014,3 hPa 0,0 l/m 1,4 km/h (1 Bft) NO 39 2 min 0,000 mm 2,9 UV-I 588 W/m 14,4 C 29,4 C 3,2 km/h (1 Bft) 100,00 %
20.07.2016 16:52 29,5 C 36 % 1014,2 hPa 0,0 l/m 4,9 km/h (1 Bft) NO 44 2 min 0,000 mm 2,8 UV-I 585 W/m 12,8 C 29,5 C 8,0 km/h (2 Bft) 100,00 %
20.07.2016 16:54 29,5 C 40 % 1014,2 hPa 0,0 l/m 2,9 km/h (1 Bft) N-NO 32 2 min 0,000 mm 2,8 UV-I 577 W/m 14,5 C 29,5 C 4,8 km/h (1 Bft) 100,00 %
20.07.2016 16:56 29,5 C 37 % 1014,2 hPa 0,0 l/m 5,1 km/h (1 Bft) NW 313 2 min 0,000 mm 2,7 UV-I 577 W/m 13,3 C 29,5 C 11,3 km/h (2 Bft) 100,00 %
20.07.2016 16:58 29,4 C 38 % 1014,2 hPa 0,0 l/m 2,0 km/h (1 Bft) N-NW 330 2 min 0,000 mm 2,6 UV-I 570 W/m 13,6 C 29,4 C 3,2 km/h (1 Bft) 100,00 %
20.07.2016 17:00 29,2 C 38 % 1014,3 hPa 0,0 l/m 2,2 km/h (1 Bft) N-NO 32 2 min 0,458 mm 2,5 UV-I 554 W/m 13,4 C 29,2 C 4,8 km/h (1 Bft) 100,00 %
20.07.2016 17:02 29,2 C 38 % 1014,3 hPa 0,0 l/m 3,8 km/h (1 Bft) N-NO 16 2 min 0,000 mm 2,5 UV-I 545 W/m 13,4 C 29,2 C 6,4 km/h (2 Bft) 100,00 %
20.07.2016 17:04 29,2 C 37 % 1014,3 hPa 0,0 l/m 2,6 km/h (1 Bft) N-NO 22 2 min 0,000 mm 2,4 UV-I 528 W/m 13,0 C 29,2 C 6,4 km/h (2 Bft) 97,87 %
20.07.2016 17:06 29,1 C 37 % 1014,3 hPa 0,0 l/m 3,1 km/h (1 Bft) NO 38 2 min 0,000 mm 2,4 UV-I 531 W/m 12,9 C 29,1 C 6,4 km/h (2 Bft) 97,56 %
20.07.2016 17:08 29,1 C 39 % 1014,3 hPa 0,0 l/m 2,4 km/h (1 Bft) N 355 2 min 0,000 mm 2,1 UV-I 507 W/m 13,7 C 29,1 C 4,8 km/h (1 Bft) 100,00 %
20.07.2016 17:10 29,1 C 40 % 1014,2 hPa 0,0 l/m 4,8 km/h (1 Bft) N-NO 17 2 min 0,000 mm 2,3 UV-I 527 W/m 14,1 C 29,1 C 8,0 km/h (2 Bft) 98,00 %
20.07.2016 17:12 29,3 C 39 % 1014,2 hPa 0,0 l/m 2,5 km/h (1 Bft) N-NW 345 2 min 0,000 mm 2,2 UV-I 510 W/m 13,9 C 29,3 C 4,8 km/h (1 Bft) 97,87 %
20.07.2016 17:14 29,3 C 39 % 1014,2 hPa 0,0 l/m 2,6 km/h (1 Bft) N-NO 23 2 min 0,000 mm 2,2 UV-I 517 W/m 13,9 C 29,3 C 4,8 km/h (1 Bft) 100,00 %
20.07.2016 17:16 29,3 C 38 % 1014,2 hPa 0,0 l/m 2,3 km/h (1 Bft) NW 308 2 min 0,000 mm 2,2 UV-I 520 W/m 13,5 C 29,3 C 6,4 km/h (2 Bft) 100,00 %
20.07.2016 17:18 29,3 C 38 % 1014,2 hPa 0,0 l/m 2,2 km/h (1 Bft) NW 319 2 min 0,000 mm 2,2 UV-I 520 W/m 13,5 C 29,3 C 4,8 km/h (1 Bft) 97,87 %
20.07.2016 17:20 29,3 C 38 % 1014,2 hPa 0,0 l/m 2,3 km/h (1 Bft) N-NO 15 2 min 0,000 mm 2,1 UV-I 510 W/m 13,5 C 29,3 C 4,8 km/h (1 Bft) 93,62 %
20.07.2016 17:22 29,2 C 39 % 1014,2 hPa 0,0 l/m 3,2 km/h (1 Bft) NO 34 2 min 0,000 mm 2,1 UV-I 496 W/m 13,8 C 29,2 C 6,4 km/h (2 Bft) 98,00 %
20.07.2016 17:24 29,2 C 39 % 1014,2 hPa 0,0 l/m 4,9 km/h (1 Bft) NO 42 2 min 0,000 mm 2,0 UV-I 494 W/m 13,8 C 29,2 C 9,7 km/h (2 Bft) 93,62 %
20.07.2016 17:26 29,1 C 39 % 1014,1 hPa 0,0 l/m 3,8 km/h (1 Bft) N-NO 33 2 min 0,000 mm 2,0 UV-I 488 W/m 13,7 C 29,1 C 6,4 km/h (2 Bft) 95,74 %
20.07.2016 17:28 29,1 C 38 % 1014,1 hPa 0,0 l/m 3,0 km/h (1 Bft) N-NO 17 2 min 0,000 mm 2,0 UV-I 488 W/m 13,3 C 29,1 C 6,4 km/h (2 Bft) 97,87 %
20.07.2016 17:30 29,1 C 38 % 1014,1 hPa 0,0 l/m 3,4 km/h (1 Bft) O-NO 61 2 min 0,000 mm 1,9 UV-I 488 W/m 13,3 C 29,1 C 6,4 km/h (2 Bft) 95,74 %
20.07.2016 17:32 29,1 C 38 % 1014,1 hPa 0,0 l/m 5,1 km/h (1 Bft) NO 49 2 min 0,000 mm 1,9 UV-I 484 W/m 13,3 C 29,1 C 8,0 km/h (2 Bft) 94,00 %
20.07.2016 17:34 29,2 C 42 % 1014,1 hPa 0,0 l/m 0,9 km/h (0 Bft) N-NO 22 2 min 0,000 mm 1,9 UV-I 474 W/m 14,9 C 29,2 C 3,2 km/h (1 Bft) 95,74 %
20.07.2016 17:36 29,3 C 38 % 1014,1 hPa 0,0 l/m 2,2 km/h (1 Bft) N-NW 339 2 min 0,000 mm 1,8 UV-I 469 W/m 13,5 C 29,3 C 4,8 km/h (1 Bft) 100,00 %
20.07.2016 17:38 29,2 C 37 % 1014,1 hPa 0,0 l/m 2,9 km/h (1 Bft) N 5 2 min 0,000 mm 1,8 UV-I 463 W/m 13,0 C 29,2 C 4,8 km/h (1 Bft) 91,49 %
20.07.2016 17:40 29,1 C 39 % 1014,1 hPa 0,0 l/m 2,7 km/h (1 Bft) NW 313 2 min 0,000 mm 1,7 UV-I 456 W/m 13,7 C 29,1 C 6,4 km/h (2 Bft) 95,74 %
20.07.2016 17:42 29,1 C 38 % 1014,1 hPa 0,0 l/m 1,9 km/h (1 Bft) N-NW 337 2 min 0,000 mm 1,7 UV-I 453 W/m 13,3 C 29,1 C 4,8 km/h (1 Bft) 97,92 %
20.07.2016 17:44 28,9 C 37 % 1014,0 hPa 0,0 l/m 1,5 km/h (1 Bft) N-NW 339 2 min 0,000 mm 1,7 UV-I 447 W/m 12,7 C 28,9 C 3,2 km/h (1 Bft) 98,00 %
20.07.2016 17:46 29,1 C 40 % 1014,0 hPa 0,0 l/m 2,0 km/h (1 Bft) N-NW 342 2 min 0,000 mm 1,6 UV-I 442 W/m 14,1 C 29,1 C 6,4 km/h (2 Bft) 97,87 %
20.07.2016 17:48 29,1 C 41 % 1014,0 hPa 0,0 l/m 2,8 km/h (1 Bft) N-NW 329 2 min 0,000 mm 1,6 UV-I 434 W/m 14,5 C 29,1 C 6,4 km/h (2 Bft) 97,87 %
20.07.2016 17:50 29,2 C 41 % 1014,0 hPa 0,0 l/m 1,7 km/h (1 Bft) NW 307 2 min 0,000 mm 1,5 UV-I 429 W/m 14,6 C 29,2 C 4,8 km/h (1 Bft) 100,00 %
20.07.2016 17:52 29,2 C 38 % 1014,0 hPa 0,0 l/m 2,7 km/h (1 Bft) N-NW 329 2 min 0,000 mm 1,5 UV-I 425 W/m 13,4 C 29,2 C 6,4 km/h (2 Bft) 93,88 %
20.07.2016 17:54 29,1 C 38 % 1014,0 hPa 0,0 l/m 1,9 km/h (1 Bft) N-NW 330 2 min 0,000 mm 1,4 UV-I 417 W/m 13,3 C 29,1 C 4,8 km/h (1 Bft) 95,83 %
20.07.2016 17:56 29,0 C 39 % 1014,0 hPa 0,0 l/m 2,8 km/h (1 Bft) NW 325 2 min 0,000 mm 1,4 UV-I 413 W/m 13,6 C 29,0 C 4,8 km/h (1 Bft) 100,00 %
20.07.2016 17:58 28,9 C 38 % 1014,0 hPa 0,0 l/m 2,3 km/h (1 Bft) N-NO 18 2 min 0,000 mm 1,3 UV-I 403 W/m 13,1 C 28,9 C 4,8 km/h (1 Bft) 100,00 %
20.07.2016 18:00 28,9 C 39 % 1014,0 hPa 0,0 l/m 2,8 km/h (1 Bft) N-NO 32 2 min 0,000 mm 1,3 UV-I 395 W/m 13,5 C 28,9 C 6,4 km/h (2 Bft) 100,00 %
20.07.2016 18:02 28,9 C 40 % 1014,0 hPa 0,0 l/m 4,5 km/h (1 Bft) N-NW 335 2 min 0,355 mm 1,3 UV-I 392 W/m 13,9 C 28,9 C 9,7 km/h (2 Bft) 100,00 %
20.07.2016 18:04 28,9 C 40 % 1014,0 hPa 0,0 l/m 1,8 km/h (1 Bft) N 5 2 min 0,000 mm 1,2 UV-I 390 W/m 13,9 C 28,9 C 4,8 km/h (1 Bft) 95,74 %
20.07.2016 18:06 28,9 C 39 % 1014,0 hPa 0,0 l/m 1,5 km/h (1 Bft) N 5 2 min 0,000 mm 1,2 UV-I 385 W/m 13,5 C 28,9 C 3,2 km/h (1 Bft) 100,00 %
20.07.2016 18:08 28,9 C 40 % 1013,9 hPa 0,0 l/m 2,0 km/h (1 Bft) N-NW 339 2 min 0,000 mm 1,2 UV-I 375 W/m 13,9 C 28,9 C 3,2 km/h (1 Bft) 100,00 %
20.07.2016 18:10 28,9 C 39 % 1014,0 hPa 0,0 l/m 3,3 km/h (1 Bft) NO 44 2 min 0,000 mm 1,1 UV-I 368 W/m 13,5 C 28,9 C 9,7 km/h (2 Bft) 100,00 %
20.07.2016 18:12 28,9 C 40 % 1013,9 hPa 0,0 l/m 5,6 km/h (1 Bft) N 11 2 min 0,000 mm 1,1 UV-I 364 W/m 13,9 C 28,9 C 9,7 km/h (2 Bft) 100,00 %
20.07.2016 18:14 28,9 C 40 % 1013,9 hPa 0,0 l/m 3,3 km/h (1 Bft) N-NO 15 2 min 0,000 mm 1,0 UV-I 362 W/m 13,9 C 28,9 C 6,4 km/h (2 Bft) 100,00 %
20.07.2016 18:16 28,8 C 40 % 1013,9 hPa 0,0 l/m 2,8 km/h (1 Bft) N-NO 33 2 min 0,000 mm 1,0 UV-I 355 W/m 13,8 C 28,8 C 6,4 km/h (2 Bft) 98,00 %
20.07.2016 18:18 28,9 C 39 % 1013,9 hPa 0,0 l/m 3,4 km/h (1 Bft) NO 36 2 min 0,000 mm 1,0 UV-I 352 W/m 13,5 C 28,9 C 6,4 km/h (2 Bft) 100,00 %
20.07.2016 18:20 28,9 C 40 % 1013,9 hPa 0,0 l/m 4,8 km/h (1 Bft) N-NO 26 2 min 0,000 mm 0,9 UV-I 342 W/m 13,9 C 28,9 C 9,7 km/h (2 Bft) 100,00 %
20.07.2016 18:22 28,8 C 40 % 1013,9 hPa 0,0 l/m 6,3 km/h (2 Bft) N-NO 26 2 min 0,000 mm 0,9 UV-I 336 W/m 13,8 C 28,8 C 9,7 km/h (2 Bft) 95,74 %
20.07.2016 18:24 28,8 C 41 % 1013,9 hPa 0,0 l/m 4,4 km/h (1 Bft) N-NW 346 2 min 0,000 mm 0,9 UV-I 327 W/m 14,2 C 28,8 C 6,4 km/h (2 Bft) 100,00 %
20.07.2016 18:26 28,8 C 39 % 1013,9 hPa 0,0 l/m 2,3 km/h (1 Bft) NO 38 2 min 0,000 mm 0,9 UV-I 321 W/m 13,4 C 28,8 C 8,0 km/h (2 Bft) 100,00 %
20.07.2016 18:28 28,7 C 40 % 1013,9 hPa 0,0 l/m 5,2 km/h (1 Bft) N-NO 20 2 min 0,000 mm 0,8 UV-I 316 W/m 13,7 C 28,7 C 8,0 km/h (2 Bft) 100,00 %
20.07.2016 18:30 28,7 C 40 % 1013,9 hPa 0,0 l/m 4,3 km/h (1 Bft) N-NO 30 2 min 0,000 mm 0,8 UV-I 311 W/m 13,7 C 28,7 C 6,4 km/h (2 Bft) 97,87 %
20.07.2016 18:32 28,6 C 40 % 1013,8 hPa 0,0 l/m 5,9 km/h (2 Bft) N-NO 25 2 min 0,000 mm 0,8 UV-I 305 W/m 13,7 C 28,6 C 12,9 km/h (3 Bft) 95,74 %
20.07.2016 18:34 28,6 C 40 % 1013,9 hPa 0,0 l/m 5,6 km/h (1 Bft) N-NO 28 2 min 0,000 mm 0,8 UV-I 300 W/m 13,7 C 28,6 C 9,7 km/h (2 Bft) 100,00 %
20.07.2016 18:36 28,6 C 39 % 1013,9 hPa 0,0 l/m 3,7 km/h (1 Bft) NO 37 2 min 0,000 mm 0,7 UV-I 292 W/m 13,3 C 28,6 C 6,4 km/h (2 Bft) 100,00 %
20.07.2016 18:38 28,6 C 41 % 1013,8 hPa 0,0 l/m 3,1 km/h (1 Bft) NO 51 2 min 0,000 mm 0,7 UV-I 290 W/m 14,0 C 28,6 C 6,4 km/h (2 Bft) 97,87 %
20.07.2016 18:40 28,6 C 41 % 1013,8 hPa 0,0 l/m 3,4 km/h (1 Bft) NO 51 2 min 0,000 mm 0,7 UV-I 280 W/m 14,0 C 28,6 C 4,8 km/h (1 Bft) 100,00 %
20.07.2016 18:42 28,6 C 41 % 1013,8 hPa 0,0 l/m 4,6 km/h (1 Bft) NO 49 2 min 0,000 mm 0,7 UV-I 274 W/m 14,0 C 28,6 C 6,4 km/h (2 Bft) 100,00 %
20.07.2016 18:44 28,6 C 41 % 1013,8 hPa 0,0 l/m 5,5 km/h (1 Bft) N-NO 33 2 min 0,000 mm 0,6 UV-I 269 W/m 14,0 C 28,6 C 6,4 km/h (2 Bft) 100,00 %
20.07.2016 18:46 28,5 C 41 % 1013,8 hPa 0,0 l/m 3,4 km/h (1 Bft) N-NO 33 2 min 0,000 mm 0,6 UV-I 265 W/m 13,9 C 28,5 C 4,8 km/h (1 Bft) 97,87 %
20.07.2016 18:48 28,5 C 41 % 1013,8 hPa 0,0 l/m 1,7 km/h (1 Bft) N-NO 22 2 min 0,000 mm 0,6 UV-I 260 W/m 13,9 C 28,5 C 3,2 km/h (1 Bft) 100,00 %
20.07.2016 18:50 28,5 C 41 % 1013,8 hPa 0,0 l/m 0,6 km/h (0 Bft) N 5 2 min 0,000 mm 0,6 UV-I 257 W/m 13,9 C 28,5 C 1,6 km/h (1 Bft) 100,00 %
20.07.2016 18:52 28,5 C 39 % 1013,8 hPa 0,0 l/m 1,1 km/h (1 Bft) N 360 2 min 0,000 mm 0,6 UV-I 253 W/m 13,2 C 28,5 C 3,2 km/h (1 Bft) 100,00 %
20.07.2016 18:54 28,5 C 40 % 1013,9 hPa 0,0 l/m 1,5 km/h (1 Bft) N-NW 343 2 min 0,000 mm 0,6 UV-I 249 W/m 13,6 C 28,5 C 3,2 km/h (1 Bft) 100,00 %
20.07.2016 18:56 28,4 C 42 % 1013,9 hPa 0,0 l/m 6,2 km/h (2 Bft) NO 36 2 min 0,000 mm 0,5 UV-I 244 W/m 14,2 C 28,4 C 16,1 km/h (3 Bft) 95,74 %
20.07.2016 18:58 28,2 C 45 % 1013,8 hPa 0,0 l/m 14,1 km/h (3 Bft) N 9 2 min 0,000 mm 0,5 UV-I 238 W/m 15,1 C 27,3 C 17,7 km/h (3 Bft) 97,87 %
20.07.2016 19:00 27,9 C 46 % 1013,9 hPa 0,0 l/m 14,1 km/h (3 Bft) NO 34 2 min 0,254 mm 0,5 UV-I 230 W/m 15,2 C 26,9 C 19,3 km/h (3 Bft) 95,74 %
20.07.2016 19:02 27,6 C 49 % 1013,9 hPa 0,0 l/m 7,1 km/h (2 Bft) N 9 2 min 0,000 mm 0,5 UV-I 221 W/m 15,9 C 27,5 C 16,1 km/h (3 Bft) 95,74 %
20.07.2016 19:04 27,4 C 49 % 1013,9 hPa 0,0 l/m 7,8 km/h (2 Bft) NO 42 2 min 0,000 mm 0,1 UV-I 212 W/m 15,7 C 27,2 C 14,5 km/h (3 Bft) 97,87 %
20.07.2016 19:06 27,3 C 50 % 1013,9 hPa 0,0 l/m 11,9 km/h (2 Bft) NO 36 2 min 0,000 mm 0,0 UV-I 205 W/m 15,9 C 26,4 C 17,7 km/h (3 Bft) 95,74 %
20.07.2016 19:08 27,2 C 50 % 1013,9 hPa 0,0 l/m 11,7 km/h (2 Bft) NO 34 2 min 0,000 mm 0,0 UV-I 198 W/m 15,9 C 26,4 C 19,3 km/h (3 Bft) 97,87 %
20.07.2016 19:10 27,1 C 50 % 1013,9 hPa 0,0 l/m 7,4 km/h (2 Bft) NO 45 2 min 0,000 mm 0,0 UV-I 192 W/m 15,8 C 26,9 C 14,5 km/h (3 Bft) 93,62 %
20.07.2016 19:12 27,0 C 51 % 1013,9 hPa 0,0 l/m 5,4 km/h (1 Bft) NO 36 2 min 0,000 mm 0,0 UV-I 186 W/m 16,0 C 27,0 C 11,3 km/h (2 Bft) 97,22 %
20.07.2016 19:14 26,9 C 51 % 1013,9 hPa 0,0 l/m 8,4 km/h (2 Bft) N-NO 28 2 min 0,000 mm 0,0 UV-I 180 W/m 15,9 C 26,5 C 12,9 km/h (3 Bft) 97,87 %
20.07.2016 19:16 26,9 C 51 % 1013,9 hPa 0,0 l/m 7,3 km/h (2 Bft) N-NO 28 2 min 0,000 mm 0,0 UV-I 176 W/m 15,9 C 26,7 C 11,3 km/h (2 Bft) 95,74 %
20.07.2016 19:18 26,9 C 51 % 1013,9 hPa 0,0 l/m 6,8 km/h (2 Bft) NO 40 2 min 0,000 mm 0,0 UV-I 167 W/m 15,9 C 26,8 C 9,7 km/h (2 Bft) 97,87 %
20.07.2016 19:20 26,8 C 52 % 1013,9 hPa 0,0 l/m 6,5 km/h (2 Bft) N-NO 30 2 min 0,000 mm 0,0 UV-I 160 W/m 16,1 C 26,8 C 8,0 km/h (2 Bft) 93,62 %
20.07.2016 19:22 26,8 C 52 % 1013,8 hPa 0,0 l/m 8,8 km/h (2 Bft) N 11 2 min 0,000 mm 0,0 UV-I 154 W/m 16,1 C 26,3 C 14,5 km/h (3 Bft) 95,74 %
20.07.2016 19:24 26,8 C 52 % 1013,8 hPa 0,0 l/m 9,3 km/h (2 Bft) N-NO 32 2 min 0,000 mm 0,0 UV-I 150 W/m 16,1 C 26,3 C 17,7 km/h (3 Bft) 97,87 %
20.07.2016 19:26 26,7 C 53 % 1013,7 hPa 0,0 l/m 7,3 km/h (2 Bft) N-NO 23 2 min 0,000 mm 0,0 UV-I 144 W/m 16,3 C 26,5 C 12,9 km/h (3 Bft) 97,87 %
20.07.2016 19:28 26,7 C 53 % 1013,7 hPa 0,0 l/m 8,5 km/h (2 Bft) NO 48 2 min 0,000 mm 0,0 UV-I 139 W/m 16,3 C 26,3 C 11,3 km/h (2 Bft) 100,00 %
20.07.2016 19:30 26,7 C 54 % 1013,7 hPa 0,0 l/m 6,5 km/h (2 Bft) NO 46 2 min 0,000 mm 0,0 UV-I 133 W/m 16,6 C 26,7 C 9,7 km/h (2 Bft) 98,00 %
20.07.2016 19:32 26,6 C 54 % 1013,7 hPa 0,0 l/m 7,2 km/h (2 Bft) NO 38 2 min 0,000 mm 0,0 UV-I 127 W/m 16,5 C 26,4 C 9,7 km/h (2 Bft) 97,87 %
20.07.2016 19:34 26,6 C 54 % 1013,7 hPa 0,0 l/m 6,0 km/h (2 Bft) NO 46 2 min 0,000 mm 0,0 UV-I 120 W/m 16,5 C 26,6 C 9,7 km/h (2 Bft) 97,87 %
20.07.2016 19:36 26,6 C 55 % 1013,7 hPa 0,0 l/m 8,0 km/h (2 Bft) NO 43 2 min 0,000 mm 0,0 UV-I 114 W/m 16,8 C 26,3 C 14,5 km/h (3 Bft) 100,00 %
20.07.2016 19:38 26,5 C 53 % 1013,7 hPa 0,0 l/m 8,0 km/h (2 Bft) NO 47 2 min 0,000 mm 0,0 UV-I 109 W/m 16,1 C 26,2 C 11,3 km/h (2 Bft) 100,00 %
20.07.2016 19:40 26,5 C 54 % 1013,7 hPa 0,0 l/m 7,0 km/h (2 Bft) NO 42 2 min 0,000 mm 0,0 UV-I 103 W/m 16,4 C 26,4 C 11,3 km/h (2 Bft) 100,00 %
20.07.2016 19:42 26,4 C 54 % 1013,7 hPa 0,0 l/m 6,2 km/h (2 Bft) O-NO 63 2 min 0,000 mm 0,0 UV-I 99 W/m 16,3 C 26,4 C 8,0 km/h (2 Bft) 93,62 %
20.07.2016 19:44 26,4 C 54 % 1013,8 hPa 0,0 l/m 4,9 km/h (1 Bft) NO 53 2 min 0,000 mm 0,0 UV-I 93 W/m 16,3 C 26,4 C 8,0 km/h (2 Bft) 100,00 %
20.07.2016 19:46 26,4 C 54 % 1013,7 hPa 0,0 l/m 5,3 km/h (1 Bft) NO 50 0 min 0,000 mm 0,0 UV-I 86 W/m 16,3 C 26,4 C 8,0 km/h (2 Bft) 100,00 %
20.07.2016 19:48 26,5 C 53 % 1013,7 hPa 0,0 l/m 5,5 km/h (1 Bft) NO 51 0 min 0,000 mm 0,0 UV-I 81 W/m 16,1 C 26,5 C 8,0 km/h (2 Bft) 97,87 %
20.07.2016 19:50 26,5 C 54 % 1013,7 hPa 0,0 l/m 5,6 km/h (1 Bft) NO 55 0 min 0,000 mm 0,0 UV-I 77 W/m 16,4 C 26,5 C 8,0 km/h (2 Bft) 97,87 %
20.07.2016 19:52 26,4 C 54 % 1013,7 hPa 0,0 l/m 5,3 km/h (1 Bft) O-NO 57 0 min 0,000 mm 0,0 UV-I 73 W/m 16,3 C 26,4 C 6,4 km/h (2 Bft) 97,92 %
20.07.2016 19:54 26,4 C 54 % 1013,7 hPa 0,0 l/m 4,9 km/h (1 Bft) NO 45 0 min 0,000 mm 0,0 UV-I 69 W/m 16,3 C 26,4 C 8,0 km/h (2 Bft) 97,87 %
20.07.2016 19:56 26,3 C 54 % 1013,7 hPa 0,0 l/m 4,3 km/h (1 Bft) NO 51 0 min 0,000 mm 0,0 UV-I 65 W/m 16,2 C 26,3 C 6,4 km/h (2 Bft) 100,00 %
20.07.2016 19:58 26,3 C 54 % 1013,8 hPa 0,0 l/m 4,5 km/h (1 Bft) NO 56 0 min 0,000 mm 0,0 UV-I 61 W/m 16,2 C 26,3 C 8,0 km/h (2 Bft) 100,00 %
20.07.2016 20:00 26,2 C 55 % 1013,8 hPa 0,0 l/m 3,8 km/h (1 Bft) NO 55 0 min 0,000 mm 0,0 UV-I 56 W/m 16,4 C 26,2 C 4,8 km/h (1 Bft) 97,87 %
20.07.2016 20:02 26,1 C 54 % 1013,8 hPa 0,0 l/m 4,1 km/h (1 Bft) NO 55 0 min 0,153 mm 0,0 UV-I 52 W/m 16,0 C 26,1 C 6,4 km/h (2 Bft) 97,37 %
20.07.2016 20:04 26,1 C 55 % 1013,8 hPa 0,0 l/m 3,5 km/h (1 Bft) NO 55 0 min 0,000 mm 0,0 UV-I 48 W/m 16,3 C 26,1 C 4,8 km/h (1 Bft) 100,00 %
20.07.2016 20:06 25,9 C 56 % 1013,8 hPa 0,0 l/m 3,5 km/h (1 Bft) NO 55 0 min 0,000 mm 0,0 UV-I 46 W/m 16,4 C 25,9 C 6,4 km/h (2 Bft) 95,74 %
20.07.2016 20:08 25,7 C 57 % 1013,8 hPa 0,0 l/m 3,2 km/h (1 Bft) NO 55 0 min 0,000 mm 0,0 UV-I 40 W/m 16,5 C 25,7 C 4,8 km/h (1 Bft) 97,87 %
20.07.2016 20:10 25,6 C 57 % 1013,9 hPa 0,0 l/m 2,6 km/h (1 Bft) NO 55 0 min 0,000 mm 0,0 UV-I 36 W/m 16,4 C 25,6 C 4,8 km/h (1 Bft) 100,00 %
20.07.2016 20:12 25,5 C 57 % 1013,8 hPa 0,0 l/m 2,0 km/h (1 Bft) NO 55 0 min 0,000 mm 0,0 UV-I 25 W/m 16,3 C 25,5 C 3,2 km/h (1 Bft) 98,00 %
20.07.2016 20:14 25,4 C 57 % 1013,8 hPa 0,0 l/m 2,5 km/h (1 Bft) NO 55 0 min 0,000 mm 0,0 UV-I 23 W/m 16,2 C 25,4 C 4,8 km/h (1 Bft) 100,00 %
20.07.2016 20:16 25,3 C 58 % 1013,7 hPa 0,0 l/m 2,7 km/h (1 Bft) NO 55 0 min 0,000 mm 0,0 UV-I 22 W/m 16,4 C 25,3 C 3,2 km/h (1 Bft) 97,87 %
20.07.2016 20:18 25,3 C 58 % 1013,7 hPa 0,0 l/m 2,0 km/h (1 Bft) NO 55 0 min 0,000 mm 0,0 UV-I 21 W/m 16,4 C 25,3 C 3,2 km/h (1 Bft) 95,74 %
20.07.2016 20:20 25,2 C 59 % 1013,7 hPa 0,0 l/m 1,9 km/h (1 Bft) NO 55 0 min 0,000 mm 0,0 UV-I 20 W/m 16,6 C 25,2 C 3,2 km/h (1 Bft) 97,87 %
20.07.2016 20:22 25,1 C 59 % 1013,7 hPa 0,0 l/m 2,7 km/h (1 Bft) NO 55 0 min 0,000 mm 0,0 UV-I 19 W/m 16,5 C 25,1 C 3,2 km/h (1 Bft) 97,87 %
20.07.2016 20:24 25,0 C 59 % 1013,7 hPa 0,0 l/m 2,2 km/h (1 Bft) NO 55 0 min 0,000 mm 0,0 UV-I 19 W/m 16,4 C 25,0 C 4,8 km/h (1 Bft) 100,00 %
20.07.2016 20:26 24,9 C 60 % 1013,7 hPa 0,0 l/m 2,7 km/h (1 Bft) NO 55 0 min 0,000 mm 0,0 UV-I 18 W/m 16,6 C 24,9 C 4,8 km/h (1 Bft) 100,00 %
20.07.2016 20:28 24,8 C 60 % 1013,7 hPa 0,0 l/m 2,2 km/h (1 Bft) O-NO 67 0 min 0,000 mm 0,0 UV-I 17 W/m 16,5 C 24,8 C 3,2 km/h (1 Bft) 100,00 %
20.07.2016 20:30 24,7 C 60 % 1013,7 hPa 0,0 l/m 3,3 km/h (1 Bft) O-NO 67 0 min 0,000 mm 0,0 UV-I 16 W/m 16,4 C 24,7 C 4,8 km/h (1 Bft) 100,00 %
20.07.2016 20:32 24,6 C 61 % 1013,7 hPa 0,0 l/m 3,3 km/h (1 Bft) O-NO 67 0 min 0,000 mm 0,0 UV-I 15 W/m 16,6 C 24,6 C 4,8 km/h (1 Bft) 100,00 %
20.07.2016 20:34 24,6 C 61 % 1013,7 hPa 0,0 l/m 3,4 km/h (1 Bft) O-NO 67 0 min 0,000 mm 0,0 UV-I 14 W/m 16,6 C 24,6 C 4,8 km/h (1 Bft) 97,14 %
20.07.2016 20:36 24,5 C 61 % 1013,7 hPa 0,0 l/m 2,3 km/h (1 Bft) O-NO 67 0 min 0,000 mm 0,0 UV-I 14 W/m 16,5 C 24,5 C 4,8 km/h (1 Bft) 100,00 %
20.07.2016 20:38 24,4 C 61 % 1013,7 hPa 0,0 l/m 1,8 km/h (1 Bft) O-NO 67 0 min 0,000 mm 0,0 UV-I 12 W/m 16,4 C 24,4 C 3,2 km/h (1 Bft) 100,00 %
20.07.2016 20:40 24,4 C 61 % 1013,7 hPa 0,0 l/m 1,7 km/h (1 Bft) O-NO 67 2 min 0,000 mm 0,0 UV-I 12 W/m 16,4 C 24,4 C 3,2 km/h (1 Bft) 95,74 %
20.07.2016 20:42 24,4 C 61 % 1013,7 hPa 0,0 l/m 1,9 km/h (1 Bft) O-NO 67 2 min 0,000 mm 0,0 UV-I 11 W/m 16,4 C 24,4 C 3,2 km/h (1 Bft) 96,43 %
20.07.2016 20:44 24,4 C 61 % 1013,7 hPa 0,0 l/m 2,4 km/h (1 Bft) O-NO 67 0 min 0,000 mm 0,0 UV-I 11 W/m 16,4 C 24,4 C 3,2 km/h (1 Bft) 100,00 %
20.07.2016 20:46 24,4 C 61 % 1013,7 hPa 0,0 l/m 1,7 km/h (1 Bft) O-NO 67 0 min 0,000 mm 0,0 UV-I 9 W/m 16,4 C 24,4 C 3,2 km/h (1 Bft) 100,00 %
20.07.2016 20:48 24,3 C 61 % 1013,7 hPa 0,0 l/m 1,2 km/h (1 Bft) O-NO 67 0 min 0,000 mm 0,0 UV-I 9 W/m 16,3 C 24,3 C 1,6 km/h (1 Bft) 100,00 %
20.07.2016 20:50 24,2 C 62 % 1013,8 hPa 0,0 l/m 1,0 km/h (0 Bft) O-NO 67 0 min 0,000 mm 0,0 UV-I 7 W/m 16,4 C 24,2 C 1,6 km/h (1 Bft) 97,87 %
20.07.2016 20:52 23,9 C 63 % 1013,7 hPa 0,0 l/m 0,2 km/h (0 Bft) O-NO 67 0 min 0,000 mm 0,0 UV-I 7 W/m 16,4 C 23,9 C 1,6 km/h (1 Bft) 97,87 %
20.07.2016 20:54 23,6 C 65 % 1013,7 hPa 0,0 l/m 1,8 km/h (1 Bft) O-NO 67 0 min 0,000 mm 0,0 UV-I 6 W/m 16,6 C 23,6 C 3,2 km/h (1 Bft) 97,87 %
20.07.2016 20:56 23,2 C 66 % 1013,7 hPa 0,0 l/m 2,1 km/h (1 Bft) O-NO 67 0 min 0,000 mm 0,0 UV-I 5 W/m 16,5 C 23,2 C 3,2 km/h (1 Bft) 97,87 %
20.07.2016 20:58 23,0 C 67 % 1013,7 hPa 0,0 l/m 2,7 km/h (1 Bft) O-NO 67 0 min 0,000 mm 0,0 UV-I 5 W/m 16,5 C 23,0 C 3,2 km/h (1 Bft) 95,74 %
20.07.2016 21:00 22,8 C 67 % 1013,7 hPa 0,0 l/m 2,3 km/h (1 Bft) O-NO 67 0 min 0,025 mm 0,0 UV-I 1 W/m 16,3 C 22,8 C 3,2 km/h (1 Bft) 93,62 %
20.07.2016 21:02 22,8 C 67 % 1013,7 hPa 0,0 l/m 1,7 km/h (1 Bft) O-NO 67 0 min 0,000 mm 0,0 UV-I 0 W/m 16,3 C 22,8 C 3,2 km/h (1 Bft) 100,00 %
20.07.2016 21:04 22,7 C 68 % 1013,7 hPa 0,0 l/m 2,5 km/h (1 Bft) O-NO 67 0 min 0,000 mm 0,0 UV-I 0 W/m 16,5 C 22,7 C 3,2 km/h (1 Bft) 92,00 %
20.07.2016 21:06 22,6 C 68 % 1013,8 hPa 0,0 l/m 2,3 km/h (1 Bft) O-NO 67 0 min 0,000 mm 0,0 UV-I 0 W/m 16,4 C 22,6 C 3,2 km/h (1 Bft) 95,74 %
20.07.2016 21:08 22,5 C 68 % 1013,7 hPa 0,0 l/m 2,2 km/h (1 Bft) O-NO 67 0 min 0,000 mm 0,0 UV-I 0 W/m 16,3 C 22,5 C 3,2 km/h (1 Bft) 97,87 %
20.07.2016 21:10 22,5 C 69 % 1013,7 hPa 0,0 l/m 2,4 km/h (1 Bft) O-NO 67 0 min 0,000 mm 0,0 UV-I 0 W/m 16,5 C 22,5 C 3,2 km/h (1 Bft) 95,74 %
20.07.2016 21:12 22,4 C 69 % 1013,7 hPa 0,0 l/m 2,1 km/h (1 Bft) O-NO 67 0 min 0,000 mm 0,0 UV-I 0 W/m 16,4 C 22,4 C 3,2 km/h (1 Bft) 95,74 %
20.07.2016 21:14 22,5 C 69 % 1013,7 hPa 0,0 l/m 1,8 km/h (1 Bft) O-NO 67 0 min 0,000 mm 0,0 UV-I 0 W/m 16,5 C 22,5 C 3,2 km/h (1 Bft) 97,87 %
20.07.2016 21:16 22,5 C 69 % 1013,8 hPa 0,0 l/m 0,7 km/h (0 Bft) O-NO 67 0 min 0,000 mm 0,0 UV-I 0 W/m 16,5 C 22,5 C 1,6 km/h (1 Bft) 97,87 %
20.07.2016 21:18 22,4 C 69 % 1013,9 hPa 0,0 l/m 0,0 km/h (0 Bft) O-NO 67 0 min 0,000 mm 0,0 UV-I 0 W/m 16,4 C 22,4 C 0,0 km/h (0 Bft) 97,87 %
20.07.2016 21:20 22,3 C 70 % 1013,8 hPa 0,0 l/m 0,0 km/h (0 Bft) O-NO 67 0 min 0,000 mm 0,0 UV-I 0 W/m 16,6 C 22,3 C 0,0 km/h (0 Bft) 95,74 %
20.07.2016 21:22 22,2 C 70 % 1013,9 hPa 0,0 l/m 0,0 km/h (0 Bft) O-NO 67 0 min 0,000 mm 0,0 UV-I 0 W/m 16,5 C 22,2 C 0,0 km/h (0 Bft) 97,87 %
20.07.2016 21:24 22,1 C 71 % 1013,9 hPa 0,0 l/m 0,5 km/h (0 Bft) O-NO 67 0 min 0,000 mm 0,0 UV-I 0 W/m 16,6 C 22,1 C 3,2 km/h (1 Bft) 97,87 %
20.07.2016 21:26 21,9 C 72 % 1013,9 hPa 0,0 l/m 1,7 km/h (1 Bft) O-NO 67 0 min 0,000 mm 0,0 UV-I 0 W/m 16,6 C 21,9 C 3,2 km/h (1 Bft) 100,00 %
20.07.2016 21:28 21,7 C 72 % 1013,9 hPa 0,0 l/m 2,3 km/h (1 Bft) O-NO 67 0 min 0,000 mm 0,0 UV-I 0 W/m 16,4 C 21,7 C 3,2 km/h (1 Bft) 95,74 %
20.07.2016 21:30 21,6 C 73 % 1013,9 hPa 0,0 l/m 2,8 km/h (1 Bft) O-NO 67 0 min 0,000 mm 0,0 UV-I 0 W/m 16,5 C 21,6 C 4,8 km/h (1 Bft) 100,00 %
20.07.2016 21:32 21,4 C 73 % 1013,8 hPa 0,0 l/m 2,8 km/h (1 Bft) O-NO 67 0 min 0,000 mm 0,0 UV-I 0 W/m 16,4 C 21,4 C 4,8 km/h (1 Bft) 100,00 %
20.07.2016 21:34 21,5 C 74 % 1013,8 hPa 0,0 l/m 2,8 km/h (1 Bft) O-NO 67 0 min 0,000 mm 0,0 UV-I 0 W/m 16,7 C 21,5 C 4,8 km/h (1 Bft) 97,87 %
20.07.2016 21:36 21,6 C 73 % 1013,8 hPa 0,0 l/m 3,5 km/h (1 Bft) O-NO 67 0 min 0,000 mm 0,0 UV-I 0 W/m 16,5 C 21,6 C 4,8 km/h (1 Bft) 100,00 %
20.07.2016 21:38 21,5 C 73 % 1013,8 hPa 0,0 l/m 3,8 km/h (1 Bft) O 81 0 min 0,000 mm 0,0 UV-I 0 W/m 16,4 C 21,5 C 6,4 km/h (2 Bft) 100,00 %
20.07.2016 21:40 21,5 C 73 % 1013,8 hPa 0,0 l/m 3,3 km/h (1 Bft) O 81 0 min 0,000 mm 0,0 UV-I 0 W/m 16,4 C 21,5 C 4,8 km/h (1 Bft) 97,87 %
20.07.2016 21:42 21,4 C 73 % 1013,8 hPa 0,0 l/m 2,6 km/h (1 Bft) O 100 0 min 0,000 mm 0,0 UV-I 0 W/m 16,4 C 21,4 C 4,8 km/h (1 Bft) 98,00 %
20.07.2016 21:44 21,4 C 74 % 1013,8 hPa 0,0 l/m 2,5 km/h (1 Bft) O-SO 114 0 min 0,000 mm 0,0 UV-I 0 W/m 16,6 C 21,4 C 3,2 km/h (1 Bft) 100,00 %
20.07.2016 21:46 21,3 C 74 % 1013,8 hPa 0,0 l/m 3,4 km/h (1 Bft) O 80 0 min 0,000 mm 0,0 UV-I 0 W/m 16,5 C 21,3 C 6,4 km/h (2 Bft) 100,00 %
20.07.2016 21:48 21,2 C 75 % 1013,8 hPa 0,0 l/m 3,7 km/h (1 Bft) O 98 0 min 0,000 mm 0,0 UV-I 0 W/m 16,6 C 21,2 C 6,4 km/h (2 Bft) 100,00 %
20.07.2016 21:50 21,2 C 75 % 1013,9 hPa 0,0 l/m 3,3 km/h (1 Bft) O 82 0 min 0,000 mm 0,0 UV-I 0 W/m 16,6 C 21,2 C 6,4 km/h (2 Bft) 100,00 %
20.07.2016 21:52 21,2 C 75 % 1013,9 hPa 0,0 l/m 3,3 km/h (1 Bft) O-SO 102 0 min 0,000 mm 0,0 UV-I 0 W/m 16,6 C 21,2 C 4,8 km/h (1 Bft) 100,00 %
20.07.2016 21:54 21,2 C 75 % 1013,9 hPa 0,0 l/m 3,4 km/h (1 Bft) O 97 0 min 0,000 mm 0,0 UV-I 0 W/m 16,6 C 21,2 C 4,8 km/h (1 Bft) 100,00 %
20.07.2016 21:56 21,2 C 74 % 1013,9 hPa 0,0 l/m 2,7 km/h (1 Bft) O 97 0 min 0,000 mm 0,0 UV-I 0 W/m 16,4 C 21,2 C 4,8 km/h (1 Bft) 100,00 %
20.07.2016 21:58 21,2 C 74 % 1014,0 hPa 0,0 l/m 3,2 km/h (1 Bft) O 97 0 min 0,000 mm 0,0 UV-I 0 W/m 16,4 C 21,2 C 4,8 km/h (1 Bft) 100,00 %
20.07.2016 22:00 21,2 C 75 % 1014,0 hPa 0,0 l/m 3,5 km/h (1 Bft) O 96 0 min 0,025 mm 0,0 UV-I 0 W/m 16,6 C 21,2 C 6,4 km/h (2 Bft) 98,00 %
20.07.2016 22:02 21,2 C 75 % 1013,9 hPa 0,0 l/m 3,8 km/h (1 Bft) O 101 0 min 0,000 mm 0,0 UV-I 0 W/m 16,6 C 21,2 C 4,8 km/h (1 Bft) 100,00 %
20.07.2016 22:04 21,1 C 74 % 1013,9 hPa 0,0 l/m 4,2 km/h (1 Bft) O-NO 71 0 min 0,000 mm 0,0 UV-I 0 W/m 16,3 C 21,1 C 6,4 km/h (2 Bft) 100,00 %
20.07.2016 22:06 21,1 C 74 % 1013,9 hPa 0,0 l/m 5,1 km/h (1 Bft) O-SO 109 0 min 0,000 mm 0,0 UV-I 0 W/m 16,3 C 21,1 C 9,7 km/h (2 Bft) 97,87 %
20.07.2016 22:08 21,2 C 75 % 1014,0 hPa 0,0 l/m 3,1 km/h (1 Bft) O-SO 105 0 min 0,000 mm 0,0 UV-I 0 W/m 16,6 C 21,2 C 4,8 km/h (1 Bft) 98,00 %
20.07.2016 22:10 21,0 C 75 % 1014,0 hPa 0,0 l/m 4,3 km/h (1 Bft) O-SO 114 0 min 0,000 mm 0,0 UV-I 0 W/m 16,4 C 21,0 C 6,4 km/h (2 Bft) 97,14 %
20.07.2016 22:12 21,0 C 74 % 1014,0 hPa 0,0 l/m 5,5 km/h (1 Bft) O 101 0 min 0,000 mm 0,0 UV-I 0 W/m 16,2 C 21,0 C 9,7 km/h (2 Bft) 97,87 %
20.07.2016 22:14 21,2 C 73 % 1013,9 hPa 0,0 l/m 7,3 km/h (2 Bft) O 92 0 min 0,000 mm 0,0 UV-I 0 W/m 16,2 C 20,9 C 11,3 km/h (2 Bft) 100,00 %
20.07.2016 22:16 21,4 C 71 % 1013,9 hPa 0,0 l/m 7,0 km/h (2 Bft) O 96 0 min 0,000 mm 0,0 UV-I 0 W/m 15,9 C 21,2 C 11,3 km/h (2 Bft) 100,00 %
20.07.2016 22:18 21,8 C 70 % 1013,9 hPa 0,0 l/m 6,6 km/h (2 Bft) O-SO 118 0 min 0,000 mm 0,0 UV-I 0 W/m 16,1 C 21,7 C 12,9 km/h (3 Bft) 100,00 %
20.07.2016 22:20 22,1 C 69 % 1013,9 hPa 0,0 l/m 7,4 km/h (2 Bft) O 92 0 min 0,000 mm 0,0 UV-I 0 W/m 16,1 C 21,8 C 12,9 km/h (3 Bft) 100,00 %
20.07.2016 22:22 22,2 C 68 % 1013,9 hPa 0,0 l/m 5,1 km/h (1 Bft) O 96 0 min 0,000 mm 0,0 UV-I 0 W/m 16,0 C 22,2 C 11,3 km/h (2 Bft) 100,00 %
20.07.2016 22:24 22,3 C 67 % 1014,0 hPa 0,0 l/m 5,2 km/h (1 Bft) O 101 0 min 0,000 mm 0,0 UV-I 0 W/m 15,9 C 22,3 C 9,7 km/h (2 Bft) 100,00 %
20.07.2016 22:26 22,3 C 68 % 1013,9 hPa 0,0 l/m 5,0 km/h (1 Bft) O 87 0 min 0,000 mm 0,0 UV-I 0 W/m 16,1 C 22,3 C 9,7 km/h (2 Bft) 98,00 %
20.07.2016 22:28 22,3 C 67 % 1014,0 hPa 0,0 l/m 6,0 km/h (2 Bft) O 101 0 min 0,000 mm 0,0 UV-I 0 W/m 15,9 C 22,3 C 11,3 km/h (2 Bft) 100,00 %
20.07.2016 22:30 22,3 C 68 % 1013,9 hPa 0,0 l/m 4,2 km/h (1 Bft) O 84 0 min 0,000 mm 0,0 UV-I 0 W/m 16,1 C 22,3 C 4,8 km/h (1 Bft) 100,00 %
20.07.2016 22:32 22,2 C 68 % 1013,9 hPa 0,0 l/m 4,4 km/h (1 Bft) O 86 0 min 0,000 mm 0,0 UV-I 0 W/m 16,0 C 22,2 C 6,4 km/h (2 Bft) 100,00 %
20.07.2016 22:34 22,0 C 69 % 1013,9 hPa 0,0 l/m 4,4 km/h (1 Bft) O-SO 107 0 min 0,000 mm 0,0 UV-I 0 W/m 16,0 C 22,0 C 6,4 km/h (2 Bft) 97,87 %
20.07.2016 22:36 21,8 C 71 % 1014,0 hPa 0,0 l/m 3,3 km/h (1 Bft) O 98 0 min 0,000 mm 0,0 UV-I 0 W/m 16,3 C 21,8 C 4,8 km/h (1 Bft) 100,00 %
20.07.2016 22:38 21,5 C 72 % 1014,0 hPa 0,0 l/m 2,5 km/h (1 Bft) O-SO 119 0 min 0,000 mm 0,0 UV-I 0 W/m 16,2 C 21,5 C 4,8 km/h (1 Bft) 100,00 %
20.07.2016 22:40 21,3 C 73 % 1014,0 hPa 0,0 l/m 3,0 km/h (1 Bft) O-SO 119 0 min 0,000 mm 0,0 UV-I 0 W/m 16,3 C 21,3 C 4,8 km/h (1 Bft) 100,00 %
20.07.2016 22:42 21,0 C 74 % 1013,9 hPa 0,0 l/m 2,7 km/h (1 Bft) O-SO 119 0 min 0,000 mm 0,0 UV-I 0 W/m 16,2 C 21,0 C 4,8 km/h (1 Bft) 100,00 %
20.07.2016 22:44 20,8 C 74 % 1013,9 hPa 0,0 l/m 1,8 km/h (1 Bft) O-SO 119 0 min 0,000 mm 0,0 UV-I 0 W/m 16,0 C 20,8 C 3,2 km/h (1 Bft) 97,87 %
20.07.2016 22:46 20,7 C 75 % 1013,9 hPa 0,0 l/m 2,6 km/h (1 Bft) O-SO 119 0 min 0,000 mm 0,0 UV-I 0 W/m 16,1 C 20,7 C 4,8 km/h (1 Bft) 100,00 %
20.07.2016 22:48 20,6 C 76 % 1014,0 hPa 0,0 l/m 1,6 km/h (1 Bft) O-SO 119 0 min 0,000 mm 0,0 UV-I 0 W/m 16,2 C 20,6 C 3,2 km/h (1 Bft) 97,87 %
20.07.2016 22:50 20,4 C 76 % 1014,0 hPa 0,0 l/m 1,8 km/h (1 Bft) O-SO 119 0 min 0,000 mm 0,0 UV-I 0 W/m 16,0 C 20,4 C 3,2 km/h (1 Bft) 97,87 %
20.07.2016 22:52 20,3 C 76 % 1013,9 hPa 0,0 l/m 1,5 km/h (1 Bft) O-SO 119 0 min 0,000 mm 0,0 UV-I 0 W/m 15,9 C 20,3 C 3,2 km/h (1 Bft) 97,96 %
20.07.2016 22:54 20,3 C 77 % 1013,9 hPa 0,0 l/m 1,3 km/h (1 Bft) O-SO 119 0 min 0,000 mm 0,0 UV-I 0 W/m 16,1 C 20,3 C 3,2 km/h (1 Bft) 95,74 %
20.07.2016 22:56 20,2 C 78 % 1013,9 hPa 0,0 l/m 0,9 km/h (0 Bft) O-SO 119 0 min 0,000 mm 0,0 UV-I 0 W/m 16,2 C 20,2 C 3,2 km/h (1 Bft) 97,87 %
20.07.2016 22:58 20,1 C 78 % 1014,0 hPa 0,0 l/m 0,4 km/h (0 Bft) O-SO 119 0 min 0,000 mm 0,0 UV-I 0 W/m 16,1 C 20,1 C 1,6 km/h (1 Bft) 97,87 %
20.07.2016 23:00 20,0 C 78 % 1013,9 hPa 0,0 l/m 0,0 km/h (0 Bft) O-SO 119 0 min 0,000 mm 0,0 UV-I 0 W/m 16,0 C 20,0 C 1,6 km/h (1 Bft) 97,87 %
20.07.2016 23:02 20,0 C 78 % 1013,9 hPa 0,0 l/m 0,0 km/h (0 Bft) O-SO 119 0 min 0,026 mm 0,0 UV-I 0 W/m 16,0 C 20,0 C 0,0 km/h (0 Bft) 95,83 %
20.07.2016 23:04 19,9 C 78 % 1013,9 hPa 0,0 l/m 0,4 km/h (0 Bft) O-SO 119 0 min 0,000 mm 0,0 UV-I 0 W/m 15,9 C 19,9 C 3,2 km/h (1 Bft) 100,00 %
20.07.2016 23:06 19,9 C 79 % 1013,9 hPa 0,0 l/m 2,1 km/h (1 Bft) O-SO 119 0 min 0,000 mm 0,0 UV-I 0 W/m 16,1 C 19,9 C 3,2 km/h (1 Bft) 96,00 %
20.07.2016 23:08 19,8 C 79 % 1013,9 hPa 0,0 l/m 2,8 km/h (1 Bft) O-SO 119 0 min 0,000 mm 0,0 UV-I 0 W/m 16,0 C 19,8 C 4,8 km/h (1 Bft) 98,00 %
20.07.2016 23:10 19,8 C 79 % 1013,8 hPa 0,0 l/m 2,6 km/h (1 Bft) O-SO 119 0 min 0,000 mm 0,0 UV-I 0 W/m 16,0 C 19,8 C 3,2 km/h (1 Bft) 97,87 %
20.07.2016 23:12 19,7 C 79 % 1013,9 hPa 0,0 l/m 2,7 km/h (1 Bft) O-SO 103 0 min 0,000 mm 0,0 UV-I 0 W/m 16,0 C 19,7 C 6,4 km/h (2 Bft) 97,92 %
20.07.2016 23:14 19,7 C 79 % 1013,9 hPa 0,0 l/m 2,2 km/h (1 Bft) SO 126 0 min 0,000 mm 0,0 UV-I 0 W/m 16,0 C 19,7 C 3,2 km/h (1 Bft) 97,87 %
20.07.2016 23:16 19,7 C 80 % 1013,9 hPa 0,0 l/m 1,1 km/h (1 Bft) SO 126 0 min 0,000 mm 0,0 UV-I 0 W/m 16,1 C 19,7 C 3,2 km/h (1 Bft) 97,87 %
20.07.2016 23:18 19,6 C 81 % 1014,0 hPa 0,0 l/m 0,6 km/h (0 Bft) SO 126 0 min 0,000 mm 0,0 UV-I 0 W/m 16,2 C 19,6 C 1,6 km/h (1 Bft) 97,87 %
20.07.2016 23:20 19,4 C 81 % 1013,9 hPa 0,0 l/m 0,7 km/h (0 Bft) SO 126 0 min 0,000 mm 0,0 UV-I 0 W/m 16,1 C 19,4 C 1,6 km/h (1 Bft) 95,74 %
20.07.2016 23:22 19,3 C 83 % 1014,0 hPa 0,0 l/m 1,3 km/h (1 Bft) SO 126 0 min 0,000 mm 0,0 UV-I 0 W/m 16,3 C 19,3 C 3,2 km/h (1 Bft) 97,87 %
20.07.2016 23:24 19,1 C 83 % 1014,0 hPa 0,0 l/m 2,4 km/h (1 Bft) SO 126 0 min 0,000 mm 0,0 UV-I 0 W/m 16,1 C 19,1 C 3,2 km/h (1 Bft) 97,87 %
20.07.2016 23:26 18,9 C 83 % 1014,0 hPa 0,0 l/m 1,9 km/h (1 Bft) SO 126 0 min 0,000 mm 0,0 UV-I 0 W/m 15,9 C 18,9 C 3,2 km/h (1 Bft) 100,00 %
20.07.2016 23:28 18,8 C 83 % 1014,0 hPa 0,0 l/m 0,9 km/h (0 Bft) SO 126 0 min 0,000 mm 0,0 UV-I 0 W/m 15,8 C 18,8 C 1,6 km/h (1 Bft) 100,00 %
20.07.2016 23:30 18,8 C 84 % 1014,1 hPa 0,0 l/m 1,6 km/h (1 Bft) SO 126 0 min 0,000 mm 0,0 UV-I 0 W/m 16,0 C 18,8 C 1,6 km/h (1 Bft) 100,00 %
20.07.2016 23:32 18,8 C 85 % 1014,1 hPa 0,0 l/m 1,5 km/h (1 Bft) SO 126 0 min 0,000 mm 0,0 UV-I 0 W/m 16,2 C 18,8 C 3,2 km/h (1 Bft) 100,00 %
20.07.2016 23:34 18,7 C 85 % 1014,1 hPa 0,0 l/m 2,1 km/h (1 Bft) SO 126 0 min 0,000 mm 0,0 UV-I 0 W/m 16,1 C 18,7 C 3,2 km/h (1 Bft) 97,87 %
20.07.2016 23:36 18,6 C 86 % 1014,1 hPa 0,0 l/m 1,6 km/h (1 Bft) SO 126 0 min 0,000 mm 0,0 UV-I 0 W/m 16,2 C 18,6 C 3,2 km/h (1 Bft) 100,00 %
20.07.2016 23:38 18,6 C 86 % 1014,1 hPa 0,0 l/m 1,7 km/h (1 Bft) SO 126 0 min 0,000 mm 0,0 UV-I 0 W/m 16,2 C 18,6 C 3,2 km/h (1 Bft) 100,00 %
20.07.2016 23:40 18,6 C 86 % 1014,2 hPa 0,0 l/m 1,3 km/h (1 Bft) O-SO 103 0 min 0,000 mm 0,0 UV-I 0 W/m 16,2 C 18,6 C 3,2 km/h (1 Bft) 100,00 %
20.07.2016 23:42 18,3 C 85 % 1014,3 hPa 0,0 l/m 0,3 km/h (0 Bft) O 98 0 min 0,000 mm 0,0 UV-I 0 W/m 15,7 C 18,3 C 1,6 km/h (1 Bft) 100,00 %
20.07.2016 23:44 18,0 C 86 % 1014,2 hPa 0,0 l/m 0,1 km/h (0 Bft) O 98 0 min 0,000 mm 0,0 UV-I 0 W/m 15,6 C 18,0 C 1,6 km/h (1 Bft) 100,00 %
20.07.2016 23:46 17,8 C 88 % 1014,2 hPa 0,0 l/m 0,2 km/h (0 Bft) O 98 0 min 0,000 mm 0,0 UV-I 0 W/m 15,8 C 17,8 C 1,6 km/h (1 Bft) 98,00 %
20.07.2016 23:48 17,9 C 88 % 1014,2 hPa 0,0 l/m 0,0 km/h (0 Bft) O 98 0 min 0,000 mm 0,0 UV-I 0 W/m 15,9 C 17,9 C 0,0 km/h (0 Bft) 97,87 %
20.07.2016 23:50 18,0 C 88 % 1014,2 hPa 0,0 l/m 0,5 km/h (0 Bft) O 98 0 min 0,000 mm 0,0 UV-I 0 W/m 16,0 C 18,0 C 3,2 km/h (1 Bft) 100,00 %
20.07.2016 23:52 18,1 C 87 % 1014,3 hPa 0,0 l/m 3,0 km/h (1 Bft) O 94 0 min 0,000 mm 0,0 UV-I 0 W/m 15,9 C 18,1 C 4,8 km/h (1 Bft) 100,00 %
20.07.2016 23:54 18,2 C 87 % 1014,3 hPa 0,0 l/m 0,3 km/h (0 Bft) O 94 0 min 0,000 mm 0,0 UV-I 0 W/m 16,0 C 18,2 C 1,6 km/h (1 Bft) 97,87 %
20.07.2016 23:56 18,3 C 86 % 1014,3 hPa 0,0 l/m 1,8 km/h (1 Bft) O 94 0 min 0,000 mm 0,0 UV-I 0 W/m 15,9 C 18,3 C 3,2 km/h (1 Bft) 97,87 %
20.07.2016 23:58 18,4 C 86 % 1014,3 hPa 0,0 l/m 1,2 km/h (1 Bft) O 94 0 min 0,000 mm 0,0 UV-I 0 W/m 16,0 C 18,4 C 3,2 km/h (1 Bft) 97,87 %
_ Min-Zeit 05:08 16:04 19:26 - 00:00 - - - - - - 16:04 05:08 00:00 03:18
Minimum _ 14,7 C 35 % 1013,7 hPa - 0,0 km/h (0 Bft) - - - - - - 11,8 C 14,7 C 0,0 km/h (0 Bft) 91,43 %
_ Max-Zeit 16:22 05:02 00:00 00:00 18:58 - - 06:54 13:00 13:30 13:30 12:18 16:22 12:08 00:26
Maximum _ 29,6 C 94 % 1017,6 hPa 0,0 l/m 14,1 km/h
N (3 Bft)
- - 2 min 0,585 mm 7,6 UV-I 887 W/m 18,5 C 29,6 C 20,9 km/h
O-NO (4 Bft)
100,00 %
Durchschnitt _ 22,1 C 69 % 1015,9 hPa #0,0 l/m 3,0 km/h (1 Bft) NO - #12:56 h #5,258 mm 4,1 UV-I 481 W/m 15,3 C 22,1 C 5,5 km/h (1 Bft) 98,33 %